[[{"header":{"parameterUnit":"m.s-1","parameterCategory":1,"la1":30.6,"la2":29.2853,"lo1":-89.7004,"lo2":-87.6739,"dy":0.0162,"dx":0.0183,"nx":112,"ny":82,"refTime":"2023-09-23T06:00:00:Z","depth":0,"parameterNumber":2,"parameterNumberName":"U-component_of_WINDS"},"data":[0.0,0.0,0.0,0.0,0.0,0.0,0.0,0.0,0.0,0.0,0.0,0.0,0.0,0.0,0.0,0.0,0.0,0.0,0.0,0.0,0.0,0.0,0.0,0.0,0.0,0.0,0.0,0.0,0.0,0.0,0.0,0.0,0.0,0.0,0.0,0.0,0.0,0.0,0.0,0.0,0.0,0.0,0.0,0.0,0.0,0.0,0.0,0.0,0.0,0.0,0.0,0.0,0.0,0.0,0.0,0.0,0.0,0.0,0.0,0.0,0.0,0.0,0.0,0.0,0.0,0.0,0.0,0.0,0.0,0.0,0.0,0.0,0.0,0.0,0.0,0.0,0.0,0.0,0.0,0.0,0.0,0.0,0.0,0.0,0.0,0.0,0.0,0.0,0.0,0.0,0.0,-2.063,-2.285,-2.3925,-2.3264,-2.2353,-2.2137,-2.2901,0.0,0.0,0.0,0.0,0.0,0.0,0.0,0.0,0.0,0.0,0.0,0.0,0.0,0.0,0.0,0.0,0.0,0.0,0.0,0.0,0.0,0.0,0.0,0.0,0.0,0.0,0.0,0.0,0.0,0.0,0.0,0.0,0.0,0.0,0.0,0.0,0.0,0.0,0.0,0.0,0.0,0.0,0.0,0.0,0.0,0.0,0.0,0.0,0.0,0.0,0.0,0.0,0.0,0.0,0.0,0.0,0.0,0.0,0.0,0.0,0.0,0.0,0.0,0.0,0.0,0.0,0.0,0.0,0.0,0.0,0.0,0.0,0.0,0.0,0.0,0.0,0.0,0.0,0.0,0.0,0.0,0.0,0.0,0.0,0.0,0.0,0.0,0.0,0.0,0.0,0.0,0.0,0.0,0.0,0.0,0.0,0.0,0.0,0.0,0.0,0.0,0.0,0.0,0.0,-2.0571,-2.2401,-2.3556,-2.3943,-2.3342,-2.1316,-2.0966,-2.3017,0.0,0.0,0.0,0.0,0.0,0.0,0.0,0.0,0.0,0.0,0.0,0.0,0.0,0.0,0.0,0.0,0.0,0.0,0.0,0.0,0.0,0.0,0.0,0.0,0.0,0.0,0.0,0.0,0.0,0.0,0.0,0.0,0.0,0.0,0.0,0.0,0.0,0.0,0.0,0.0,0.0,0.0,0.0,0.0,0.0,0.0,0.0,0.0,0.0,0.0,0.0,0.0,0.0,0.0,0.0,0.0,0.0,0.0,0.0,0.0,0.0,0.0,0.0,0.0,0.0,0.0,0.0,0.0,0.0,0.0,0.0,0.0,0.0,0.0,0.0,0.0,0.0,0.0,0.0,0.0,0.0,0.0,0.0,0.0,0.0,0.0,0.0,0.0,0.0,0.0,0.0,0.0,0.0,0.0,0.0,0.0,0.0,0.0,0.0,0.0,0.0,0.0,0.0,-2.0924,-2.2254,-2.3529,-2.3602,-2.3447,-2.3148,-2.063,-2.0357,-2.3437,-2.0308,0.0,0.0,0.0,0.0,0.0,0.0,0.0,0.0,0.0,0.0,0.0,0.0,0.0,0.0,0.0,0.0,0.0,0.0,0.0,0.0,0.0,0.0,0.0,0.0,0.0,0.0,0.0,0.0,0.0,0.0,0.0,0.0,0.0,0.0,0.0,0.0,0.0,0.0,0.0,0.0,0.0,0.0,0.0,0.0,0.0,0.0,0.0,0.0,0.0,0.0,0.0,0.0,0.0,0.0,0.0,0.0,0.0,0.0,0.0,0.0,0.0,0.0,0.0,0.0,0.0,0.0,0.0,0.0,0.0,0.0,0.0,0.0,0.0,0.0,0.0,0.0,0.0,0.0,0.0,0.0,0.0,0.0,0.0,0.0,0.0,0.0,0.0,0.0,0.0,0.0,0.0,0.0,0.0,0.0,0.0,0.0,0.0,0.0,0.0,0.0,0.0,0.0,-2.2115,-2.292,-2.4071,-2.3492,-2.2914,-2.2731,-2.0466,-2.0252,-2.3043,-1.9852,0.0,0.0,0.0,0.0,0.0,0.0,0.0,0.0,0.0,0.0,0.0,0.0,0.0,0.0,0.0,0.0,0.0,0.0,0.0,0.0,0.0,0.0,0.0,0.0,0.0,0.0,0.0,0.0,0.0,0.0,0.0,0.0,0.0,0.0,0.0,0.0,0.0,0.0,0.0,0.0,0.0,0.0,0.0,0.0,0.0,0.0,0.0,0.0,0.0,0.0,0.0,0.0,0.0,0.0,0.0,0.0,0.0,0.0,0.0,0.0,0.0,0.0,0.0,0.0,0.0,0.0,0.0,0.0,0.0,0.0,0.0,0.0,0.0,0.0,0.0,0.0,0.0,0.0,0.0,0.0,0.0,0.0,0.0,0.0,0.0,0.0,0.0,0.0,0.0,0.0,0.0,0.0,0.0,0.0,0.0,0.0,0.0,0.0,0.0,0.0,0.0,0.0,-2.1057,-2.1584,-2.3951,-2.3492,-2.2703,-2.1941,-2.1179,-2.0788,-2.0917,-2.0045,0.0,0.0,0.0,0.0,0.0,0.0,0.0,0.0,0.0,0.0,0.0,0.0,0.0,0.0,0.0,0.0,0.0,0.0,0.0,0.0,0.0,0.0,0.0,0.0,0.0,0.0,0.0,0.0,0.0,0.0,0.0,0.0,0.0,0.0,0.0,0.0,0.0,0.0,0.0,0.0,0.0,0.0,0.0,0.0,0.0,0.0,0.0,0.0,0.0,0.0,0.0,0.0,0.0,0.0,0.0,0.0,0.0,0.0,0.0,0.0,0.0,0.0,0.0,0.0,0.0,0.0,0.0,0.0,0.0,0.0,0.0,0.0,0.0,0.0,0.0,0.0,0.0,0.0,0.0,0.0,0.0,0.0,0.0,0.0,0.0,0.0,0.0,0.0,0.0,0.0,0.0,0.0,0.0,0.0,0.0,0.0,0.0,0.0,0.0,0.0,0.0,0.0,-2.1592,-2.2276,0.0,-2.2514,-2.1801,-2.0352,-1.8846,-1.8555,-1.9924,0.0,0.0,0.0,0.0,0.0,0.0,0.0,0.0,0.0,0.0,0.0,0.0,0.0,0.0,0.0,0.0,0.0,0.0,0.0,0.0,0.0,0.0,0.0,0.0,0.0,0.0,0.0,0.0,0.0,0.0,0.0,0.0,0.0,0.0,0.0,0.0,0.0,0.0,0.0,0.0,0.0,0.0,0.0,0.0,0.0,0.0,0.0,0.0,0.0,0.0,0.0,0.0,0.0,0.0,0.0,0.0,0.0,0.0,0.0,0.0,0.0,0.0,0.0,0.0,0.0,0.0,0.0,0.0,0.0,0.0,0.0,0.0,0.0,0.0,0.0,0.0,0.0,0.0,0.0,0.0,0.0,0.0,0.0,0.0,0.0,0.0,0.0,0.0,0.0,0.0,0.0,0.0,0.0,0.0,0.0,0.0,0.0,0.0,0.0,0.0,0.0,0.0,-2.0137,-2.1056,-2.1592,0.0,-2.1414,-2.0666,-1.9464,-1.7847,-1.7699,-1.9582,0.0,0.0,0.0,0.0,0.0,0.0,0.0,0.0,0.0,0.0,0.0,0.0,0.0,0.0,0.0,0.0,0.0,0.0,0.0,0.0,0.0,0.0,0.0,0.0,0.0,0.0,0.0,0.0,0.0,0.0,0.0,0.0,0.0,0.0,0.0,0.0,0.0,0.0,0.0,0.0,0.0,0.0,0.0,0.0,0.0,0.0,0.0,0.0,0.0,0.0,0.0,0.0,0.0,0.0,0.0,0.0,0.0,0.0,0.0,0.0,0.0,0.0,0.0,0.0,0.0,0.0,0.0,0.0,0.0,0.0,0.0,0.0,0.0,0.0,0.0,0.0,0.0,0.0,0.0,0.0,0.0,0.0,0.0,0.0,0.0,0.0,0.0,0.0,0.0,0.0,0.0,0.0,0.0,0.0,0.0,0.0,0.0,0.0,0.0,0.0,0.0,0.0,-2.0004,-1.908,-1.9032,-2.1482,-2.0278,-1.9339,-1.9458,-1.879,-1.8793,0.0,0.0,0.0,0.0,0.0,0.0,0.0,0.0,0.0,0.0,0.0,0.0,0.0,0.0,0.0,0.0,0.0,0.0,0.0,0.0,0.0,0.0,0.0,0.0,0.0,0.0,0.0,0.0,0.0,0.0,0.0,0.0,0.0,0.0,0.0,0.0,0.0,0.0,0.0,0.0,0.0,0.0,0.0,0.0,0.0,0.0,0.0,0.0,0.0,0.0,0.0,0.0,0.0,0.0,0.0,0.0,0.0,0.0,0.0,0.0,0.0,0.0,0.0,0.0,0.0,0.0,0.0,0.0,0.0,0.0,0.0,0.0,0.0,0.0,0.0,0.0,0.0,0.0,0.0,0.0,0.0,0.0,0.0,0.0,0.0,0.0,0.0,0.0,0.0,0.0,0.0,0.0,0.0,0.0,0.0,0.0,0.0,0.0,0.0,0.0,0.0,0.0,0.0,-1.85,-1.7906,-1.7562,-1.8391,-1.8646,-1.8297,-1.7189,-1.6511,-1.7236,-1.9801,0.0,0.0,0.0,0.0,0.0,0.0,0.0,0.0,0.0,0.0,0.0,0.0,0.0,0.0,0.0,0.0,0.0,0.0,0.0,0.0,0.0,0.0,0.0,0.0,0.0,0.0,0.0,0.0,0.0,0.0,0.0,0.0,0.0,0.0,0.0,0.0,0.0,0.0,0.0,0.0,0.0,0.0,0.0,0.0,0.0,0.0,0.0,0.0,0.0,0.0,0.0,0.0,0.0,0.0,0.0,0.0,0.0,0.0,0.0,0.0,0.0,0.0,0.0,0.0,0.0,0.0,0.0,0.0,0.0,0.0,0.0,0.0,0.0,0.0,0.0,0.0,0.0,0.0,0.0,0.0,0.0,0.0,0.0,0.0,0.0,0.0,0.0,0.0,0.0,0.0,0.0,0.0,0.0,0.0,0.0,0.0,0.0,0.0,0.0,0.0,0.0,0.0,-1.8044,-1.7236,-1.667,-1.7129,-1.7404,-1.7158,-1.6224,-1.551,-1.6242,-1.8878,0.0,0.0,0.0,0.0,0.0,0.0,0.0,0.0,0.0,0.0,0.0,0.0,0.0,0.0,0.0,0.0,0.0,0.0,0.0,0.0,0.0,0.0,0.0,0.0,0.0,0.0,0.0,0.0,0.0,0.0,0.0,0.0,0.0,0.0,0.0,0.0,0.0,0.0,0.0,0.0,0.0,0.0,0.0,0.0,0.0,0.0,0.0,0.0,0.0,0.0,0.0,0.0,0.0,0.0,0.0,0.0,0.0,0.0,0.0,0.0,0.0,0.0,0.0,0.0,0.0,0.0,0.0,0.0,0.0,0.0,0.0,0.0,0.0,0.0,0.0,0.0,0.0,0.0,0.0,0.0,0.0,0.0,0.0,0.0,0.0,0.0,0.0,0.0,0.0,0.0,0.0,0.0,0.0,0.0,0.0,0.0,0.0,0.0,0.0,0.0,0.0,0.0,-1.8359,-1.6984,-1.6218,-1.6999,-1.6431,-1.6039,-1.6096,-1.5445,-1.5784,-1.7608,0.0,0.0,0.0,0.0,0.0,0.0,0.0,0.0,0.0,0.0,0.0,0.0,0.0,0.0,0.0,0.0,0.0,0.0,0.0,0.0,0.0,0.0,0.0,0.0,0.0,0.0,0.0,0.0,0.0,0.0,0.0,0.0,0.0,0.0,0.0,0.0,0.0,0.0,0.0,0.0,0.0,0.0,0.0,0.0,0.0,0.0,0.0,0.0,0.0,0.0,0.0,0.0,0.0,0.0,0.0,0.0,0.0,0.0,0.0,0.0,-2.1643,0.0,0.0,0.0,0.0,0.0,0.0,0.0,0.0,0.0,0.0,0.0,0.0,0.0,0.0,0.0,0.0,0.0,0.0,0.0,0.0,0.0,0.0,0.0,0.0,0.0,0.0,0.0,0.0,0.0,0.0,0.0,0.0,0.0,0.0,0.0,0.0,0.0,0.0,0.0,0.0,0.0,-1.8535,-1.71,-1.5899,-1.5524,-1.5331,-1.5277,-1.5399,-1.5261,-1.6141,-1.8486,-1.7625,0.0,0.0,0.0,0.0,0.0,0.0,0.0,0.0,0.0,0.0,0.0,0.0,0.0,0.0,0.0,0.0,0.0,0.0,0.0,0.0,0.0,0.0,0.0,0.0,0.0,0.0,0.0,0.0,0.0,0.0,0.0,0.0,0.0,0.0,0.0,0.0,0.0,0.0,0.0,0.0,0.0,0.0,0.0,0.0,0.0,0.0,0.0,0.0,0.0,0.0,0.0,0.0,0.0,0.0,0.0,0.0,0.0,0.0,0.0,0.0,-2.4032,0.0,0.0,0.0,0.0,0.0,0.0,0.0,0.0,0.0,0.0,0.0,0.0,0.0,0.0,0.0,0.0,0.0,0.0,0.0,0.0,0.0,0.0,0.0,0.0,0.0,0.0,0.0,0.0,0.0,0.0,0.0,0.0,0.0,0.0,0.0,0.0,0.0,0.0,0.0,0.0,-1.872,-1.7259,-1.591,-1.5181,-1.5095,-1.513,-1.5189,-1.5192,-1.5744,-1.7038,-1.7363,0.0,0.0,0.0,0.0,0.0,0.0,0.0,0.0,0.0,0.0,0.0,0.0,0.0,0.0,0.0,0.0,0.0,0.0,0.0,0.0,0.0,0.0,0.0,0.0,0.0,0.0,0.0,0.0,0.0,0.0,0.0,0.0,0.0,0.0,0.0,0.0,0.0,0.0,0.0,0.0,0.0,0.0,0.0,0.0,0.0,0.0,0.0,0.0,0.0,0.0,0.0,0.0,0.0,-3.3764,-3.4449,-3.4334,-3.5057,-3.5291,-3.4958,-3.1405,-2.871,-2.6718,-2.5406,0.0,0.0,0.0,0.0,0.0,0.0,0.0,0.0,0.0,0.0,0.0,0.0,0.0,0.0,0.0,0.0,0.0,0.0,0.0,0.0,0.0,0.0,0.0,0.0,-2.3659,-2.4028,-1.9521,0.0,0.0,0.0,0.0,0.0,0.0,0.0,0.0,0.0,0.0,0.0,-1.9113,-1.7626,-1.6268,-1.5513,-1.5288,-1.5192,-1.5192,-1.5192,-1.5192,-1.5192,-1.7111,-1.7684,0.0,0.0,0.0,0.0,0.0,0.0,0.0,0.0,0.0,0.0,0.0,0.0,0.0,0.0,0.0,0.0,0.0,0.0,0.0,0.0,0.0,0.0,0.0,0.0,0.0,0.0,0.0,0.0,0.0,0.0,0.0,0.0,-2.1693,-2.2621,0.0,0.0,0.0,0.0,0.0,0.0,0.0,0.0,0.0,0.0,0.0,0.0,0.0,-3.2031,-3.3496,-3.6094,-3.7461,-3.7578,-3.8574,-3.8652,-3.793,-3.8027,-3.7676,-3.6933,-3.6367,0.0,-3.1014,-2.7927,0.0,0.0,0.0,0.0,0.0,0.0,0.0,0.0,0.0,0.0,0.0,0.0,0.0,0.0,0.0,0.0,0.0,0.0,0.0,0.0,0.0,0.0,-2.3945,-2.3182,-2.3261,-2.332,0.0,-2.2357,-2.2327,-2.2269,-2.1072,0.0,0.0,0.0,0.0,0.0,0.0,0.0,-2.0105,-1.8559,-1.7205,-1.6407,-1.5654,-1.5192,-1.5192,-1.5192,-1.5192,-1.5192,-1.5516,-1.5917,-1.6455,-1.9089,0.0,0.0,0.0,0.0,0.0,0.0,0.0,0.0,0.0,0.0,0.0,0.0,0.0,0.0,0.0,0.0,0.0,0.0,0.0,0.0,0.0,0.0,0.0,0.0,0.0,0.0,0.0,0.0,0.0,-2.337,-2.5351,-2.568,-2.6487,-2.6397,0.0,0.0,0.0,0.0,0.0,0.0,0.0,0.0,0.0,-3.2611,-3.5172,-3.6875,-3.7617,-3.9687,-4.0742,-4.0742,-4.2129,-4.2305,-4.1484,-4.1973,-4.1719,-4.0898,-4.0898,-3.9219,-3.6172,-3.2226,-2.9824,-2.8379,0.0,0.0,0.0,0.0,-2.3043,-2.3473,-2.3472,-2.4896,0.0,-2.5151,0.0,0.0,0.0,0.0,0.0,0.0,0.0,0.0,0.0,0.0,-2.4876,-2.4062,-2.4258,-2.4609,-2.457,-2.4135,-2.3586,0.0,-2.2728,-2.2426,-2.2146,0.0,0.0,0.0,0.0,-2.0616,-2.0291,-1.92,-1.8119,-1.7257,-1.683,-1.6619,-1.6619,-1.6195,-1.6118,-1.658,-1.5712,-1.5788,-1.7122,-1.8689,-1.9327,0.0,0.0,0.0,0.0,0.0,0.0,0.0,0.0,0.0,0.0,0.0,0.0,0.0,0.0,0.0,0.0,0.0,0.0,0.0,0.0,0.0,0.0,0.0,0.0,0.0,0.0,0.0,0.0,-2.6257,-2.8388,-2.7682,-2.9674,-3.0284,0.0,0.0,0.0,0.0,0.0,0.0,-3.3372,-3.44,-3.5858,-3.7974,-3.9863,-4.0954,-4.1149,-4.2656,-4.3398,-4.3418,-4.4707,-4.498,-4.4394,-4.5039,-4.4863,-4.4023,-4.3808,-4.25,-4.0234,-3.6348,-3.3594,-3.1699,-2.998,-2.8515,-2.7265,-2.6384,-2.6462,-2.6991,-2.6775,-2.7967,-2.9355,-2.7832,-2.7616,-2.7556,-2.5382,0.0,0.0,0.0,0.0,-2.4265,-2.4074,-2.4853,-2.5546,-2.4883,-2.5234,-2.5703,-2.5703,-2.5195,-2.4472,0.0,-2.3779,-2.3801,-2.2996,0.0,0.0,0.0,0.0,-2.0487,-2.0323,-1.9535,-1.875,-1.8103,-1.7834,-1.7699,-1.7699,-1.7141,-1.7064,-1.7661,-1.6349,-1.6176,-1.7641,-1.8318,-1.8851,-1.9256,0.0,0.0,0.0,0.0,0.0,0.0,0.0,0.0,0.0,0.0,0.0,0.0,0.0,0.0,0.0,0.0,0.0,0.0,0.0,0.0,0.0,0.0,0.0,0.0,0.0,0.0,0.0,0.0,0.0,-2.7055,-3.2428,0.0,0.0,0.0,0.0,-3.2772,-3.3528,-3.5112,-3.7753,-3.8699,-3.9634,-4.0574,-4.2421,-4.3786,-4.4549,-4.5581,-4.6094,-4.6094,-4.6191,-4.6211,-4.6172,-4.6211,-4.5762,-4.4883,-4.4062,-4.3164,-4.207,-3.9434,-3.6836,-3.4336,-3.2656,-3.1953,-3.1777,-3.0898,-3.0605,-3.0527,-2.9687,-2.9492,-2.9453,-2.8535,-2.7695,-2.6894,-2.5935,-2.4987,0.0,0.0,-2.5567,-2.4683,-2.6363,-2.6249,-2.5684,-2.5644,-2.5664,-2.5703,-2.5703,-2.5664,-2.5371,0.0,-2.3691,-2.3121,-2.3017,0.0,-2.2612,-2.1696,-2.1494,-2.1154,-2.0404,-1.9535,-1.8981,-1.8934,-1.8184,-1.7699,-1.7699,-1.7661,-1.7661,-1.7699,-1.691,-1.6814,-1.7661,-1.7738,-1.8542,-2.0208,-2.1182,0.0,0.0,0.0,0.0,0.0,0.0,0.0,0.0,0.0,0.0,0.0,0.0,0.0,0.0,0.0,0.0,0.0,0.0,0.0,0.0,0.0,0.0,0.0,0.0,0.0,0.0,0.0,0.0,-3.2416,-3.5913,0.0,-3.472,-3.4599,-3.5387,-3.7094,-3.6952,-3.8139,-4.1251,-4.1707,-4.2538,-4.3959,-4.4703,-4.5211,-4.5507,-4.5954,-4.6173,-4.6174,-4.6268,-4.6308,-4.6308,-4.6308,-4.6072,-4.5685,-4.5372,-4.4453,-4.3106,-4.2187,-3.9992,-3.709,-3.5937,-3.4805,-3.3769,-3.3457,-3.2988,-3.2383,-3.1562,-3.1269,-3.0937,-2.8945,-2.7715,-2.6836,-2.5957,-2.5467,-2.5348,-2.5975,-2.5701,-2.5349,-2.5995,-2.5937,-2.5703,-2.5703,-2.5703,-2.5703,-2.5703,-2.5703,-2.5605,-2.5293,-2.4531,-2.3924,-2.3841,-2.3403,-2.2936,-2.2535,-2.1949,-2.1262,-2.0402,-2.0041,-1.9846,-1.9831,-1.9561,-1.9369,-1.9369,-1.8853,-1.8776,-1.935,-1.8042,-1.7907,-1.9311,-1.8827,-1.9096,-2.0288,-2.0623,-1.9318,0.0,0.0,0.0,0.0,0.0,0.0,0.0,0.0,0.0,0.0,0.0,0.0,0.0,0.0,0.0,0.0,0.0,0.0,0.0,0.0,0.0,0.0,0.0,0.0,0.0,0.0,-3.6633,-3.601,-3.9182,-4.0653,-3.8685,-3.8273,-3.8954,-4.0963,-4.0823,-4.1875,-4.4696,-4.4861,-4.5254,-4.6143,-4.624,-4.6143,-4.5876,-4.5971,-4.6036,-4.6036,-4.6119,-4.6171,-4.6171,-4.6171,-4.6117,-4.6017,-4.5741,-4.4824,-4.3515,-4.3223,-4.161,-3.9261,-3.8475,-3.7461,-3.6387,-3.5781,-3.5215,-3.4512,-3.3105,-3.2031,-3.1035,-2.9297,-2.7949,-2.6894,-2.6309,-2.5937,-2.5703,-2.5703,-2.5703,-2.5703,-2.5703,-2.5703,-2.5703,-2.5703,-2.5703,-2.5703,-2.5703,-2.5703,-2.5703,-2.5703,-2.5234,-2.4823,-2.4774,-2.4318,-2.4033,-2.4273,-2.3779,-2.3254,-2.2979,-2.2175,-2.1655,-2.1655,-2.0856,-2.0328,-2.0328,-2.0041,-2.0008,-2.0283,-1.9221,-1.9107,-2.025,-1.975,-1.9842,-2.068,-1.9715,-1.8428,-1.6878,0.0,0.0,0.0,0.0,0.0,0.0,0.0,0.0,0.0,0.0,0.0,0.0,0.0,0.0,0.0,0.0,0.0,0.0,0.0,0.0,0.0,0.0,0.0,-3.2086,-3.7791,-4.0776,-3.7507,-4.2183,-4.4075,-3.9977,-4.1816,-4.3585,-4.4355,-4.521,-4.6394,-4.8009,-4.8105,-4.774,-4.6923,-4.6959,-4.6608,-4.579,-4.5852,-4.5894,-4.5894,-4.5899,-4.5899,-4.5899,-4.5899,-4.5899,-4.5855,-4.5073,-4.4217,-4.3326,-4.2481,-4.1606,-4.0738,-4.0125,-3.9883,-3.9648,-3.793,-3.7266,-3.6855,-3.4297,-3.1777,-2.9668,-2.9629,-2.8457,-2.707,-2.7012,-2.6406,-2.5723,-2.5703,-2.5703,-2.5703,-2.5703,-2.5703,-2.5703,-2.5703,-2.5703,-2.5703,-2.5703,-2.5703,-2.5703,-2.5703,-2.5703,-2.5703,-2.5702,-2.5652,-2.5888,-2.67,-2.6764,0.0,-2.7831,-2.5785,-2.4284,-2.4323,-2.2025,-2.0488,-2.0525,-2.1199,-2.1238,-2.0352,-2.0292,-2.0304,-2.03,-2.03,-2.0692,-2.1494,-1.8609,-1.9259,-2.3584,0.0,0.0,0.0,0.0,0.0,0.0,0.0,0.0,0.0,0.0,0.0,0.0,0.0,0.0,0.0,0.0,0.0,0.0,0.0,0.0,0.0,0.0,-3.8909,-3.826,-4.1366,-4.38,-4.4091,-4.6075,-4.6951,-4.5797,-4.6317,-4.6817,-4.7048,-4.7278,-4.7605,-4.8086,-4.8105,-4.774,-4.6923,-4.6908,-4.6527,-4.5668,-4.5764,-4.5826,-4.5832,-4.5877,-4.5899,-4.5899,-4.5899,-4.5872,-4.5826,-4.5594,-4.4638,-4.3236,-4.3003,-4.2073,-4.0735,-4.0032,-3.9336,-3.8624,-3.7651,-3.6504,-3.5215,-3.3867,-3.2559,-3.1289,-3.0019,-2.9277,-2.8652,-2.7383,-2.6836,-2.6504,-2.5879,-2.5703,-2.5703,-2.5703,-2.5703,-2.5703,-2.5703,-2.5703,-2.5703,-2.5703,-2.5703,-2.5703,-2.5703,-2.5703,-2.5703,-2.5703,-2.5683,-2.5544,-2.5153,-2.5061,0.0,-2.4535,-2.3811,-2.3848,-2.5109,-2.3476,-2.2541,-2.3175,-2.2269,-2.1308,-2.0424,-2.0374,-2.0364,-2.0378,-2.0378,-2.0834,-2.1847,-2.0274,-2.0057,0.0,0.0,0.0,0.0,0.0,0.0,0.0,0.0,0.0,0.0,0.0,0.0,0.0,0.0,0.0,0.0,0.0,0.0,0.0,0.0,0.0,0.0,-3.9815,-4.3882,-4.5167,-4.6313,-4.7277,-4.7875,-4.8355,-4.8509,-4.8144,-4.8105,-4.8259,-4.8625,-4.8644,-4.8798,-4.9163,-4.9183,-4.8817,-4.7971,-4.7586,-4.7009,-4.6144,-4.5854,-4.5723,-4.5723,-4.5757,-4.5763,-4.5763,-4.5763,-4.5744,-4.5703,-4.5336,-4.4402,-4.3139,-4.2753,-4.1848,0.0,0.0,0.0,0.0,0.0,-3.5912,-3.4057,-3.3574,-3.2637,-3.1484,-3.0469,-2.9902,-2.9414,-2.8398,-2.7832,-2.7363,-2.6484,-2.623,-2.6152,-2.5781,-2.5977,-2.6152,-2.5781,-2.6269,-2.6582,-2.5817,-2.5976,-2.6133,-2.5739,-2.5683,0.0,-2.5703,-2.5996,-2.6328,-2.6542,-2.6576,-2.6531,-2.6395,-2.5371,-2.5069,-2.6079,-2.4327,-2.3139,-2.3288,-2.2675,0.0,0.0,0.0,-2.0936,-2.0932,-2.0925,0.0,0.0,0.0,-2.1664,-2.0892,0.0,0.0,0.0,-2.2065,-2.2718,0.0,0.0,0.0,0.0,0.0,0.0,0.0,0.0,0.0,0.0,0.0,0.0,0.0,0.0,0.0,0.0,-4.3166,-4.7806,-5.1645,-5.1491,-5.0664,-4.9798,-4.9606,-4.924,-4.8471,-4.8394,-4.8702,-4.949,-4.9548,-4.9875,-5.0654,0.0,0.0,0.0,0.0,-4.7682,-4.6759,-4.599,-4.5594,-4.5594,-4.5594,-4.5594,-4.5594,-4.5594,-4.5594,-4.5556,-4.4682,-4.3835,-4.3028,-4.2162,-4.1296,-4.0496,-4.0479,-4.0007,-3.9126,-3.7586,-3.5502,-3.3445,-3.3394,0.0,0.0,-3.0937,-3.0371,-2.9726,-2.9629,-2.9062,-2.8262,-2.7383,-2.7148,-2.6953,-2.6074,-2.6484,-2.6914,-2.6035,-2.7109,-2.7851,-2.6232,-2.6555,-2.6853,-2.5939,-2.5794,-2.58,-2.5703,-2.6347,-2.7381,-2.8921,-2.9155,-2.9448,-3.021,-2.8298,-2.6932,-2.7127,0.0,0.0,-2.2539,-2.2944,-2.2505,-2.0766,-2.1327,-2.1714,-2.1724,-2.1675,-2.1956,-2.2627,-2.3452,-2.3127,-2.1571,-2.3187,-2.3266,-2.1963,-2.2719,-2.4264,0.0,0.0,0.0,0.0,0.0,0.0,0.0,0.0,0.0,0.0,0.0,0.0,0.0,0.0,0.0,-4.3689,-4.8402,-5.226,-5.378,-5.326,-5.2395,-5.1519,-5.0837,-5.0385,-5.0212,-5.0212,-5.0269,-5.0442,-5.0462,-5.0519,-5.0693,-5.0712,-4.9971,-4.8394,-4.8202,-4.7375,-4.5883,-4.5691,-4.5594,-4.5594,0.0,0.0,-4.5594,-4.5594,-4.5594,-4.5556,-4.4682,-4.3835,-4.3028,-4.2162,-4.1296,-4.0369,-3.9056,-3.8119,-3.7369,-3.6295,-3.524,-3.4241,-3.3566,-3.2727,-3.1836,-3.1133,-3.0781,-3.0527,-2.9805,-2.9473,0.0,-2.8281,-2.8047,-2.7851,-2.6973,-2.7402,-2.7812,-2.69,-2.7495,-2.8182,-2.7771,-2.7847,-2.7714,-2.6814,-2.6658,-2.6445,-2.5746,-2.5798,-2.6074,-2.6406,-2.6445,-2.6523,-2.6679,-2.6269,-2.6484,-2.7909,-2.6347,-2.543,-2.5976,-2.4862,-2.3437,-2.1738,-2.1775,-2.1852,-2.1852,-2.1852,-2.1597,-2.1069,-2.1226,-2.1149,-2.0819,-2.1151,-2.187,-2.2864,-2.3658,-2.4255,0.0,0.0,0.0,0.0,0.0,0.0,0.0,0.0,0.0,0.0,0.0,-3.543,0.0,0.0,-4.556,-4.7264,-5.1097,-5.4145,-5.4972,-5.3991,-5.3049,-5.2596,-5.1452,-5.0712,-5.0712,-5.0712,-5.0712,-5.0712,-5.0712,-5.0712,-5.0712,-5.0712,-5.0308,-4.9433,-4.8548,-4.7702,-4.6855,-4.6018,-4.5594,-4.5594,-4.5594,-4.5594,-4.5594,-4.5594,-4.5594,-4.5537,-4.4239,-4.347,-4.3008,-4.1681,-4.0893,-4.0323,-3.8642,-3.781,-3.7348,-3.607,-3.5158,-3.4496,-3.4094,-3.3171,-3.2129,-3.1699,-3.1269,-3.0898,-3.0898,-3.0898,-3.0723,-2.9844,-2.9549,-2.9212,-2.7922,-2.8205,-2.8576,-2.7708,-2.8505,-2.9196,-2.8298,-2.8445,-2.8498,-2.7612,-2.7121,-2.6712,-2.6285,-2.5894,-2.5661,-2.5683,-2.5703,-2.5703,-2.5703,-2.5703,-2.6035,-2.6914,-2.6211,-2.5703,-2.5703,-2.4492,-2.3418,-2.2598,-2.2559,-2.2539,-2.25,-2.2539,-2.2344,-2.1914,-2.1875,-2.1855,-2.1855,-2.1855,-2.2284,-2.3118,-2.3959,-2.4552,0.0,0.0,0.0,0.0,0.0,0.0,0.0,0.0,-3.3975,-3.594,-3.813,-4.0272,-4.199,-4.5892,-4.9192,-5.0287,-5.2867,-5.4895,-5.5395,-5.4164,-5.3087,-5.276,-5.151,-5.0712,-5.0712,-5.0712,-5.0712,-5.0712,-5.0712,-5.0712,-5.0712,-5.0539,-5.0366,-5.0212,-4.8682,-4.7798,-4.7625,-4.6259,-4.5594,-4.5594,-4.5594,-4.5594,-4.5594,-4.5594,-4.5594,-4.5518,-4.3835,-4.3008,-4.2739,-4.115,-4.0496,-4.0342,-3.8834,-3.8142,-3.7791,-3.6174,-3.5103,-3.4473,-3.452,-3.3599,-3.2397,-3.2397,-3.1928,-3.1478,-3.2182,-3.228,-3.2026,-3.1498,-3.1036,-3.0368,-2.9017,-2.9119,-2.9346,-2.8505,-2.9473,-3.0212,-2.8791,-2.9043,-2.9288,-2.8396,-2.7584,-2.6989,-2.6814,-2.61,-2.5603,-2.5662,-2.5683,-2.5703,-2.5703,-2.5703,-2.5703,-2.5703,-2.5703,-2.543,-2.4707,-2.3848,-2.3457,-2.3672,-2.3535,-2.3418,-2.3359,-2.3398,-2.3359,-2.3203,-2.3125,-2.3105,-2.3125,-2.3125,-2.3203,-2.3379,-2.4062,-2.4744,-2.5027,-2.5682,-2.8023,-2.9704,-3.1685,-3.4294,0.0,0.0,-4.0419,-4.3654,-4.5163,-4.6413,-4.8115,-5.0087,-5.2029,-5.3674,-5.4848,-5.5338,-5.4722,-5.3818,-5.2645,-5.1174,-5.0808,-5.0712,-5.0712,-5.0712,-5.0712,-5.0712,-5.0712,-5.0712,-5.0712,-4.9971,-4.9183,-4.8413,-4.7509,-4.6663,-4.5902,-4.5691,-4.5594,-4.5594,-4.5594,-4.5594,-4.5594,-4.5594,-4.5594,-4.5518,-4.3835,-4.2662,-4.1873,-4.0893,-4.0496,-4.0419,-3.9515,-3.8681,-3.7796,-3.6124,-3.5011,-3.4313,-3.4328,-3.3786,-3.3089,-3.3089,-3.3011,-3.2953,-3.307,-3.2547,-3.2063,-3.2758,-3.1824,-3.0575,-3.0389,-3.0386,-3.0212,-2.9303,-2.986,-3.0523,-3.0272,-3.0294,-3.0109,-2.9225,-2.8431,-2.7617,-2.6842,-2.6031,-2.5522,-2.5602,-2.5661,-2.5703,-2.5703,-2.5703,-2.5703,-2.5703,-2.5703,-2.5664,-2.5566,-2.4766,-2.459,-2.5371,-2.4687,-2.4258,-2.4258,-2.4258,-2.3926,-2.3203,-2.3125,-2.3125,-2.3184,-2.3184,-2.3555,-2.4258,-2.4355,-2.4453,-3.0072,0.0,0.0,0.0,-3.7091,-3.8149,-4.1889,-4.3124,-4.4019,-4.597,-4.7836,-4.9336,-5.0029,-5.1529,-5.2895,0.0,-5.4453,-5.4703,-5.3857,-5.2991,-5.201,-5.0846,-4.9798,-4.9394,-4.9894,-4.9933,-5.0144,-5.0654,-5.0712,-5.0712,-5.0712,-5.0346,-4.976,-4.8875,-4.8048,-4.7201,-4.6355,-4.5845,-4.5594,-4.5594,-4.5594,-4.5594,-4.5594,-4.5594,-4.5325,-4.4797,-4.4105,-4.3335,-4.2489,-4.1623,-4.1258,-4.1123,-3.9815,-3.9092,-3.8546,-3.6827,-3.5701,-3.5058,-3.5058,-3.4572,-3.3962,-3.3962,-3.3608,-3.3294,-3.3803,-3.3709,-3.3382,-3.3245,-3.2974,-3.252,-3.1546,-3.1267,-3.1144,-3.0755,-3.0573,-3.0487,-3.0456,-3.0441,-3.0325,-2.9978,-2.9225,-2.8526,-2.816,-2.704,-2.6207,-2.6237,-2.5872,-2.5573,-2.5573,-2.5573,-2.5573,-2.5573,-2.5573,-2.5573,-2.5573,-2.5297,-2.5246,-2.5617,-2.5331,-2.5156,-2.5156,-2.5156,-2.5,-2.4668,-2.4629,-2.4629,-2.4648,-2.4648,-2.4824,-2.5156,-2.5156,-2.5156,-3.2788,0.0,0.0,-4.0635,-4.1939,-4.2494,-4.5402,-4.6556,-4.7114,-4.7509,-4.9067,-5.0346,-5.0346,-5.1337,-5.2299,-5.2779,-5.3376,-5.3568,-5.2933,-5.2106,-5.1164,-5.0106,-4.8663,-4.8029,-4.8644,-4.8913,-4.9394,-5.0289,-5.0346,-5.0462,-5.0693,-5.0481,-4.9933,-4.9067,-4.8221,-4.7375,-4.6547,-4.5913,-4.5594,-4.5594,-4.5594,-4.5594,-4.5594,-4.5594,-4.5267,-4.4643,-4.4393,-4.397,-4.3355,-4.2258,-4.1788,-4.1654,-4.02,-3.9496,-3.915,-3.7873,-3.6935,-3.6223,-3.5991,-3.5553,-3.5062,-3.4848,-3.4359,-3.3947,-3.4577,-3.462,-3.4333,-3.394,-3.3863,-3.3696,-3.2705,-3.2243,-3.2025,-3.2025,-3.1385,-3.075,-3.075,-3.0577,-3.0404,-3.0404,-2.9698,-2.903,-2.8819,-2.76,-2.6593,-2.6341,-2.5831,-2.5465,-2.5506,-2.5491,-2.5491,-2.5491,-2.5491,-2.5491,-2.5491,-2.5549,-2.5567,-2.5567,-2.5629,-2.5637,-2.5637,-2.5661,-2.5662,-2.5662,-2.5683,-2.5703,-2.5703,-2.5703,-2.5703,-2.5703,-2.5703,-2.5703,-3.0996,0.0,-3.7593,-4.1962,-4.547,-4.8298,-5.0096,-5.0539,-5.0308,-4.949,-4.9394,-4.9433,-4.9433,-4.9471,-5.0048,-5.1673,-5.1962,-5.1962,-5.1942,-5.1241,-5.0087,-4.8375,-4.7451,-4.6942,0.0,-4.7682,-4.8509,-4.9375,-4.9433,-4.9798,-5.0654,-4.9894,-4.9048,-4.8163,-4.7355,-4.6528,-4.5652,-4.5614,-4.5594,-4.5594,-4.5594,-4.5594,-4.5594,-4.5594,-4.5594,-4.5518,-4.4662,-4.4297,-4.4143,-4.2489,-4.1788,-4.1712,-4.0816,-3.9996,-3.9284,-3.9246,-3.8669,-3.7803,-3.6957,-3.6649,-3.6495,-3.5725,-3.5456,-3.5437,-3.5456,-3.4885,-3.4372,-3.5193,-3.4225,-3.3128,-3.3923,-3.3494,-3.2852,-3.2852,-3.2256,-3.166,-3.166,-3.1,-3.0404,-3.0404,-2.9698,-2.8857,-2.8068,-2.7203,-2.6318,-2.5466,-2.5317,-2.5346,-2.5473,-2.5491,-2.5491,-2.5491,-2.5491,-2.5491,-2.5491,-2.5493,-2.5493,-2.5493,-2.5496,-2.5517,-2.5517,-2.5564,-2.5603,-2.5603,-2.5661,-2.5703,-2.5703,-2.5703,-2.5703,-2.5703,-2.5703,-2.5703,-3.6205,0.0,-4.2772,-4.7067,-4.9394,-5.0769,-5.1356,-5.151,-5.1106,-4.9683,-4.801,-4.6646,-4.6108,-4.4601,-4.4353,-4.7203,-4.8135,-4.9125,-5.0856,-5.0856,-5.0048,-4.8317,-4.7394,0.0,0.0,0.0,0.0,-4.849,-4.9067,-4.9529,-4.9817,-5.0106,-4.9499,-4.7829,-4.7713,-4.6906,-4.5282,-4.5495,-4.5594,-4.5594,-4.5594,-4.5594,-4.5594,-4.5594,-4.5594,-4.5575,-4.5287,-4.5171,-4.5075,-4.3932,-4.3143,-4.2585,-4.17,-4.0835,-4.0092,-4.0092,-3.9919,-3.9381,-3.7392,-3.6692,-3.6577,-3.5769,-3.55,-3.55,-3.55,-3.5288,-3.5007,-3.4718,-3.4622,-3.4564,-3.4282,-3.3975,-3.3763,-3.3763,-3.3103,-3.2352,-3.1814,-3.1468,-3.1096,-3.0519,-3.0154,-2.9698,-2.8838,-2.8011,-2.6967,-2.5519,-2.5308,-2.5317,-2.5363,-2.5371,-2.5371,-2.5371,-2.5371,-2.5371,-2.5371,-2.542,-2.5434,-2.5431,-2.5485,-2.5491,-2.5491,-2.5511,-2.552,-2.552,-2.5556,-2.5564,-2.5564,-2.5564,-2.5564,-2.5564,-2.5564,-2.5597,-3.9865,-4.3472,-4.6606,-5.0606,-5.2222,-5.2837,-5.2837,-5.2346,-5.1077,-4.8135,-4.5706,-4.3577,-4.1839,-4.0368,-4.0466,-4.3623,-4.4842,-4.6435,-4.9356,-4.951,-4.9144,-4.8625,-4.7836,0.0,0.0,0.0,0.0,-4.7625,-4.8471,-4.9067,-4.9375,-5.0093,-4.9603,-4.7648,-4.7665,-4.6819,-4.4938,-4.5253,-4.5485,-4.5594,-4.5594,-4.5594,-4.5594,-4.5594,-4.5594,-4.5594,-4.5594,-4.5594,-4.5537,-4.4662,-4.3835,-4.3008,-4.2143,-4.1277,-4.0496,-4.0496,-4.0496,-4.0189,-3.795,-3.7161,-3.6988,-3.5865,-3.55,-3.55,-3.55,-3.55,-3.5385,-3.4814,-3.5064,-3.5365,-3.4814,-3.4661,-3.4661,-3.4661,-3.4007,-3.3141,-3.2314,-3.191,-3.1448,-3.0577,-3.0404,-3.0115,-2.9261,-2.8434,-2.7313,-2.5558,-2.5577,-2.5654,-2.5346,-2.5308,-2.5308,-2.5308,-2.5308,-2.5308,-2.5308,-2.5348,-2.5371,-2.5363,-2.539,-2.5428,-2.5428,-2.5456,-2.5454,-2.5454,-2.5498,-2.5491,-2.5491,-2.5491,-2.5491,-2.5491,-2.5491,-2.5511,-4.2088,-4.5895,-4.9221,-5.251,-5.3914,-5.4472,-5.4395,-5.2942,-5.0192,-4.5101,-4.257,-4.0253,-3.6908,-3.6916,-3.8348,-4.1104,-4.2321,-4.4132,-4.7673,-4.7548,-4.7682,0.0,0.0,0.0,0.0,0.0,0.0,-4.6924,0.0,-4.8452,-4.9317,-4.9813,-4.9286,-4.7602,-4.72,-4.6221,-4.4585,-4.4908,-4.5232,-4.5559,-4.5559,-4.5559,-4.5577,-4.5577,-4.5577,-4.5577,-4.5586,-4.5586,-4.5519,-4.4701,-4.3893,-4.3085,-4.222,-4.1335,-4.0554,-4.0516,-4.0496,-4.0265,-3.8623,-3.8046,-3.7738,-3.6096,-3.5538,-3.5519,-3.5577,-3.5558,-3.55,-3.55,-3.5538,-3.5577,-3.5519,-3.55,-3.55,-3.55,-3.4872,-3.4032,-3.3141,-3.2333,-3.1506,-3.0635,-3.0385,-3.0077,-2.9242,-2.8434,-2.7313,-2.5615,-2.6077,-2.6288,-2.5404,-2.5308,-2.5308,-2.5308,-2.5308,-2.5308,-2.5308,-2.5308,-2.5308,-2.5308,-2.5308,-2.5308,-2.5308,-2.5367,-2.5383,-2.5383,-2.5465,-2.5481,-2.5481,-2.5481,-2.5481,-2.5481,-2.5481,-2.5484,-4.8277,-5.1212,-5.3222,-5.4703,-5.478,-5.4164,-5.2856,-5.0259,-4.6983,-4.3078,-3.932,-3.609,-3.3922,-3.3767,-3.5229,-3.9072,-4.1545,0.0,-4.8481,-4.9452,0.0,0.0,0.0,-4.8817,-4.8163,-4.7913,0.0,0.0,-4.7551,-4.8028,-4.8899,-4.9397,-4.8777,-4.6843,-4.6911,-4.6078,-4.4165,-4.454,-4.4769,-4.4842,-4.4842,-4.4988,-4.5222,-4.5222,-4.5222,-4.5243,-4.5495,-4.5467,-4.5223,-4.5264,-4.4759,-4.3912,-4.3085,-4.2239,-4.1393,-4.0746,-4.0496,-4.0342,-3.9323,-3.8546,-3.7815,-3.6731,-3.5981,-3.5654,-3.6519,-3.6173,-3.55,-3.55,-3.6115,-3.6577,-3.5712,-3.55,-3.55,-3.55,-3.5327,-3.493,-3.4064,-3.3199,-3.2352,-3.1525,-3.0314,-2.9357,-2.9146,-2.8434,-2.7525,-2.6428,-2.6467,-2.6288,-2.5404,-2.5308,-2.5308,-2.5308,-2.5308,-2.5308,-2.5308,-2.5308,-2.5308,-2.5308,-2.5308,-2.5308,-2.5308,-2.5322,-2.534,-2.534,-2.5348,-2.5346,-2.5346,-2.5346,-2.5346,-2.5346,-2.5346,-2.5372,-5.1414,-5.3722,-5.5145,-5.5588,-5.4799,-5.3183,-5.0317,-4.7319,-4.3615,-3.8227,-3.4849,0.0,-3.0129,-3.0715,0.0,0.0,0.0,0.0,-4.7692,-4.9029,-4.9663,0.0,-4.9971,0.0,-4.9298,-4.8749,-4.8469,0.0,-4.8295,-4.8217,-4.8517,-4.8974,-4.839,-4.656,-4.652,-4.5702,-4.4035,-4.4219,-4.4433,-4.4593,-4.4593,-4.4714,-4.4884,-4.4884,-4.4884,-4.4896,0.0,-4.5044,-4.4896,-4.5066,-4.4654,-4.3823,-4.3365,-4.2438,-4.1293,-4.0816,-4.0406,-3.9977,-3.9146,-3.8316,-3.753,-3.7064,-3.6288,-3.5615,-3.6269,-3.6019,-3.5808,-3.7276,-3.7096,-3.6423,-3.6288,-3.5865,-3.55,-3.55,-3.55,-3.525,-3.4398,-3.3821,-3.3218,-3.2391,-3.0833,-2.9679,-2.9679,-2.9294,-2.8448,-2.6832,-2.6928,-2.6717,-2.5462,-2.5308,-2.5308,-2.5308,-2.5308,-2.5308,-2.5308,-2.5308,-2.5308,-2.5308,-2.5308,-2.5308,-2.5308,-2.5308,-2.5308,-2.5308,-2.5308,-2.5308,-2.5308,-2.5308,-2.5308,-2.5308,-2.5308,-2.5327,-5.2915,-5.4761,-5.5953,-5.5626,-5.428,-5.1885,-4.7482,-4.4208,-4.006,-3.273,0.0,-2.8928,-2.6577,-2.826,-3.1202,-3.4925,0.0,-4.1946,-4.6433,-4.7759,-4.8875,-5.0519,-5.0663,-5.0614,-5.0614,-4.9561,-4.9175,-4.9892,-4.9252,-4.8655,-4.8319,-4.8541,-4.7919,-4.6318,-4.582,-4.5048,-4.3943,-4.3924,-4.4106,-4.4447,-4.4447,-4.4474,-4.4514,-4.4514,-4.4514,-4.4527,-4.4567,-4.4567,-4.4527,-4.458,-4.4146,-4.3441,-4.3234,-4.2253,-4.0959,-4.0714,-4.0198,-3.9486,-3.8727,-3.7947,-3.727,-3.7321,-3.6644,-3.5865,-3.6096,-3.6154,-3.6776,-3.9688,-3.8257,-3.6,-3.6788,-3.6231,-3.55,-3.55,-3.546,-3.5235,-3.4473,-3.4223,-3.3903,-3.3058,-3.1693,-3.0637,-3.0547,-3.0484,-2.9646,-2.7209,-2.7388,-2.7215,-2.5592,-2.534,-2.5308,-2.5308,-2.5308,-2.5308,-2.5308,-2.5308,-2.5308,-2.5308,-2.5308,-2.5308,-2.5308,-2.5308,-2.5308,-2.5308,-2.5308,-2.5308,-2.5308,-2.5308,-2.5308,-2.5308,-2.5308,-2.5308,-5.4966,-5.653,-5.7338,-5.5222,-5.3414,-5.0827,-4.5865,-4.1055,0.0,0.0,-2.8966,-2.7374,-2.611,-2.808,0.0,-3.546,0.0,0.0,0.0,0.0,-4.9548,0.0,0.0,0.0,0.0,0.0,0.0,0.0,0.0,-4.8851,-4.877,-4.79,-4.6672,-4.5071,-4.4302,-4.3806,-4.358,-4.358,-4.3631,-4.3695,-4.3695,-4.3836,-4.4102,-4.4102,-4.4102,-4.4117,-4.446,0.0,-4.4117,-4.446,-4.4517,-4.424,-4.2863,-4.2134,-4.17,-4.0323,-3.9712,-3.958,-3.9429,-3.8814,-3.8082,-3.8031,-3.7821,-3.7815,-3.92,-3.9631,-3.9746,-4.0342,-3.9084,-3.7296,-3.6096,-3.5654,-3.55,-3.55,-3.532,-3.5136,-3.4991,-3.438,-3.3681,-3.3038,-3.2495,-3.192,-3.1267,-3.0961,-3.0177,-2.8369,-2.7638,-2.6964,-2.5996,-2.5529,-2.5308,-2.5308,-2.5308,-2.5308,-2.5308,-2.5308,-2.5308,-2.5308,-2.5308,-2.5308,-2.5308,-2.5308,-2.5308,-2.5308,-2.5308,-2.5308,-2.5308,-2.5308,-2.5308,-2.5308,-2.5308,-2.5308,-5.3234,-5.4983,-5.6646,-5.5434,-5.2399,-4.8296,-4.2836,0.0,0.0,0.0,-2.6658,-2.5857,-2.5362,0.0,0.0,0.0,0.0,0.0,0.0,0.0,0.0,0.0,0.0,0.0,0.0,0.0,0.0,0.0,0.0,-4.7957,-4.7957,-4.6635,-4.5498,-4.4709,-4.392,-4.3515,-4.3515,-4.3515,-4.3515,-4.3515,-4.3515,-4.358,-4.3742,-4.3742,-4.3742,-4.3758,-4.3927,0.0,-4.374,-4.3962,-4.3778,-4.3312,-4.2515,-4.1696,-4.0854,-4.004,-3.9481,-3.9127,-3.9127,-3.8588,-3.7949,-3.8338,-3.8245,-3.8193,-3.9253,-3.9564,-3.9611,-3.981,-3.8866,-3.7565,-3.6595,-3.6032,-3.5612,-3.5183,-3.4981,-3.4898,-3.4898,-3.4206,-3.3645,-3.3796,-3.2997,-3.2179,-3.1826,-3.1286,-3.0328,-2.8651,-2.8075,-2.752,-2.6731,-2.6065,-2.5501,-2.5082,-2.505,-2.505,-2.505,-2.505,-2.505,-2.505,-2.505,-2.505,-2.505,-2.505,-2.505,-2.505,-2.5107,-2.5146,-2.5146,-2.5253,-2.5308,-2.5303,-2.5179,-2.5203,-5.1732,-5.3839,-5.6069,-5.5357,-5.1404,-4.6141,-4.0198,-3.529,0.0,0.0,-2.4824,-2.4757,-2.4764,0.0,0.0,0.0,0.0,0.0,0.0,0.0,0.0,0.0,0.0,0.0,0.0,0.0,0.0,0.0,0.0,0.0,-4.6581,-4.5388,-4.4618,-4.4452,-4.3828,-4.3515,-4.3515,-4.3515,-4.3515,-4.3515,-4.3515,-4.3515,-4.3515,-4.3515,-4.3515,-4.3515,-4.3515,0.0,0.0,-4.3296,-4.2873,-4.2286,-4.2121,-4.1167,-3.99,-3.99,-3.9386,-3.8707,-3.8707,-3.8285,-3.786,-3.8487,-3.8303,-3.7918,-3.8526,-3.8707,-3.8777,-3.9195,-3.8483,-3.7499,-3.6998,-3.6387,-3.5681,-3.48,-3.4582,-3.4582,-3.4582,-3.4045,-3.3811,-3.4542,-3.3549,-3.252,-3.2381,-3.1758,-3.0704,-2.9036,-2.8651,-2.823,-2.7425,-2.6628,-2.5895,-2.5255,-2.4953,-2.4804,-2.4804,-2.4804,-2.4804,-2.4804,-2.4804,-2.4804,-2.4804,-2.4804,-2.4804,-2.4804,-2.4904,-2.4955,-2.4955,-2.5113,-2.5182,-2.5201,-2.503,-2.5036,-5.3559,-5.6049,-5.7319,-5.4222,-5.054,-4.5988,-3.9489,0.0,0.0,-2.5747,-2.4746,-2.4623,-2.4631,-2.4692,-2.5874,0.0,0.0,-3.3563,0.0,0.0,0.0,0.0,0.0,0.0,0.0,0.0,0.0,0.0,0.0,0.0,-4.4911,-4.4764,-4.4378,-4.3626,-4.3551,-4.3515,-4.3515,-4.3515,-4.3515,-4.3515,-4.3515,-4.3515,-4.3515,-4.3515,-4.3515,-4.3515,-4.3515,0.0,0.0,-4.2708,-4.2378,-4.2231,-4.1515,-4.0671,-3.99,-3.99,-3.9386,-3.8707,-3.8707,-3.8652,-3.8597,-3.8689,-3.8007,-3.7358,-3.8404,-3.8707,-3.8777,-3.9195,-3.8483,-3.7368,-3.6358,-3.6002,-3.5609,-3.4509,-3.4253,-3.4253,-3.4253,-3.4179,-3.424,-3.4624,-3.4314,-3.3787,-3.3053,-3.2661,-3.19,-3.0281,-2.9416,-2.8644,-2.7845,-2.7043,-2.651,-2.6436,-2.5456,-2.4804,-2.4804,-2.4804,-2.4804,-2.4804,-2.4804,-2.4804,-2.4804,-2.4804,-2.4804,-2.4804,-2.4818,-2.4825,-2.4825,-2.4847,-2.4854,-2.4854,-2.4832,-2.4832,-4.8231,-5.2115,-5.5517,-5.3422,-4.8648,-4.3093,-3.7889,0.0,-2.7746,-2.5291,-2.4309,-2.4028,-2.4513,-2.4547,-2.5257,-2.7587,-2.7849,0.0,0.0,0.0,0.0,0.0,0.0,0.0,0.0,0.0,0.0,0.0,0.0,0.0,-4.3993,-4.3975,-4.3828,-4.3515,-4.3515,-4.3515,-4.3515,-4.3515,-4.3515,-4.3515,-4.3515,-4.3515,-4.3515,-4.3515,-4.3515,-4.3515,-4.3515,0.0,0.0,-4.3149,-4.2451,-4.1535,-4.1224,-4.0306,-3.9184,-3.9184,-3.8964,-3.8707,-3.8707,-3.8707,-3.8707,-3.8707,-3.8414,-3.8138,-3.8579,-3.8707,-3.8735,-3.8888,-3.8603,-3.8048,-3.7137,-3.652,-3.6022,-3.5576,-3.5056,-3.4687,-3.4687,-3.4299,-3.3999,-3.4136,-3.4049,-3.3702,-3.2896,-3.2672,-3.2051,-3.0448,-2.9934,-2.9427,-2.862,-2.7824,-2.7328,-2.7328,-2.6465,-2.5699,-2.5207,-2.5151,-2.4947,-2.4472,-2.4435,-2.4435,-2.4435,-2.4435,-2.4435,-2.4435,-2.4569,-2.4615,-2.4615,-2.4746,-2.4804,-2.4797,-2.4678,-2.4685,-4.4283,-4.8366,-5.2007,-5.1086,-4.6184,-4.0396,0.0,0.0,-2.6256,-2.4332,-2.3819,-2.3828,-2.4153,-2.4362,-2.4936,-2.6237,-2.62,-2.7465,0.0,0.0,0.0,0.0,0.0,0.0,0.0,0.0,0.0,0.0,0.0,0.0,-4.3533,-4.3515,-4.3515,-4.3515,-4.3515,-4.3515,-4.3515,-4.3515,-4.3515,-4.3515,-4.3515,-4.3515,-4.3515,-4.3515,-4.3515,-4.3515,-4.3515,0.0,0.0,-4.3239,-4.2488,-4.1425,-4.1187,-4.0251,-3.9056,-3.9056,-3.8909,-3.8707,-3.8707,-3.8707,-3.8707,-3.8707,-3.8707,-3.8707,-3.8707,-3.8707,-3.8707,-3.8707,-3.8524,-3.8212,-3.7658,-3.6905,-3.6303,-3.6303,-3.5628,-3.5004,-3.5004,-3.4362,-3.3807,-3.3807,-3.3807,-3.3623,-3.3041,-3.2748,-3.2124,-3.076,-3.0356,-2.9916,-2.9097,-2.8521,-2.8154,-2.8154,-2.7658,-2.6796,-2.5503,-2.5393,-2.5062,-2.4245,-2.419,-2.419,-2.419,-2.419,-2.419,-2.419,-2.4348,-2.4419,-2.4419,-2.4543,-2.4615,-2.4615,-2.4478,-2.4486,-4.3669,-4.6175,-4.6829,-4.6621,-4.3207,-3.859,0.0,-2.9419,-2.5912,-2.2781,-2.3398,-2.4256,-2.346,-2.3948,-2.4742,-2.5486,-2.633,-2.796,0.0,0.0,0.0,0.0,0.0,0.0,0.0,0.0,0.0,0.0,0.0,0.0,-4.3515,-4.3515,-4.3515,-4.3515,-4.3515,-4.3515,-4.3515,-4.3515,-4.3515,-4.3515,-4.3515,-4.3515,-4.3515,-4.3515,-4.3515,0.0,0.0,0.0,0.0,-4.2635,-4.2304,-4.2213,-4.1407,-4.0598,-3.9882,-3.9882,-3.9386,-3.8707,-3.8707,-3.8707,-3.8707,-3.8707,-3.8707,-3.8707,-3.8707,-3.8707,-3.8707,-3.8707,-3.812,-3.7511,-3.7492,-3.6905,-3.6303,-3.6303,-3.5628,-3.5004,-3.5004,-3.4362,-3.3807,-3.3807,-3.3807,-3.3807,-3.3788,-3.3115,-3.2307,-3.1513,-3.0705,-2.9916,-2.9097,-2.8987,-2.8987,-2.8987,-2.8987,-2.7996,-2.5595,-2.5393,-2.5062,-2.4245,-2.419,-2.419,-2.419,-2.419,-2.419,-2.419,-2.4199,-2.4199,-2.4199,-2.4218,-2.4199,-2.4199,-2.4199,-2.4199,-3.6897,-3.95,-4.1264,-4.0371,-3.7332,-3.3656,-3.0186,-2.7157,-2.4515,-2.2455,-2.2877,-2.353,-2.3285,-2.3846,-2.4626,-2.5392,-2.6224,-2.7461,0.0,0.0,0.0,0.0,0.0,0.0,0.0,0.0,0.0,0.0,0.0,0.0,-4.3515,-4.3515,-4.3515,-4.3515,-4.3515,-4.3515,-4.3515,-4.3515,-4.3515,-4.3515,-4.3515,-4.3515,-4.3497,-4.3124,-4.3142,0.0,0.0,0.0,0.0,-4.3222,-4.247,-4.1444,-4.1187,-4.0286,-3.9074,-3.9074,-3.8927,-3.8707,-3.8707,-3.8707,-3.8707,-3.8707,-3.8707,-3.8707,-3.8707,-3.8707,-3.8707,-3.8707,-3.8524,-3.8322,-3.8322,-3.8138,-3.7808,-3.7254,-3.6486,-3.5734,-3.5133,-3.4362,-3.3807,-3.3807,-3.3807,-3.3807,-3.3807,-3.3115,-3.2326,-3.1525,-3.0723,-2.9916,-2.9097,-2.9005,-2.9005,-2.9005,-2.9005,-2.8473,-2.7155,-2.6539,-2.5878,-2.5062,-2.4511,-2.419,-2.419,-2.419,-2.419,-2.419,-2.419,-2.419,-2.419,-2.419,-2.419,-2.419,-2.419,-2.419,0.0,-3.453,-3.5931,-3.5039,-3.277,0.0,0.0,-2.4728,-2.3019,-2.1737,-2.2358,-2.3145,-2.3137,-2.3925,-2.4797,-2.5369,-2.6323,0.0,0.0,0.0,0.0,0.0,0.0,0.0,0.0,0.0,0.0,0.0,0.0,0.0,-4.3515,-4.3515,-4.341,-4.3214,-4.3196,-4.3196,-4.3196,-4.3196,-4.3087,-4.2847,-4.3087,-4.3087,-4.2847,-4.2235,-4.2129,0.0,0.0,0.0,0.0,-4.2512,-4.2011,-4.1058,-4.0781,-4.0029,-3.9129,-3.8817,-3.8707,-3.8707,-3.8707,-3.8707,-3.8707,-3.8707,-3.8707,-3.8707,-3.8707,-3.8707,-3.8707,-3.8707,-3.8707,-3.8707,-3.8707,-3.8707,-3.8505,-3.7694,-3.6905,-3.6064,-3.5188,-3.4362,-3.3748,-3.3592,-3.3564,-3.3427,-3.2958,-3.224,-3.1429,-3.064,-2.9847,-2.9145,-2.8643,-2.8589,-2.8589,-2.8589,-2.8589,-2.8371,-2.7894,-2.6966,-2.6005,-2.5049,-2.4364,-2.4006,-2.4006,-2.4123,-2.419,-2.419,-2.419,-2.4141,-2.4006,-2.4006,-2.4084,-2.419,-2.419,-2.419,0.0,-3.0886,0.0,0.0,0.0,0.0,-2.3811,-2.2514,0.0,-2.0794,-2.1988,-2.3112,-2.2958,-2.4102,-2.5134,-2.5271,0.0,0.0,0.0,0.0,0.0,0.0,0.0,0.0,0.0,0.0,0.0,0.0,0.0,0.0,-4.3374,-4.3374,-4.3142,-4.2655,-4.2596,-4.2596,-4.2635,-4.2635,-4.2342,-4.181,-4.2362,-4.2342,-4.1775,-4.0996,-4.0645,0.0,0.0,0.0,0.0,-4.0844,-4.1013,-4.083,-4.0095,-3.9765,-3.9619,-3.887,-3.8559,-3.8523,-3.8559,-3.8559,-3.8523,-3.8559,-3.8596,-3.8611,-3.8627,-3.8658,-3.8707,-3.8707,-3.8707,-3.8707,-3.8707,-3.8658,-3.8441,-3.7631,-3.6795,-3.5959,-3.5085,-3.4261,-3.3592,-3.3229,-3.31,-3.2724,-3.16,-3.0674,-2.9895,-2.9195,-2.8422,-2.7897,-2.7897,-2.7897,-2.7897,-2.7897,-2.7897,-2.7897,-2.7869,-2.68,-2.5644,-2.4461,-2.4021,-2.3786,-2.3671,-2.4002,-2.4186,-2.4141,-2.4141,-2.3986,-2.3671,-2.3671,-2.3816,-2.4141,-2.4161,-2.4161,-2.5122,0.0,-2.6325,-2.6199,-2.5755,-2.4972,0.0,-2.3415,-2.3078,-2.1025,0.0,0.0,-2.2316,-2.3648,0.0,0.0,0.0,0.0,0.0,0.0,0.0,0.0,0.0,0.0,0.0,0.0,0.0,0.0,0.0,-4.2675,-4.2226,-4.2206,-4.2144,-4.2018,-4.1556,-4.1534,-4.2018,-4.2,-4.1937,-4.181,-4.1937,-4.1937,-4.1754,-4.0569,-4.0245,0.0,0.0,0.0,-3.9822,-4.0508,-4.01,-3.9027,-3.8848,-3.8382,-3.781,-3.7631,-3.7167,-3.6719,-3.7345,-3.7149,-3.6755,-3.7363,-3.7542,-3.7614,-3.7981,-3.8382,-3.8707,-3.8707,-3.8707,-3.8707,-3.8707,-3.8399,-3.7883,-3.7069,-3.6008,-3.4933,-3.4114,-3.3328,-3.2777,-3.2681,-3.2216,-3.1736,-3.1448,-3.0262,-2.9287,-2.9124,-2.8422,-2.7897,-2.7897,-2.7897,-2.7897,-2.7897,-2.7897,-2.7783,-2.7472,-2.6901,-2.6193,-2.5265,-2.5126,-2.4555,-2.3376,-2.3928,-2.4016,-2.3444,-2.3444,-2.3392,-2.3323,-2.3323,-2.3357,-2.3437,-2.3692,-2.3816,-2.342,-2.414,-2.4682,-2.4179,-2.3981,-2.3658,-2.2711,0.0,0.0,0.0,0.0,0.0,0.0,0.0,0.0,0.0,0.0,0.0,0.0,0.0,0.0,0.0,0.0,0.0,0.0,0.0,0.0,0.0,0.0,-4.2142,-4.1832,-4.181,-4.1664,-4.1402,-4.1064,-4.1064,-4.138,-4.138,-4.1246,-4.103,-4.1268,-4.1263,-4.0972,-3.9577,-3.9123,0.0,0.0,0.0,-3.8186,-3.883,-3.8593,-3.7866,-3.7866,-3.7581,-3.7156,-3.6784,-3.6607,-3.6554,-3.6625,-3.6607,-3.6607,-3.7068,-3.7209,-3.7248,-3.7506,-3.7773,-3.805,-3.8267,-3.8185,-3.8016,-3.8016,-3.7521,-3.6916,-3.6451,-3.5278,-3.4181,-3.3704,-3.3015,-3.2434,-3.2213,-3.1863,-3.1426,-3.089,-3.0108,-2.9431,-2.91,-2.8685,-2.8271,-2.7907,-2.7855,-2.7716,-2.74,-2.7348,-2.7272,-2.7035,-2.6832,-2.6365,-2.56,-2.5363,-2.49,-2.4068,-2.4201,-2.3936,-2.3206,-2.3057,-2.3045,-2.32,-2.3045,-2.3057,-2.32,-2.338,-2.3459,-2.3038,-2.3979,-2.4587,-2.3822,-2.3539,-2.324,-2.2426,0.0,0.0,0.0,0.0,0.0,0.0,0.0,0.0,0.0,0.0,0.0,0.0,0.0,0.0,0.0,0.0,0.0,0.0,0.0,0.0,0.0,0.0,-4.1639,-4.1534,-4.1552,-4.1238,-4.0631,-4.0607,-4.0555,-4.0435,-4.0676,-4.0501,-3.9943,-4.0381,-4.0306,-3.9723,-3.8345,-3.7736,-3.7675,0.0,0.0,-3.6329,-3.6906,-3.7066,-3.6962,-3.6962,-3.6892,-3.6716,-3.6152,-3.6152,-3.6347,-3.5678,-3.603,-3.6786,-3.6786,-3.6786,-3.6823,-3.7022,-3.6932,-3.69,-3.7488,-3.7451,-3.7209,-3.7209,-3.6534,-3.5912,-3.5944,-3.4692,-3.3495,-3.3565,-3.2897,-3.2179,-3.1788,-3.1611,-3.1225,-3.0285,-3.0023,-2.9719,-2.9094,-2.8993,-2.8722,-2.7908,-2.7807,-2.7519,-2.6776,-2.6691,-2.6691,-2.6691,-2.6691,-2.642,-2.5812,-2.5447,-2.5212,-2.5109,-2.4505,-2.3869,-2.3239,-2.2841,-2.2776,-2.3063,-2.2776,-2.2789,-2.3063,-2.3093,-2.3129,-2.2286,-2.3438,-2.4713,-2.506,-2.4617,-2.4174,-2.4636,0.0,0.0,0.0,0.0,0.0,0.0,0.0,0.0,0.0,0.0,0.0,0.0,0.0,0.0,0.0,0.0,0.0,0.0,0.0,0.0,0.0,0.0,-4.0827,-4.0385,-4.036,-4.0039,-3.9312,-3.9287,-3.8982,-3.837,-3.96,-3.9874,-3.9157,-3.9263,-3.8916,-3.821,-3.7371,-3.6981,-3.6965,0.0,-3.635,-3.579,-3.6547,-3.645,-3.5854,-3.5854,-3.5462,-3.4972,-3.5479,-3.4563,-3.3031,-3.2912,-3.3782,-3.4904,-3.4904,-3.4904,-3.5108,-3.6205,-3.5759,-3.5147,-3.6307,-3.6921,-3.7209,-3.7209,-3.6322,-3.5551,-3.6171,-3.4361,-3.267,-3.3315,-3.2361,-3.137,-3.131,-3.0798,-3.0321,-3.0125,-2.9583,-2.9128,-2.9027,-2.8993,-2.8722,-2.7908,-2.7807,-2.7519,-2.6776,-2.6691,-2.6691,-2.6691,-2.6691,-2.664,-2.6539,-2.647,-2.6163,-2.5536,-2.4239,-2.3482,-2.3363,-2.2711,-2.2388,-2.2443,-2.2388,-2.2388,-2.2443,-2.2678,-2.2784,-2.2122,-2.3297,-2.4796,-2.5882,-2.551,-2.5045,-2.5561,-2.5404,0.0,0.0,0.0,0.0,0.0,0.0,0.0,0.0,0.0,0.0,0.0,0.0,0.0,0.0,0.0,0.0,0.0,0.0,0.0,0.0,0.0,0.0,-3.8928,-3.8903,-3.8751,-3.8413,-3.8413,-3.8244,-3.7905,-3.8565,-3.8734,-3.8413,-3.8413,-3.8227,-3.7872,-3.7151,-3.6795,-3.6778,0.0,-3.5943,-3.5616,-3.6011,-3.5943,-3.56,-3.56,-3.5165,-3.4489,-3.4438,-3.3778,-3.2882,-3.2882,-3.3592,-3.4421,-3.4032,-3.4438,-3.5125,-3.5322,-3.5248,-3.5209,-3.5795,-3.6161,-3.6336,-3.6336,-3.5597,-3.4945,-3.5283,-3.3802,-3.2395,-3.273,-3.1952,-3.119,-3.119,-3.092,-3.0683,-3.0683,-3.0412,-3.0194,-3.0194,-3.0194,-2.977,-2.8602,-2.845,-2.7994,-2.6843,-2.6691,-2.6691,-2.6691,-2.6691,-2.6691,-2.6691,-2.6691,-2.637,-2.5626,-2.4949,-2.4205,-2.341,-2.3071,-2.2699,-2.2296,-2.2296,-2.2296,-2.231,-2.2426,-2.2473,-2.2044,-2.3095,-2.4513,-2.5999,0.0,-2.5558,-2.6897,-2.6868,0.0,0.0,0.0,0.0,0.0,0.0,0.0,0.0,0.0,0.0,0.0,0.0,0.0,0.0,0.0,0.0,0.0,0.0,0.0,0.0,0.0,0.0,-3.7905,-3.7905,-3.7821,-3.7652,-3.7652,-3.755,-3.7358,-3.7358,-3.7466,-3.7652,-3.7652,-3.755,-3.7347,-3.6586,-3.6271,-3.622,-3.5436,-3.5076,-3.5092,-3.5261,-3.5228,-3.5092,-3.5261,-3.5013,-3.437,-3.3288,-3.3102,-3.3389,-3.3203,-3.3626,-3.4167,-3.3795,-3.4421,-3.5261,-3.4878,-3.503,-3.538,-3.5549,-3.56,-3.56,-3.56,-3.5064,-3.4539,-3.4726,-3.3512,-3.2344,-3.253,-3.1833,-3.119,-3.119,-3.119,-3.1151,-3.1015,-3.1112,-3.1151,-3.1015,-3.1112,-3.0666,-2.9196,-2.8993,-2.8382,-2.6707,-2.6539,-2.6487,-2.635,-2.635,-2.635,-2.635,-2.647,-2.6235,-2.5531,-2.5279,-2.4622,-2.3496,-2.3158,-2.2704,-2.2135,-2.2303,-2.2387,-2.2387,-2.2387,-2.2387,-2.1819,-2.2545,-2.3474,-2.5016,-2.485,-2.5454,-2.9819,-2.93,0.0,-3.0791,0.0,0.0,0.0,0.0,0.0,0.0,0.0,0.0,0.0,0.0,0.0,0.0,0.0,0.0,0.0,0.0,0.0,0.0,0.0,0.0,-3.7905,-3.7905,-3.7584,-3.6897,-3.688,-3.6518,-3.5769,-3.5769,-3.6146,-3.688,-3.688,-3.6485,-3.5735,-3.4996,-3.468,-3.4607,-3.388,-3.3558,-3.3609,-3.4303,-3.4184,-3.3643,-3.4303,-3.4539,-3.4235,-3.2138,-3.2222,-3.3305,-3.2632,-3.2848,-3.3592,-3.4218,-3.4489,-3.4692,-3.5329,-3.5081,-3.4726,-3.5397,-3.56,-3.56,-3.56,-3.5064,-3.4675,-3.5346,-3.3863,-3.2496,-3.3169,-3.2205,-3.119,-3.119,-3.119,-3.1015,-3.0456,-3.0838,-3.1015,-3.0456,-3.0838,-3.0666,-2.9196,-2.8993,-2.8238,-2.6252,-2.6049,-2.5852,-2.5354,-2.5316,-2.5316,-2.5316,-2.5781,-2.5801,-2.5255,-2.4337,-2.3786,-2.3671,-2.2385,-2.1708,-2.1658,-2.2349,-2.2663,-2.2663,-2.2663,-2.2663,-2.1857,-2.3307,-2.4764,-2.5336,-2.5907,0.0,0.0,-3.0474,-3.0543,-3.233,-3.2645,0.0,0.0,0.0,0.0,0.0,0.0,0.0,0.0,0.0,0.0,0.0,0.0,0.0,0.0,0.0,0.0,0.0,0.0,0.0,-3.6462,-3.6462,-3.6146,-3.5385,-3.5808,-3.547,-3.423,-3.4692,-3.4844,-3.4692,-3.5131,-3.5199,-3.4895,-3.415,-3.3829,-3.3795,-3.3525,-3.366,-3.4066,-3.3897,-3.4201,-3.4687,-3.4066,-3.41,-3.4218,-3.2019,-3.1833,-3.2682,-3.2395,-3.278,-3.3457,-3.3728,-3.4438,-3.5042,-3.4438,-3.467,-3.5165,-3.4979,-3.4912,-3.503,-3.5481,-3.538,-3.5148,-3.4962,-3.3931,-3.2933,-3.2747,-3.1918,-3.1075,-3.072,-3.0638,-3.0456,-2.9848,-2.993,-3.0,-2.9761,-2.9935,-2.9557,-2.8138,-2.7941,-2.7326,-2.5686,-2.5486,-2.5411,-2.5221,-2.5202,-2.5067,-2.4732,-2.5221,-2.5411,-2.5221,-2.4823,-2.4412,-2.3958,-2.3442,-2.2923,-2.2471,-2.2746,-2.2892,-2.2892,-2.2892,-2.2892,-2.1451,-2.2959,-2.4432,0.0,0.0,0.0,-3.117,-3.1275,-3.1493,-3.3857,-3.4123,0.0,0.0,0.0,0.0,0.0,0.0,0.0,0.0,0.0,0.0,0.0,0.0,0.0,0.0,0.0,0.0,0.0,0.0,0.0,0.0,-3.4906,-3.4675,-3.4167,-3.4641,-3.4416,-3.3423,-3.3708,-3.3604,-3.3134,-3.3217,-3.3555,-3.4134,-3.3389,-3.2951,-3.2748,-3.253,-3.2612,-3.2878,-3.2801,-3.3477,-3.4438,-3.3186,-3.3152,-3.3575,-3.1833,-3.1667,-3.2293,-3.2293,-3.2639,-3.3091,-3.3117,-3.3807,-3.4416,-3.3206,-3.3539,-3.4245,-3.3728,-3.3578,-3.3712,-3.4212,-3.4628,-3.4771,-3.4269,-3.3448,-3.2631,-3.2131,-3.1299,-3.0497,-3.0102,-3.0016,-2.9827,-2.9225,-2.9271,-2.9339,-2.9134,-2.9271,-2.8974,-2.7774,-2.7422,-2.6709,-2.5112,-2.4812,-2.4697,-2.4697,-2.4697,-2.4552,-2.4178,-2.4491,-2.4697,-2.4697,-2.463,-2.4372,-2.386,-2.3638,-2.3288,-2.2794,-2.3017,-2.3128,-2.3128,-2.3128,-2.3128,-2.0482,-2.1125,0.0,0.0,0.0,0.0,-3.3012,-3.1739,-3.1115,-3.5647,0.0,0.0,0.0,0.0,0.0,0.0,0.0,0.0,0.0,0.0,0.0,0.0,0.0,0.0,0.0,0.0,0.0,0.0,0.0,0.0,0.0,-3.3406,-3.3406,-3.3368,-3.3385,-3.3368,-3.3368,-3.2779,-3.2479,-3.244,-3.1121,-3.1487,-3.3351,-3.2611,-3.1951,-3.1341,-3.0606,-2.9973,-2.9515,-3.0833,-3.1745,-3.2205,-3.1495,-3.1647,-3.2188,-3.1461,-3.1647,-3.2273,-3.2273,-3.2331,-3.2383,-3.2473,-3.2557,-3.2472,-3.1791,-3.1582,-3.1582,-3.1582,-3.1582,-3.1582,-3.1582,-3.2479,-3.3368,-3.3385,-3.236,-3.1391,-3.1391,-3.0336,-2.9406,-2.9384,-2.9384,-2.9203,-2.8606,-2.8989,-2.918,-2.8583,-2.9012,-2.9128,-2.8387,-2.7705,-2.6529,-2.4606,-2.3921,-2.3595,-2.3595,-2.3595,-2.3595,-2.3595,-2.3595,-2.3595,-2.3595,-2.3422,-2.3295,-2.3295,-2.2651,-2.2312,-2.2312,-2.3053,-2.3402,-2.3402,-2.3402,-2.3402,-2.1306,-2.2866,0.0,0.0,0.0,0.0,0.0,-3.1856,0.0,0.0,0.0,0.0,0.0,0.0,0.0,0.0,0.0,0.0,0.0,0.0,0.0,0.0,0.0,0.0,0.0,0.0,0.0,0.0,0.0,0.0,0.0,-3.3406,-3.2967,-3.2014,-3.2491,-3.2045,-3.0609,-3.0924,-3.0817,-3.0309,-2.992,-3.0306,-3.1355,-3.0592,-3.0157,-2.9964,-2.977,-2.9858,-3.0243,-3.1158,-3.1342,-3.1006,-3.0794,-3.0843,-3.0941,-3.0196,-3.0065,-3.0348,-3.0859,-3.1056,-3.1156,-3.1681,-3.187,-3.1775,-3.1029,-3.1197,-3.1486,-3.0972,-3.0844,-3.0844,-3.0844,-3.0703,-3.0853,-3.1893,-3.1447,-3.0775,-3.0775,-3.0045,-2.9271,-2.885,-2.8756,-2.8583,-2.7968,-2.8018,-2.8076,-2.7894,-2.8018,-2.788,-2.7208,-2.6123,-2.5163,-2.4608,-2.3988,-2.3595,-2.3595,-2.3595,-2.3595,-2.3595,-2.3595,-2.3595,-2.3595,-2.3528,-2.3507,-2.3507,-2.3326,-2.322,-2.322,-2.3423,-2.3549,-2.3549,-2.3549,-2.3549,-2.1174,0.0,0.0,0.0,0.0,0.0,0.0,0.0,0.0,0.0,0.0,0.0,0.0,0.0,0.0,0.0,0.0,0.0,0.0,0.0,0.0,0.0,0.0,0.0,0.0,0.0,0.0,0.0,0.0,0.0,0.0,-3.1334,-3.1004,-3.0234,-3.0642,-3.0271,-2.9018,-2.921,-2.8953,-2.8265,-2.8262,-2.8373,-2.8583,-2.9139,-2.9271,-2.9019,-2.8787,-2.9069,-2.9737,-3.0188,-3.0251,-3.006,-3.006,-3.006,-3.0012,-2.955,-2.9406,-2.9454,-2.9909,-3.009,-3.0133,-3.0315,-3.0383,-3.0273,-2.9553,-2.9656,-2.9906,-2.9484,-2.9334,-2.9334,-2.9334,-2.9014,-2.9014,-3.0392,-3.0194,-2.9706,-2.9706,-2.9179,-2.8591,-2.8198,-2.814,-2.8018,-2.766,-2.76,-2.76,-2.76,-2.76,-2.736,-2.6701,-2.5899,-2.5187,-2.4664,-2.4231,-2.3894,-2.3625,-2.3595,-2.3595,-2.3595,-2.3377,-2.3246,-2.3246,-2.3465,-2.3595,-2.3595,-2.3595,-2.3595,-2.3595,-2.3595,-2.3595,-2.3595,-2.3595,-2.3595,-2.0526,0.0,0.0,0.0,0.0,0.0,0.0,0.0,0.0,0.0,0.0,0.0,0.0,0.0,0.0,0.0,0.0,0.0,0.0,0.0,0.0,0.0,0.0,0.0,0.0,0.0,0.0,0.0,0.0,0.0,0.0,-2.8118,-2.8155,-2.8217,-2.8238,-2.8201,-2.8157,-2.7599,-2.7032,-2.6428,-2.6468,-2.6183,-2.5668,-2.8115,-2.8895,-2.8314,-2.7744,-2.7773,-2.823,-2.823,-2.8545,-2.9057,-2.9057,-2.9089,-2.9153,-2.9153,-2.9162,-2.9248,-2.9248,-2.9281,-2.9225,-2.8632,-2.8459,-2.8397,-2.7779,-2.76,-2.76,-2.76,-2.76,-2.76,-2.76,-2.76,-2.787,-2.8973,-2.8826,-2.8415,-2.8415,-2.7993,-2.76,-2.76,-2.76,-2.76,-2.76,-2.76,-2.76,-2.76,-2.76,-2.736,-2.6701,-2.6542,-2.6019,-2.4739,-2.4545,-2.4261,-2.3655,-2.3595,-2.3573,-2.3508,-2.3009,-2.2672,-2.2603,-2.3143,-2.3465,-2.3508,-2.3508,-2.3508,-2.3508,-2.3508,-2.3508,-2.3508,-2.3465,-2.345,-2.1203,-2.2593,0.0,0.0,0.0,0.0,0.0,0.0,0.0,0.0,0.0,0.0,0.0,0.0,0.0,0.0,0.0,0.0,0.0,0.0,0.0,0.0,0.0,0.0,0.0,0.0,0.0,0.0,0.0,0.0,-2.7587,-2.7587,-2.7363,-2.6917,-2.6917,-2.6674,-2.6199,-2.6075,-2.593,-2.5794,-2.582,-2.5749,-2.5644,-2.7264,-2.7631,-2.7001,-2.687,-2.6594,-2.6232,-2.6232,-2.6302,-2.6427,-2.6427,-2.6746,-2.7202,-2.7202,-2.7537,-2.7993,-2.7993,-2.7985,-2.7966,-2.7831,-2.7791,-2.7794,-2.7645,-2.76,-2.76,-2.76,-2.76,-2.76,-2.76,-2.76,-2.7675,-2.7919,-2.7894,-2.7785,-2.7785,-2.7685,-2.76,-2.76,-2.76,-2.76,-2.76,-2.76,-2.76,-2.76,-2.76,-2.736,-2.6701,-2.6138,-2.551,-2.4694,-2.4126,-2.3759,-2.361,-2.3595,-2.3399,-2.292,-2.2762,-2.2475,-2.1922,-2.2039,-2.2354,-2.2875,-2.2897,-2.2897,-2.2897,-2.2897,-2.2897,-2.2875,-2.2354,-2.2377,0.0,0.0,0.0,0.0,0.0,0.0,0.0,0.0,0.0,0.0,0.0,0.0,0.0,0.0,0.0,0.0,0.0,0.0,0.0,0.0,0.0,0.0,0.0,0.0,0.0,0.0,0.0,0.0,0.0,-2.6234,-2.5986,-2.595,-2.5853,-2.5596,-2.5589,-2.528,-2.4642,-2.4948,-2.4822,-2.4208,-2.4814,-2.5277,-2.563,-2.6318,-2.6437,-2.6123,-2.6123,-2.5929,-2.5615,-2.5615,-2.5615,-2.5621,-2.5959,-2.6288,-2.6632,-2.6971,-2.73,-2.76,-2.76,-2.76,-2.76,-2.76,-2.76,-2.76,-2.76,-2.76,-2.76,-2.76,-2.76,-2.76,-2.76,-2.76,-2.76,-2.76,-2.76,-2.751,-2.7195,-2.7121,-2.7031,-2.6692,-2.6911,-2.7121,-2.7121,-2.739,-2.76,-2.76,-2.76,-2.7339,-2.6629,-2.6287,-2.5691,-2.4655,-2.4009,-2.3503,-2.3194,-2.2868,-2.256,-2.2253,-2.195,-2.1619,-2.1269,-2.0953,-2.1232,-2.2193,-2.2216,-2.2216,-2.2216,-2.2216,-2.2216,-2.2193,-2.1875,-2.1899,0.0,0.0,0.0,0.0,0.0,0.0,0.0,0.0,0.0,0.0,0.0,0.0,0.0,0.0,0.0,0.0,0.0,0.0,0.0,0.0,0.0,0.0,0.0,0.0,0.0,0.0,0.0,0.0,0.0,-2.4669,-2.4133,-2.422,-2.4313,-2.4433,-2.4425,-2.4096,-2.3445,-2.3977,-2.3744,-2.2703,-2.3879,-2.4709,-2.5255,-2.5255,-2.533,-2.5435,-2.5435,-2.5375,-2.5255,-2.5255,-2.5255,-2.5315,-2.5869,-2.6213,-2.6467,-2.6926,-2.73,-2.757,-2.7345,-2.7405,-2.757,-2.7465,-2.751,-2.76,-2.76,-2.76,-2.76,-2.76,-2.76,-2.76,-2.76,-2.76,-2.76,-2.76,-2.751,-2.7285,-2.6707,-2.6587,-2.6393,-2.5734,-2.6042,-2.6406,-2.6401,-2.6859,-2.7214,-2.7214,-2.7214,-2.692,-2.6103,-2.605,-2.5546,-2.4175,-2.3631,-2.3139,-2.2563,-2.2016,-2.1663,-2.1544,-2.1064,-2.0759,-2.0622,-2.0093,-2.0308,-2.1339,-2.1496,-2.1544,-2.1544,-2.1544,-2.1544,-2.1544,-2.1424,-2.1435,0.0,0.0,0.0,0.0,0.0,0.0,0.0,0.0,0.0,0.0,0.0,0.0,0.0,0.0,0.0,0.0,0.0,0.0,0.0,0.0,0.0,0.0,0.0,0.0,0.0,0.0,0.0,0.0,-2.3181,-2.3547,-2.2962,-2.3423,-2.3726,-2.3729,-2.3729,-2.343,-2.2823,-2.2912,-2.2868,-2.2703,-2.34,-2.3789,-2.3864,-2.3864,-2.4193,-2.4739,-2.4739,-2.4395,-2.3864,-2.3864,-2.3864,-2.3879,-2.3969,-2.4717,-2.5674,-2.5173,-2.6093,-2.7435,-2.6273,-2.6641,-2.7495,-2.6926,-2.7136,-2.76,-2.76,-2.76,-2.76,-2.76,-2.76,-2.76,-2.76,-2.76,-2.76,-2.76,-2.7165,-2.6692,-2.6617,-2.6587,-2.6393,-2.5734,-2.5634,-2.5627,-2.5558,-2.5617,-2.5701,-2.5701,-2.5701,-2.5282,-2.4132,-2.4,-2.3509,-2.2213,-2.2019,-2.1935,-2.1828,-2.1744,-2.1472,-2.0955,-2.0845,-2.0547,-1.9952,-1.985,-1.9875,-2.0042,-2.0608,-2.0919,-2.0919,-2.0919,-2.0919,-2.0919,-2.0308,-2.0358,-1.8837,0.0,0.0,0.0,0.0,0.0,0.0,0.0,0.0,0.0,0.0,0.0,0.0,0.0,0.0,0.0,0.0,0.0,0.0,0.0,0.0,0.0,0.0,0.0,0.0,0.0,0.0,0.0,-2.2218,-2.2577,-2.2688,-2.2957,-2.3107,-2.3107,-2.3107,-2.2613,-2.159,-2.1934,-2.2149,-2.2149,-2.2398,-2.2532,-2.2547,-2.2927,-2.343,-2.4036,-2.4036,-2.3879,-2.3595,-2.3595,-2.3595,-2.364,-2.4007,-2.4515,-2.5053,-2.5128,-2.5734,-2.6393,-2.5809,-2.5989,-2.6482,-2.6557,-2.6806,-2.7031,-2.7008,-2.6982,-2.6982,-2.6982,-2.6431,-2.6047,-2.6802,-2.6491,-2.6048,-2.6309,-2.5937,-2.5409,-2.5013,-2.496,-2.4873,-2.4531,-2.4705,-2.4999,-2.5342,-2.5398,-2.5398,-2.5398,-2.5121,-2.4545,-2.3622,-2.326,-2.2732,-2.1763,-2.1374,-2.121,-2.121,-2.0855,-2.0521,-2.0258,-2.0245,-2.0105,-1.9798,-1.9798,-1.9798,-1.9798,-2.0105,-2.0245,-2.0245,-2.0245,-2.0245,-2.022,-1.9927,-1.9952,0.0,0.0,0.0,0.0,0.0,0.0,0.0,0.0,0.0,0.0,0.0,0.0,0.0,0.0,0.0,0.0,0.0,0.0,0.0,0.0,0.0,0.0,0.0,0.0,0.0,0.0,0.0,0.0,-2.15,-2.1844,-2.2179,-2.2358,-2.2448,-2.2448,-2.2448,-2.1874,-2.0703,-2.1201,-2.1381,-2.1248,-2.1426,-2.144,-2.1318,-2.1825,-2.2281,-2.2738,-2.3337,-2.3595,-2.3595,-2.3595,-2.3595,-2.3655,-2.4141,-2.4455,-2.4627,-2.4787,-2.5091,-2.5304,-2.4785,-2.484,-2.5178,-2.5487,-2.581,-2.6063,-2.6002,-2.6101,-2.6229,-2.6229,-2.55,-2.4924,-2.5755,-2.5326,-2.4696,-2.491,-2.4582,-2.4042,-2.3481,-2.3291,-2.3211,-2.3283,-2.3619,-2.4096,-2.4703,-2.4809,-2.4784,-2.4635,-2.4244,-2.3648,-2.2821,-2.2405,-2.1919,-2.1224,-2.0782,-2.056,-2.056,-2.0105,-1.9798,-1.9798,-1.9798,-1.9798,-1.9798,-1.9798,-1.9798,-1.9798,-1.9605,-1.9527,-1.9527,-1.9721,-1.9695,-1.9527,-1.9721,-1.9798,0.0,0.0,0.0,0.0,0.0,0.0,0.0,0.0,0.0,0.0,0.0,0.0,0.0,0.0,0.0,0.0,0.0,0.0,0.0,0.0,0.0,0.0,0.0,0.0,0.0,0.0,0.0,0.0,-2.0976,-2.144,-2.0838,-2.141,-2.1739,-2.1739,-2.1739,-2.141,-2.0703,-2.0733,-2.0503,-2.0004,-2.0651,-2.0697,-2.0194,-2.0222,-2.025,-2.0413,-2.2635,-2.3595,-2.3595,-2.3595,-2.3595,-2.3595,-2.364,-2.4036,-2.4462,-2.3285,-2.3652,-2.4481,-2.2568,-2.2738,-2.3694,-2.31,-2.3673,-2.4618,-2.4593,-2.4996,-2.5453,-2.5453,-2.5412,-2.5246,-2.4719,-2.4565,-2.4385,-2.3897,-2.3286,-2.279,-2.2754,-2.2242,-2.1941,-2.2379,-2.247,-2.2659,-2.3145,-2.3215,-2.3039,-2.2539,-2.2438,-2.2034,-2.0999,-2.0836,-2.0584,-1.995,-1.9862,-1.985,-1.985,-1.9824,-1.9798,-1.9798,-1.9798,-1.9798,-1.9798,-1.9798,-1.9798,-1.9798,-1.9123,-1.8768,-1.8768,-1.9449,-1.9449,-1.8768,-1.9475,-1.9798,0.0,0.0,0.0,0.0,0.0,0.0,0.0,0.0,0.0,0.0,0.0,0.0,0.0,0.0,0.0,0.0,0.0,0.0,0.0,0.0,0.0,0.0,0.0,0.0,0.0,0.0,0.0,0.0,0.0,-2.0498,-2.0688,-2.0932,-2.1066,-2.1066,-2.1066,-2.057,-1.9553,-1.9553,-1.9272,-1.875,-1.8981,-1.8999,-1.883,-1.9273,-1.9461,-1.9538,-2.0805,-2.1363,-2.1363,-2.1363,-2.1548,-2.1875,-2.1875,-2.2224,-2.2676,-2.2231,-2.2343,-2.2666,-2.1944,-2.2011,-2.245,-2.2643,-2.3241,-2.3923,-2.3811,-2.393,-2.4118,-2.4118,-2.3281,-2.2508,-2.3125,-2.272,-2.2076,-2.1886,-2.1877,-2.1837,-2.1498,-2.1212,-2.1121,-2.1296,-2.1573,-2.1873,-2.2036,-2.2083,-2.2008,-2.1807,-2.1481,-2.1131,-2.0742,-2.0365,-2.0037,-1.9823,-1.9798,-1.9798,-1.9798,-1.9371,-1.9293,-1.9773,-1.89,-1.8608,-1.9071,-1.8635,-1.8394,-1.8394,-1.8124,-1.8221,-1.8688,-1.8501,-1.8259,-1.8015,-1.8259,-1.8245,0.0,0.0,0.0,0.0,0.0,0.0,0.0,0.0,0.0,0.0,0.0,0.0,0.0,0.0,0.0,0.0,0.0,0.0,0.0,0.0,0.0,0.0,0.0,0.0,0.0,0.0,0.0,0.0,0.0,0.0,-2.0348,-2.0363,-2.0288,-2.0104,-1.9918,-1.9435,-1.8645,-1.8631,-1.8361,-1.7827,-1.7827,-1.7747,-1.7578,-1.8008,-1.8225,-1.8252,-1.8712,-1.9355,-2.0108,-2.0108,-2.0426,-2.09,-2.09,-2.1222,-2.1687,-2.1472,-2.139,-2.1366,-2.1135,-2.1062,-2.1129,-2.1594,-2.2144,-2.2617,-2.2506,-2.263,-2.2745,-2.2745,-2.1897,-2.1114,-2.1808,-2.1212,-2.0446,-2.0446,-2.0705,-2.0828,-2.0478,-2.0553,-2.0742,-2.093,-2.127,-2.1543,-2.1732,-2.1769,-2.1707,-2.1546,-2.1043,-2.0629,-2.0427,-2.0037,-1.9721,-1.9449,-1.9423,-1.9333,-1.9097,-1.8608,-1.8528,-1.9044,-1.8151,-1.7825,-1.8301,-1.7841,-1.7605,-1.7605,-1.7357,-1.7468,-1.7961,-1.7715,-1.7468,-1.7246,-1.7495,-1.7286,0.0,0.0,0.0,0.0,0.0,0.0,0.0,0.0,0.0,0.0,0.0,0.0,0.0,0.0,0.0,0.0,0.0,0.0,0.0,0.0,0.0,0.0,0.0,0.0,0.0,0.0,0.0,0.0,-1.969,-1.969,-1.969,-1.9657,-1.9406,-1.8893,-1.838,-1.8086,-1.8086,-1.8086,-1.7807,-1.7271,-1.7271,-1.6993,-1.65,-1.65,-1.65,-1.65,-1.65,-1.7821,-1.9988,-1.9988,-2.0313,-2.0799,-2.0799,-2.1135,-2.1564,-2.0953,-2.0758,-2.0671,-2.0029,-1.9798,-1.9798,-1.9798,-2.0214,-2.0691,-2.0717,-2.1081,-2.1496,-2.1509,-2.1496,-2.1345,-2.0805,-2.0251,-1.9798,-1.9798,-1.9811,-1.9823,-1.9823,-2.0314,-2.0867,-2.1395,-2.1481,-2.1656,-2.2196,-2.2272,-2.2083,-2.1543,-2.1018,-2.0465,-1.9848,-1.9773,-1.9475,-1.8741,-1.8661,-1.8382,-1.766,-1.7578,-1.7578,-1.7605,-1.755,-1.755,-1.7578,-1.755,-1.755,-1.755,-1.6838,-1.6464,-1.6464,-1.7202,-1.7163,-1.6492,-1.718,-1.7026,-1.4549,0.0,0.0,0.0,0.0,0.0,0.0,0.0,0.0,0.0,0.0,0.0,0.0,0.0,0.0,0.0,0.0,0.0,0.0,0.0,0.0,0.0,0.0,0.0,0.0,0.0,0.0,0.0,-1.935,-1.9132,-1.9132,-1.8746,-1.8477,-1.8341,-1.8185,-1.7907,-1.7524,-1.7524,-1.725,-1.671,-1.671,-1.6637,-1.65,-1.65,-1.65,-1.65,-1.65,-1.6879,-1.7493,-1.7493,-1.7843,-1.8374,-1.8374,-1.8947,-1.9728,-1.9544,-1.9749,-2.0055,-1.985,-1.9798,-1.9798,-1.9798,-2.0214,-2.0767,-2.1169,-2.1119,-2.1006,-2.1408,-2.0903,-2.0238,-2.0075,-1.9924,-1.9798,-1.9798,-2.0125,-2.0453,-2.0453,-2.0893,-2.1219,-2.0968,-2.1245,-2.1543,-2.1694,-2.1408,-2.1094,-2.0943,-2.0413,-1.9792,-1.9083,-1.9006,-1.8715,-1.7977,-1.7895,-1.7825,-1.7633,-1.7118,-1.7034,-1.7578,-1.6602,-1.6244,-1.6782,-1.6301,-1.5997,-1.5997,-1.5806,-1.569,-1.569,-1.5911,-1.5911,-1.569,-1.5626,-1.5453,0.0,0.0,0.0,0.0,0.0,0.0,-1.5786,-1.6212,0.0,0.0,0.0,0.0,0.0,0.0,0.0,0.0,0.0,0.0,0.0,0.0,0.0,0.0,0.0,0.0,0.0,-1.9708,-1.9603,-1.9387,-1.908,-1.8798,-1.8574,-1.8066,-1.7767,-1.7767,-1.7544,-1.7271,-1.6972,-1.6972,-1.6816,-1.65,-1.65,-1.65,-1.65,-1.65,-1.65,-1.65,-1.65,-1.65,-1.65,-1.65,-1.6861,-1.741,-1.741,-1.8053,-1.9008,-1.9008,-1.9334,-1.9798,-1.9798,-1.9798,-1.9798,-1.9798,-2.0024,-2.039,-2.069,-2.0754,-2.0704,-2.0765,-2.0313,-1.9798,-1.9798,-1.9798,-1.9798,-1.9798,-2.0062,-2.0248,-1.9943,-2.0438,-2.0976,-2.1011,-2.1179,-2.1334,-2.1475,-2.0692,-2.0093,-2.0217,-1.9475,-1.8741,-1.8313,-1.8248,-1.7961,-1.723,-1.7135,-1.7024,-1.6715,-1.6283,-1.6226,-1.6669,-1.5882,-1.5584,-1.6036,-1.5633,-1.541,-1.541,-1.541,-1.541,-1.541,-1.541,-1.541,-1.5371,-1.5156,-1.4951,0.0,0.0,0.0,0.0,0.0,0.0,-1.5509,-1.5427,-1.5256,0.0,0.0,0.0,0.0,0.0,0.0,0.0,0.0,0.0,0.0,0.0,0.0,0.0,0.0,0.0,-1.9588,-1.9534,-1.9332,-1.893,-1.8798,-1.8496,-1.7947,-1.7463,-1.7209,-1.7209,-1.6752,-1.65,-1.65,-1.65,-1.65,-1.65,-1.65,-1.65,-1.65,-1.65,-1.65,-1.65,-1.65,-1.65,-1.65,-1.65,-1.6823,-1.731,-1.731,-1.7928,-1.882,-1.882,-1.9183,-1.971,-1.971,-1.9748,-1.9798,-1.9798,-1.9798,-1.9811,-1.9874,-2.0239,-2.049,-1.9949,-1.9798,-1.9798,-1.9798,-1.9798,-1.9773,-1.9695,-1.9669,-1.9475,-1.8741,-1.9333,-2.0241,-2.1017,-2.101,-2.0986,-2.1264,-2.0053,-1.9134,-1.9498,-1.8437,-1.7578,-1.7495,-1.7468,-1.7191,-1.6454,-1.6379,-1.6122,-1.5468,-1.541,-1.541,-1.541,-1.541,-1.541,-1.541,-1.541,-1.541,-1.541,-1.541,-1.541,-1.541,-1.541,-1.5352,-1.5264,-1.5264,-1.5032,0.0,0.0,0.0,0.0,0.0,0.0,-1.437,-1.4845,-1.5233,0.0,0.0,0.0,0.0,0.0,0.0,0.0,0.0,0.0,0.0,0.0,0.0,0.0,0.0,0.0,-1.8837,-1.8499,-1.8437,-1.8868,-1.8106,-1.7394,-1.6837,-1.671,-1.6659,-1.6659,-1.6552,-1.65,-1.65,-1.65,-1.65,-1.65,-1.65,-1.65,-1.65,-1.65,-1.65,-1.65,-1.65,-1.65,-1.65,-1.65,-1.6563,-1.6685,-1.6685,-1.7099,-1.7702,-1.7702,-1.8329,-1.9158,-1.9158,-1.9447,-1.9798,-1.9798,-1.9798,-1.9886,-2.0377,-2.0277,-1.9949,-1.9836,-1.9798,-1.9798,-1.9798,-1.9798,-1.9643,-1.9071,-1.89,-1.8715,-1.7977,-1.8356,-1.8874,-1.9057,-1.9634,-2.0144,-2.0205,-1.9322,-1.8746,-1.9138,-1.8289,-1.7385,-1.6793,-1.6708,-1.6425,-1.569,-1.5604,-1.5555,-1.541,-1.541,-1.541,-1.541,-1.541,-1.541,-1.541,-1.541,-1.541,-1.541,-1.541,-1.541,-1.541,-1.541,-1.5079,-1.4421,-1.4421,-1.4049,0.0,0.0,0.0,-1.3099,0.0,0.0,0.0,-1.4527,-1.4659,0.0,0.0,0.0,0.0,0.0,0.0,0.0,0.0,0.0,0.0,0.0,0.0,0.0,0.0,0.0,-1.8145,-1.76,-1.7331,-1.7685,-1.7202,-1.6774,-1.6522,-1.65,-1.65,-1.65,-1.65,-1.65,-1.65,-1.65,-1.65,-1.65,-1.65,-1.65,-1.65,-1.65,-1.65,-1.6466,-1.6194,-1.6216,-1.6479,-1.6173,-1.6238,-1.65,-1.65,-1.6873,-1.741,-1.741,-1.8078,-1.9008,-1.9008,-1.9346,-1.9798,-1.9798,-1.9798,-1.9861,-2.015,-2.0037,-1.9784,-1.9703,-1.9474,-1.9176,-1.8794,-1.8688,-1.8608,-1.8232,-1.814,-1.7961,-1.7219,-1.747,-1.7654,-1.7072,-1.7531,-1.8269,-1.9052,-1.8151,-1.7437,-1.7748,-1.7052,-1.6358,-1.6007,-1.595,-1.5806,-1.5439,-1.541,-1.541,-1.541,-1.541,-1.541,-1.541,-1.541,-1.541,-1.541,-1.5021,-1.4599,-1.4204,-1.4213,-1.4213,-1.4213,-1.4213,-1.4213,-1.4174,-1.3795,-1.3403,0.0,0.0,0.0,0.0,0.0,-1.3417,0.0,0.0,0.0,-1.3934,0.0,0.0,0.0,0.0,0.0,0.0,0.0,0.0,0.0,0.0,0.0,0.0,0.0,0.0,0.0,-1.6766,-1.6345,-1.6356,-1.6344,-1.6387,-1.6488,-1.65,-1.65,-1.65,-1.65,-1.65,-1.65,-1.65,-1.6445,-1.6324,-1.6445,-1.638,-1.6163,-1.6259,-1.6259,-1.6129,-1.5644,-1.571,-1.6107,-1.5644,-1.571,-1.6173,-1.6402,-1.681,-1.7234,-1.7234,-1.7915,-1.8845,-1.8845,-1.9259,-1.9798,-1.9798,-1.9798,-1.9798,-1.9798,-1.9695,-1.9574,-1.9468,-1.8966,-1.8355,-1.7743,-1.7605,-1.755,-1.7413,-1.7462,-1.7311,-1.6475,-1.6655,-1.6664,-1.5615,-1.5693,-1.6397,-1.7796,-1.6893,-1.6079,-1.6382,-1.5837,-1.541,-1.541,-1.541,-1.541,-1.541,-1.541,-1.541,-1.541,-1.541,-1.541,-1.541,-1.5255,-1.5177,-1.5177,-1.4392,-1.3666,-1.3009,-1.3009,-1.3009,-1.3009,-1.2848,-1.3092,-1.3717,-1.3061,-1.2704,0.0,0.0,0.0,0.0,-1.4237,0.0,0.0,0.0,-1.2831,-1.2443,0.0,0.0,0.0,0.0,0.0,0.0,0.0,0.0,0.0,0.0,0.0,0.0,0.0,0.0,0.0,-1.6046,-1.5796,-1.5785,-1.5797,-1.6007,-1.6475,-1.65,-1.65,-1.65,-1.65,-1.65,-1.65,-1.65,-1.6238,-1.5698,-1.6238,-1.5942,-1.4926,-1.5454,-1.541,-1.4903,-1.4835,-1.4835,-1.4915,-1.4835,-1.4835,-1.4994,-1.6086,-1.6538,-1.6588,-1.6588,-1.7325,-1.8292,-1.8292,-1.8957,-1.9798,-1.9798,-1.9798,-1.9798,-1.9798,-1.9333,-1.8806,-1.8825,-1.8267,-1.7715,-1.7633,-1.7605,-1.744,-1.6793,-1.694,-1.6936,-1.578,-1.59,-1.6048,-1.5527,-1.5449,-1.5664,-1.6257,-1.5891,-1.5625,-1.6088,-1.5713,-1.541,-1.541,-1.541,-1.541,-1.541,-1.541,-1.541,-1.541,-1.541,-1.541,-1.541,-1.4717,-1.4332,-1.4332,-1.3545,-1.31,-1.3009,-1.3009,-1.3009,-1.3009,-1.2297,-1.1981,-1.2074,-1.1981,-1.1562,0.0,0.0,0.0,0.0,0.0,0.0,-1.4363,0.0,-1.2431,0.0,0.0,0.0,0.0,0.0,0.0,0.0,-1.2879,0.0,0.0,0.0,0.0,0.0,0.0,0.0,0.0,0.0,0.0,0.0,-1.5497,-1.589,-1.6475,-1.65,-1.65,-1.65,-1.65,-1.65,-1.65,-1.6139,-1.5842,-1.561,-1.5511,-1.5186,-1.4698,-1.4971,-1.4949,-1.4675,-1.4329,-1.4376,-1.4675,-1.4329,-1.4376,-1.4744,-1.5254,-1.5456,-1.5491,-1.5728,-1.6174,-1.6692,-1.722,-1.7727,-1.827,-1.8948,-1.8874,-1.8608,-1.9044,-1.8661,-1.7977,-1.755,-1.7191,-1.6866,-1.6443,-1.633,-1.6316,-1.6274,-1.6195,-1.6077,-1.5861,-1.5732,-1.5703,-1.5781,-1.5586,-1.5547,-1.6016,-1.5703,-1.5478,-1.5654,-1.5527,-1.541,-1.541,-1.541,-1.541,-1.541,-1.541,-1.541,-1.541,-1.541,-1.5196,-1.4717,-1.3944,-1.3304,-1.284,-1.2473,-1.2081,-1.1632,-1.1608,-1.1608,-1.1608,-1.1264,-1.1108,-1.1108,-1.1108,-1.0926,-1.5184,0.0,0.0,0.0,0.0,0.0,0.0,0.0,0.0,0.0,0.0,0.0,0.0,0.0,0.0,0.0,0.0,0.0,0.0,0.0,0.0,0.0,0.0,0.0,0.0,0.0,0.0,-1.4714,-1.5173,-1.5685,-1.6292,-1.6434,-1.6423,-1.6259,-1.6259,-1.6173,-1.5998,-1.5577,-1.5276,-1.5107,-1.4835,-1.4525,-1.4201,-1.4376,-1.4352,-1.4177,-1.3742,-1.3813,-1.4177,-1.3732,-1.3802,-1.4212,-1.4212,-1.4212,-1.4312,-1.5032,-1.5467,-1.5811,-1.6525,-1.6968,-1.7307,-1.8132,-1.8031,-1.7715,-1.8232,-1.7868,-1.7202,-1.6652,-1.634,-1.6093,-1.5555,-1.541,-1.5527,-1.5987,-1.5918,-1.583,-1.6046,-1.6036,-1.5977,-1.6075,-1.5908,-1.584,-1.6065,-1.5831,-1.5547,-1.543,-1.5508,-1.5547,-1.543,-1.5206,-1.5079,-1.5079,-1.4864,-1.4746,-1.4746,-1.4746,-1.4382,-1.3597,-1.3,-1.2297,-1.15,-1.1469,-1.1195,-1.0624,-1.0593,-1.0593,-1.0593,-1.0593,-1.0593,-1.0593,-1.0593,-1.0593,0.0,0.0,0.0,-1.5385,0.0,0.0,0.0,0.0,-1.2174,0.0,0.0,0.0,0.0,0.0,0.0,0.0,0.0,0.0,0.0,0.0,0.0,0.0,0.0,0.0,0.0,0.0,0.0,-1.4282,-1.4746,-1.5246,-1.5782,-1.6241,-1.6238,-1.5654,-1.5632,-1.5343,-1.4766,-1.4744,-1.4445,-1.3862,-1.4422,-1.4095,-1.2968,-1.3552,-1.3505,-1.2954,-1.2954,-1.2954,-1.2954,-1.2954,-1.2954,-1.2954,-1.2954,-1.2954,-1.3139,-1.472,-1.5655,-1.6233,-1.6647,-1.7154,-1.7583,-1.7622,-1.7633,-1.7605,-1.7633,-1.7118,-1.6521,-1.6521,-1.5979,-1.5439,-1.541,-1.541,-1.5527,-1.5987,-1.6387,-1.6541,-1.6183,-1.675,-1.7103,-1.6261,-1.6406,-1.6531,-1.6163,-1.6085,-1.5928,-1.5478,-1.5801,-1.5919,-1.5469,-1.4717,-1.4243,-1.4243,-1.3545,-1.307,-1.307,-1.307,-1.2726,-1.1919,-1.1865,-1.1469,-1.0681,-1.0656,-1.0624,-1.0593,-1.0593,-1.0593,-1.0593,-1.0593,-1.0593,-1.0593,-1.0593,-1.0593,0.0,0.0,-1.6923,-1.5842,0.0,0.0,0.0,0.0,0.0,0.0,0.0,0.0,0.0,0.0,0.0,0.0,0.0,0.0,0.0,0.0,0.0,0.0,0.0,0.0,0.0,0.0,0.0,-1.4125,-1.4645,-1.5174,-1.5709,-1.5844,-1.582,-1.561,-1.5208,-1.4903,-1.4698,-1.4306,-1.4003,-1.3792,-1.361,-1.3296,-1.2905,-1.3104,-1.3079,-1.2905,-1.2905,-1.2905,-1.2905,-1.2905,-1.2905,-1.2935,-1.3184,-1.3301,-1.3361,-1.3907,-1.4225,-1.4522,-1.5246,-1.5761,-1.6216,-1.6698,-1.6528,-1.6244,-1.6726,-1.6368,-1.5777,-1.5777,-1.5584,-1.5478,-1.5762,-1.587,-1.6056,-1.6799,-1.6836,-1.6736,-1.6904,-1.6943,-1.6953,-1.6975,-1.6319,-1.5794,-1.5947,-1.5303,-1.4908,-1.5341,-1.5537,-1.5399,-1.4706,-1.4362,-1.3995,-1.3455,-1.3161,-1.3009,-1.3009,-1.2512,-1.2081,-1.1834,-1.1288,-1.0863,-1.0624,-1.0593,-1.0593,-1.0593,-1.0593,-1.0593,-1.0593,-1.0015,-0.9754,-0.9728,-0.9242,-0.9263,-1.7234,-1.696,0.0,-1.555,-1.5172,0.0,-1.4145,0.0,0.0,0.0,0.0,0.0,0.0,0.0,0.0,0.0,0.0,0.0,0.0,-1.2094,0.0,0.0,0.0,0.0,0.0,0.0,-1.3698,-1.3965,-1.4581,-1.4989,0.0,-1.537,-1.5343,-1.4971,-1.4572,-1.4294,-1.4071,-1.3671,-1.3481,-1.3481,-1.3089,-1.2905,-1.2905,-1.2905,-1.2905,-1.2905,-1.2905,-1.2905,-1.2905,-1.2905,-1.2993,-1.3135,-1.3398,-1.3603,-1.3724,-1.3906,-1.4053,-1.4268,-1.4814,-1.5186,-1.5468,-1.595,-1.5777,-1.5497,-1.595,-1.5777,-1.541,-1.541,-1.541,-1.5478,-1.5762,-1.586,-1.6016,-1.677,-1.65,-1.616,-1.6579,-1.63,-1.6062,-1.633,-1.5766,-1.5303,-1.5374,-1.468,-1.424,-1.4632,-1.4722,-1.4517,-1.3863,-1.3507,-1.3144,-1.2634,-1.2305,-1.2151,-1.2151,-1.1655,-1.1375,-1.1375,-1.0895,-1.0593,-1.0593,-1.0593,-1.0687,-1.0894,-1.0405,-1.0239,-1.0438,-0.9356,-0.8844,-0.8818,-0.8394,-0.8292]},{"header":{"parameterUnit":"m.s-1","parameterCategory":1,"la1":30.6,"la2":29.2853,"lo1":-89.7004,"lo2":-87.6739,"dy":0.0162,"dx":0.0183,"nx":112,"ny":82,"refTime":"2023-09-23T06:00:00:Z","depth":0,"parameterNumber":3,"parameterNumberName":"V-component_of_WINDS"},"data":[0.0,0.0,0.0,0.0,0.0,0.0,0.0,0.0,0.0,0.0,0.0,0.0,0.0,0.0,0.0,0.0,0.0,0.0,0.0,0.0,0.0,0.0,0.0,0.0,0.0,0.0,0.0,0.0,0.0,0.0,0.0,0.0,0.0,0.0,0.0,0.0,0.0,0.0,0.0,0.0,0.0,0.0,0.0,0.0,0.0,0.0,0.0,0.0,0.0,0.0,0.0,0.0,0.0,0.0,0.0,0.0,0.0,0.0,0.0,0.0,0.0,0.0,0.0,0.0,0.0,0.0,0.0,0.0,0.0,0.0,0.0,0.0,0.0,0.0,0.0,0.0,0.0,0.0,0.0,0.0,0.0,0.0,0.0,0.0,0.0,0.0,0.0,0.0,0.0,0.0,0.0,-0.7842,-0.843,-0.8443,-0.7531,-0.6648,-0.6689,-0.7998,0.0,0.0,0.0,0.0,0.0,0.0,0.0,0.0,0.0,0.0,0.0,0.0,0.0,0.0,0.0,0.0,0.0,0.0,0.0,0.0,0.0,0.0,0.0,0.0,0.0,0.0,0.0,0.0,0.0,0.0,0.0,0.0,0.0,0.0,0.0,0.0,0.0,0.0,0.0,0.0,0.0,0.0,0.0,0.0,0.0,0.0,0.0,0.0,0.0,0.0,0.0,0.0,0.0,0.0,0.0,0.0,0.0,0.0,0.0,0.0,0.0,0.0,0.0,0.0,0.0,0.0,0.0,0.0,0.0,0.0,0.0,0.0,0.0,0.0,0.0,0.0,0.0,0.0,0.0,0.0,0.0,0.0,0.0,0.0,0.0,0.0,0.0,0.0,0.0,0.0,0.0,0.0,0.0,0.0,0.0,0.0,0.0,0.0,0.0,0.0,0.0,0.0,0.0,0.0,-0.8155,-0.8292,-0.8603,-0.8391,-0.7416,-0.6365,-0.631,-0.7534,0.0,0.0,0.0,0.0,0.0,0.0,0.0,0.0,0.0,0.0,0.0,0.0,0.0,0.0,0.0,0.0,0.0,0.0,0.0,0.0,0.0,0.0,0.0,0.0,0.0,0.0,0.0,0.0,0.0,0.0,0.0,0.0,0.0,0.0,0.0,0.0,0.0,0.0,0.0,0.0,0.0,0.0,0.0,0.0,0.0,0.0,0.0,0.0,0.0,0.0,0.0,0.0,0.0,0.0,0.0,0.0,0.0,0.0,0.0,0.0,0.0,0.0,0.0,0.0,0.0,0.0,0.0,0.0,0.0,0.0,0.0,0.0,0.0,0.0,0.0,0.0,0.0,0.0,0.0,0.0,0.0,0.0,0.0,0.0,0.0,0.0,0.0,0.0,0.0,0.0,0.0,0.0,0.0,0.0,0.0,0.0,0.0,0.0,0.0,0.0,0.0,0.0,0.0,-0.8111,-0.8182,-0.8564,-0.8591,-0.8389,-0.7942,-0.6406,-0.6297,-0.8242,-0.6452,0.0,0.0,0.0,0.0,0.0,0.0,0.0,0.0,0.0,0.0,0.0,0.0,0.0,0.0,0.0,0.0,0.0,0.0,0.0,0.0,0.0,0.0,0.0,0.0,0.0,0.0,0.0,0.0,0.0,0.0,0.0,0.0,0.0,0.0,0.0,0.0,0.0,0.0,0.0,0.0,0.0,0.0,0.0,0.0,0.0,0.0,0.0,0.0,0.0,0.0,0.0,0.0,0.0,0.0,0.0,0.0,0.0,0.0,0.0,0.0,0.0,0.0,0.0,0.0,0.0,0.0,0.0,0.0,0.0,0.0,0.0,0.0,0.0,0.0,0.0,0.0,0.0,0.0,0.0,0.0,0.0,0.0,0.0,0.0,0.0,0.0,0.0,0.0,0.0,0.0,0.0,0.0,0.0,0.0,0.0,0.0,0.0,0.0,0.0,0.0,0.0,0.0,-0.7995,-0.8004,-0.8731,-0.855,-0.8368,-0.8301,-0.66,-0.6434,-0.8472,-0.6403,0.0,0.0,0.0,0.0,0.0,0.0,0.0,0.0,0.0,0.0,0.0,0.0,0.0,0.0,0.0,0.0,0.0,0.0,0.0,0.0,0.0,0.0,0.0,0.0,0.0,0.0,0.0,0.0,0.0,0.0,0.0,0.0,0.0,0.0,0.0,0.0,0.0,0.0,0.0,0.0,0.0,0.0,0.0,0.0,0.0,0.0,0.0,0.0,0.0,0.0,0.0,0.0,0.0,0.0,0.0,0.0,0.0,0.0,0.0,0.0,0.0,0.0,0.0,0.0,0.0,0.0,0.0,0.0,0.0,0.0,0.0,0.0,0.0,0.0,0.0,0.0,0.0,0.0,0.0,0.0,0.0,0.0,0.0,0.0,0.0,0.0,0.0,0.0,0.0,0.0,0.0,0.0,0.0,0.0,0.0,0.0,0.0,0.0,0.0,0.0,0.0,0.0,-0.7873,-0.7856,-0.8717,-0.855,-0.8263,-0.7959,-0.6933,-0.6554,-0.7101,-0.6248,0.0,0.0,0.0,0.0,0.0,0.0,0.0,0.0,0.0,0.0,0.0,0.0,0.0,0.0,0.0,0.0,0.0,0.0,0.0,0.0,0.0,0.0,0.0,0.0,0.0,0.0,0.0,0.0,0.0,0.0,0.0,0.0,0.0,0.0,0.0,0.0,0.0,0.0,0.0,0.0,0.0,0.0,0.0,0.0,0.0,0.0,0.0,0.0,0.0,0.0,0.0,0.0,0.0,0.0,0.0,0.0,0.0,0.0,0.0,0.0,0.0,0.0,0.0,0.0,0.0,0.0,0.0,0.0,0.0,0.0,0.0,0.0,0.0,0.0,0.0,0.0,0.0,0.0,0.0,0.0,0.0,0.0,0.0,0.0,0.0,0.0,0.0,0.0,0.0,0.0,0.0,0.0,0.0,0.0,0.0,0.0,0.0,0.0,0.0,0.0,0.0,0.0,-0.7832,-0.7834,0.0,-0.7862,-0.7533,-0.7357,-0.5762,-0.5299,-0.6498,0.0,0.0,0.0,0.0,0.0,0.0,0.0,0.0,0.0,0.0,0.0,0.0,0.0,0.0,0.0,0.0,0.0,0.0,0.0,0.0,0.0,0.0,0.0,0.0,0.0,0.0,0.0,0.0,0.0,0.0,0.0,0.0,0.0,0.0,0.0,0.0,0.0,0.0,0.0,0.0,0.0,0.0,0.0,0.0,0.0,0.0,0.0,0.0,0.0,0.0,0.0,0.0,0.0,0.0,0.0,0.0,0.0,0.0,0.0,0.0,0.0,0.0,0.0,0.0,0.0,0.0,0.0,0.0,0.0,0.0,0.0,0.0,0.0,0.0,0.0,0.0,0.0,0.0,0.0,0.0,0.0,0.0,0.0,0.0,0.0,0.0,0.0,0.0,0.0,0.0,0.0,0.0,0.0,0.0,0.0,0.0,0.0,0.0,0.0,0.0,0.0,0.0,-0.7654,-0.7534,-0.754,0.0,-0.7399,-0.699,-0.6821,-0.5286,-0.4805,-0.5893,0.0,0.0,0.0,0.0,0.0,0.0,0.0,0.0,0.0,0.0,0.0,0.0,0.0,0.0,0.0,0.0,0.0,0.0,0.0,0.0,0.0,0.0,0.0,0.0,0.0,0.0,0.0,0.0,0.0,0.0,0.0,0.0,0.0,0.0,0.0,0.0,0.0,0.0,0.0,0.0,0.0,0.0,0.0,0.0,0.0,0.0,0.0,0.0,0.0,0.0,0.0,0.0,0.0,0.0,0.0,0.0,0.0,0.0,0.0,0.0,0.0,0.0,0.0,0.0,0.0,0.0,0.0,0.0,0.0,0.0,0.0,0.0,0.0,0.0,0.0,0.0,0.0,0.0,0.0,0.0,0.0,0.0,0.0,0.0,0.0,0.0,0.0,0.0,0.0,0.0,0.0,0.0,0.0,0.0,0.0,0.0,0.0,0.0,0.0,0.0,0.0,0.0,-0.7454,-0.6968,-0.6927,-0.7792,-0.7331,-0.6825,-0.6416,-0.5812,-0.5389,0.0,0.0,0.0,0.0,0.0,0.0,0.0,0.0,0.0,0.0,0.0,0.0,0.0,0.0,0.0,0.0,0.0,0.0,0.0,0.0,0.0,0.0,0.0,0.0,0.0,0.0,0.0,0.0,0.0,0.0,0.0,0.0,0.0,0.0,0.0,0.0,0.0,0.0,0.0,0.0,0.0,0.0,0.0,0.0,0.0,0.0,0.0,0.0,0.0,0.0,0.0,0.0,0.0,0.0,0.0,0.0,0.0,0.0,0.0,0.0,0.0,0.0,0.0,0.0,0.0,0.0,0.0,0.0,0.0,0.0,0.0,0.0,0.0,0.0,0.0,0.0,0.0,0.0,0.0,0.0,0.0,0.0,0.0,0.0,0.0,0.0,0.0,0.0,0.0,0.0,0.0,0.0,0.0,0.0,0.0,0.0,0.0,0.0,0.0,0.0,0.0,0.0,0.0,-0.6848,-0.6539,-0.6284,-0.622,-0.5879,-0.5485,-0.5031,-0.4097,-0.392,-0.4868,0.0,0.0,0.0,0.0,0.0,0.0,0.0,0.0,0.0,0.0,0.0,0.0,0.0,0.0,0.0,0.0,0.0,0.0,0.0,0.0,0.0,0.0,0.0,0.0,0.0,0.0,0.0,0.0,0.0,0.0,0.0,0.0,0.0,0.0,0.0,0.0,0.0,0.0,0.0,0.0,0.0,0.0,0.0,0.0,0.0,0.0,0.0,0.0,0.0,0.0,0.0,0.0,0.0,0.0,0.0,0.0,0.0,0.0,0.0,0.0,0.0,0.0,0.0,0.0,0.0,0.0,0.0,0.0,0.0,0.0,0.0,0.0,0.0,0.0,0.0,0.0,0.0,0.0,0.0,0.0,0.0,0.0,0.0,0.0,0.0,0.0,0.0,0.0,0.0,0.0,0.0,0.0,0.0,0.0,0.0,0.0,0.0,0.0,0.0,0.0,0.0,0.0,-0.6147,-0.5914,-0.5638,-0.5298,-0.4991,-0.4638,-0.4196,-0.3403,-0.3341,-0.4272,0.0,0.0,0.0,0.0,0.0,0.0,0.0,0.0,0.0,0.0,0.0,0.0,0.0,0.0,0.0,0.0,0.0,0.0,0.0,0.0,0.0,0.0,0.0,0.0,0.0,0.0,0.0,0.0,0.0,0.0,0.0,0.0,0.0,0.0,0.0,0.0,0.0,0.0,0.0,0.0,0.0,0.0,0.0,0.0,0.0,0.0,0.0,0.0,0.0,0.0,0.0,0.0,0.0,0.0,0.0,0.0,0.0,0.0,0.0,0.0,0.0,0.0,0.0,0.0,0.0,0.0,0.0,0.0,0.0,0.0,0.0,0.0,0.0,0.0,0.0,0.0,0.0,0.0,0.0,0.0,0.0,0.0,0.0,0.0,0.0,0.0,0.0,0.0,0.0,0.0,0.0,0.0,0.0,0.0,0.0,0.0,0.0,0.0,0.0,0.0,0.0,0.0,-0.5482,-0.5172,-0.4939,-0.4774,-0.448,-0.4129,-0.3735,-0.3424,-0.3337,-0.3582,0.0,0.0,0.0,0.0,0.0,0.0,0.0,0.0,0.0,0.0,0.0,0.0,0.0,0.0,0.0,0.0,0.0,0.0,0.0,0.0,0.0,0.0,0.0,0.0,0.0,0.0,0.0,0.0,0.0,0.0,0.0,0.0,0.0,0.0,0.0,0.0,0.0,0.0,0.0,0.0,0.0,0.0,0.0,0.0,0.0,0.0,0.0,0.0,0.0,0.0,0.0,0.0,0.0,0.0,0.0,0.0,0.0,0.0,0.0,0.0,-0.085,0.0,0.0,0.0,0.0,0.0,0.0,0.0,0.0,0.0,0.0,0.0,0.0,0.0,0.0,0.0,0.0,0.0,0.0,0.0,0.0,0.0,0.0,0.0,0.0,0.0,0.0,0.0,0.0,0.0,0.0,0.0,0.0,0.0,0.0,0.0,0.0,0.0,0.0,0.0,0.0,0.0,-0.5227,-0.4702,-0.4204,-0.3691,-0.3575,-0.3369,-0.2976,-0.2863,-0.3046,-0.3572,-0.3787,0.0,0.0,0.0,0.0,0.0,0.0,0.0,0.0,0.0,0.0,0.0,0.0,0.0,0.0,0.0,0.0,0.0,0.0,0.0,0.0,0.0,0.0,0.0,0.0,0.0,0.0,0.0,0.0,0.0,0.0,0.0,0.0,0.0,0.0,0.0,0.0,0.0,0.0,0.0,0.0,0.0,0.0,0.0,0.0,0.0,0.0,0.0,0.0,0.0,0.0,0.0,0.0,0.0,0.0,0.0,0.0,0.0,0.0,0.0,0.0,-0.0734,0.0,0.0,0.0,0.0,0.0,0.0,0.0,0.0,0.0,0.0,0.0,0.0,0.0,0.0,0.0,0.0,0.0,0.0,0.0,0.0,0.0,0.0,0.0,0.0,0.0,0.0,0.0,0.0,0.0,0.0,0.0,0.0,0.0,0.0,0.0,0.0,0.0,0.0,0.0,0.0,-0.4602,-0.4163,-0.3673,-0.3071,-0.3003,-0.2924,-0.2712,-0.2696,-0.2829,-0.3138,-0.3513,0.0,0.0,0.0,0.0,0.0,0.0,0.0,0.0,0.0,0.0,0.0,0.0,0.0,0.0,0.0,0.0,0.0,0.0,0.0,0.0,0.0,0.0,0.0,0.0,0.0,0.0,0.0,0.0,0.0,0.0,0.0,0.0,0.0,0.0,0.0,0.0,0.0,0.0,0.0,0.0,0.0,0.0,0.0,0.0,0.0,0.0,0.0,0.0,0.0,0.0,0.0,0.0,0.0,-0.0589,-0.0526,-0.0337,-0.0344,-0.0346,-0.0419,-0.024,-0.0188,-0.0233,-0.0471,0.0,0.0,0.0,0.0,0.0,0.0,0.0,0.0,0.0,0.0,0.0,0.0,0.0,0.0,0.0,0.0,0.0,0.0,0.0,0.0,0.0,0.0,0.0,0.0,-0.0775,-0.0839,-0.1858,0.0,0.0,0.0,0.0,0.0,0.0,0.0,0.0,0.0,0.0,0.0,-0.4019,-0.3686,-0.331,-0.2788,-0.2713,-0.2696,-0.2696,-0.2696,-0.2696,-0.2696,-0.3171,-0.3397,0.0,0.0,0.0,0.0,0.0,0.0,0.0,0.0,0.0,0.0,0.0,0.0,0.0,0.0,0.0,0.0,0.0,0.0,0.0,0.0,0.0,0.0,0.0,0.0,0.0,0.0,0.0,0.0,0.0,0.0,0.0,0.0,0.2496,0.2953,0.0,0.0,0.0,0.0,0.0,0.0,0.0,0.0,0.0,0.0,0.0,0.0,0.0,0.007,-0.0037,-0.0079,-0.0123,-0.0082,-0.0084,-0.0084,-0.0041,-0.0041,-0.0041,-0.0081,-0.004,0.0,-0.0304,-0.0396,0.0,0.0,0.0,0.0,0.0,0.0,0.0,0.0,0.0,0.0,0.0,0.0,0.0,0.0,0.0,0.0,0.0,0.0,0.0,0.0,0.0,0.0,-0.0967,-0.0303,-0.0127,-0.0127,0.0,-0.1416,-0.2445,-0.2611,-0.2891,0.0,0.0,0.0,0.0,0.0,0.0,0.0,-0.4045,-0.3503,-0.3092,-0.2893,-0.2778,-0.2696,-0.2696,-0.2696,-0.2696,-0.2696,-0.2771,-0.286,-0.2957,-0.3538,0.0,0.0,0.0,0.0,0.0,0.0,0.0,0.0,0.0,0.0,0.0,0.0,0.0,0.0,0.0,0.0,0.0,0.0,0.0,0.0,0.0,0.0,0.0,0.0,0.0,0.0,0.0,0.0,0.0,0.2611,0.3309,0.3781,0.3929,0.3739,0.0,0.0,0.0,0.0,0.0,0.0,0.0,0.0,0.0,0.1281,0.0499,0.004,0.0,0.0,0.0,0.0,0.0,0.0,0.0,0.0,0.0,0.0,0.0,-0.0043,-0.0118,-0.0176,-0.0098,-0.0031,0.0,0.0,0.0,0.0,-0.0427,-0.041,-0.0435,-0.057,0.0,-0.0494,0.0,0.0,0.0,0.0,0.0,0.0,0.0,0.0,0.0,0.0,-0.0597,-0.0105,0.0,0.0,0.0,-0.0527,-0.1133,0.0,-0.1714,-0.2258,-0.3631,0.0,0.0,0.0,0.0,-0.4077,-0.3806,-0.3472,-0.3195,-0.3023,-0.2968,-0.293,-0.293,-0.2856,-0.2842,-0.2924,-0.2788,-0.2802,-0.3,-0.3337,-0.3647,0.0,0.0,0.0,0.0,0.0,0.0,0.0,0.0,0.0,0.0,0.0,0.0,0.0,0.0,0.0,0.0,0.0,0.0,0.0,0.0,0.0,0.0,0.0,0.0,0.0,0.0,0.0,0.0,0.3311,0.4021,0.4384,0.4667,0.456,0.0,0.0,0.0,0.0,0.0,0.0,0.2883,0.2519,0.239,0.2655,0.1261,0.0491,0.0494,0.0186,0.0,0.0,0.0,0.0,0.0,0.0,0.0,0.0,0.0,0.0,0.0,0.0,0.0,-0.0035,-0.0229,-0.0218,-0.0119,-0.0345,-0.0375,-0.0294,-0.0351,-0.0275,-0.016,-0.0152,-0.0211,-0.0361,-0.0665,0.0,0.0,0.0,0.0,-0.1245,-0.1156,-0.0705,-0.0251,-0.0054,0.0,0.0,0.0,0.0,-0.0133,0.0,-0.0675,-0.1143,-0.262,0.0,0.0,0.0,0.0,-0.382,-0.3629,-0.3488,-0.3327,-0.3172,-0.3125,-0.3101,-0.3101,-0.3003,-0.299,-0.3094,-0.2883,-0.2852,-0.3091,-0.3189,-0.343,-0.3808,0.0,0.0,0.0,0.0,0.0,0.0,0.0,0.0,0.0,0.0,0.0,0.0,0.0,0.0,0.0,0.0,0.0,0.0,0.0,0.0,0.0,0.0,0.0,0.0,0.0,0.0,0.0,0.0,0.0,0.4225,0.5499,0.0,0.0,0.0,0.0,0.4097,0.4191,0.4272,0.4218,0.4196,0.4078,0.3907,0.2595,0.1912,0.1896,0.0646,0.0,0.0,0.0,0.0,0.0,0.0,0.0,0.0,0.0,0.0,0.0,0.0,0.0,0.0,0.0,0.0,0.0,-0.0034,-0.0033,-0.0033,-0.0032,-0.0032,0.0,0.0,0.0,-0.0059,-0.034,-0.0791,0.0,0.0,-0.0977,-0.1078,-0.0489,-0.02,-0.0028,0.0,0.0,0.0,0.0,0.0,0.0,0.0,-0.0052,-0.0404,-0.1509,0.0,-0.2352,-0.3218,-0.3621,-0.3754,-0.3621,-0.3488,-0.3368,-0.3296,-0.3165,-0.3101,-0.3101,-0.3094,-0.3094,-0.3101,-0.2963,-0.2946,-0.3094,-0.3108,-0.3269,-0.3609,-0.4526,0.0,0.0,0.0,0.0,0.0,0.0,0.0,0.0,0.0,0.0,0.0,0.0,0.0,0.0,0.0,0.0,0.0,0.0,0.0,0.0,0.0,0.0,0.0,0.0,0.0,0.0,0.0,0.0,0.5207,0.597,0.0,0.5266,0.5017,0.4737,0.4308,0.4824,0.5233,0.5385,0.5213,0.5176,0.53,0.4009,0.331,0.3282,0.1956,0.131,0.126,0.0404,0.0,0.0,0.0,0.0452,0.1296,0.1287,0.131,0.127,0.1289,0.0785,0.0,0.0,0.0,0.0,0.0,0.0,0.0,0.0,0.0,0.0,0.0,0.0,-0.0029,-0.0113,-0.0278,-0.0415,-0.0283,-0.0336,-0.0387,-0.017,-0.0057,0.0,0.0,0.0,0.0,0.0,0.0,0.0,0.0,0.0,-0.0261,-0.1119,-0.1278,-0.1554,-0.2344,-0.2817,-0.3083,-0.3026,-0.3309,-0.3522,-0.3497,-0.3449,-0.3415,-0.3415,-0.3303,-0.329,-0.3412,-0.3181,-0.3158,-0.3405,-0.3341,-0.3389,-0.36,-0.3939,-0.3996,0.0,0.0,0.0,0.0,0.0,0.0,0.0,0.0,0.0,0.0,0.0,0.0,0.0,0.0,0.0,0.0,0.0,0.0,0.0,0.0,0.0,0.0,0.0,0.0,0.0,0.0,0.5802,0.5865,0.6557,0.6757,0.6084,0.5805,0.5605,0.5484,0.6055,0.6539,0.6829,0.6654,0.6662,0.6793,0.5473,0.4748,0.467,0.3366,0.2665,0.2665,0.1762,0.136,0.136,0.136,0.1812,0.2663,0.2697,0.2643,0.2614,0.2596,0.2044,0.1114,0.0336,0.0,0.0,0.0,0.0,0.0,0.0,0.0,0.0,0.0,0.0,0.0,0.0,0.0,0.0,0.0,0.0,0.0,0.0,0.0,0.0,0.0,0.0,0.0,0.0,0.0,0.0,0.0,0.0,-0.019,-0.073,-0.0929,-0.1181,-0.1751,-0.2263,-0.2598,-0.2593,-0.2895,-0.3092,-0.3092,-0.3024,-0.2993,-0.2993,-0.3062,-0.3147,-0.3281,-0.3238,-0.3326,-0.3593,-0.3505,-0.3543,-0.374,-0.3365,-0.3125,-0.3033,0.0,0.0,0.0,0.0,0.0,0.0,0.0,0.0,0.0,0.0,0.0,0.0,0.0,0.0,0.0,0.0,0.0,0.0,0.0,0.0,0.0,0.0,0.0,0.4652,0.5985,0.6732,0.615,0.7201,0.7722,0.7004,0.7373,0.7685,0.7821,0.7921,0.818,0.8465,0.8482,0.8418,0.8327,0.7018,0.6291,0.6079,0.4718,0.4066,0.4066,0.4016,0.4016,0.4016,0.4016,0.4016,0.4062,0.4042,0.3966,0.3838,0.3857,0.3777,0.3385,0.0963,0.0087,0.0086,0.0041,0.0,0.0,0.0,0.0,0.0,0.0,0.0,0.0,0.0,0.0,0.0,0.0,0.0,0.0,0.0,0.0,0.0,0.0,0.0,0.0,0.0,0.0,0.0,0.0,0.0,-0.0056,-0.0252,-0.0784,-0.1243,-0.1428,-0.196,0.0,-0.2343,-0.2199,-0.2098,-0.2101,-0.1927,-0.1792,-0.1818,-0.2345,-0.2678,-0.2679,-0.3101,-0.3398,-0.3534,-0.3534,-0.3672,-0.3959,-0.2864,-0.26,-0.3262,0.0,0.0,0.0,0.0,0.0,0.0,0.0,0.0,0.0,0.0,0.0,0.0,0.0,0.0,0.0,0.0,0.0,0.0,0.0,0.0,0.0,0.0,0.6163,0.6145,0.6876,0.7477,0.7626,0.8073,0.8279,0.8075,0.8167,0.8255,0.8296,0.8336,0.8394,0.8479,0.8482,0.8418,0.8327,0.7955,0.763,0.7437,0.6126,0.5475,0.5425,0.4468,0.4016,0.4016,0.4016,0.4518,0.5475,0.5447,0.5382,0.5261,0.5232,0.4608,0.343,0.1923,0.176,0.2278,0.0616,0.0,0.0,0.0,0.0,0.0,0.0,0.0,0.0,0.0,0.0,0.0,0.0,0.0,0.0,0.0,0.0,0.0,0.0,0.0,0.0,0.0,0.0,0.0,0.0,0.0,-0.0028,-0.0084,-0.0224,-0.0362,-0.0412,-0.093,0.0,-0.1313,-0.1639,-0.1929,-0.2086,-0.1925,-0.1848,-0.2002,-0.2046,-0.2052,-0.2057,-0.2164,-0.2253,-0.2299,-0.2299,-0.2604,-0.3265,-0.2355,-0.1998,0.0,0.0,0.0,0.0,0.0,0.0,0.0,0.0,0.0,0.0,0.0,0.0,0.0,0.0,0.0,0.0,0.0,0.0,0.0,0.0,0.0,0.0,0.644,0.7343,0.771,0.7958,0.823,0.8442,0.8526,0.8554,0.8489,0.8482,0.8509,0.8574,0.8577,0.8604,0.8669,0.8672,0.8608,0.8459,0.8391,0.8289,0.8136,0.7263,0.6833,0.6833,0.6024,0.567,0.567,0.567,0.6124,0.683,0.6776,0.6685,0.6543,0.6485,0.5928,0.0,0.0,0.0,0.0,0.0,0.0666,0.0594,0.0146,0.0,0.0,0.0,0.0,0.0,0.0,0.0,0.0,0.0,0.0,0.0,0.0,0.0,0.0,0.0,0.0,0.0087,0.0394,0.0227,0.0086,0.0393,0.0224,0.0,0.0,-0.0057,-0.0144,-0.0232,-0.0551,-0.0782,-0.0778,-0.0997,-0.1204,-0.1338,-0.1169,-0.1086,-0.122,-0.1337,0.0,0.0,0.0,-0.1832,-0.1877,-0.1946,0.0,0.0,0.0,-0.18,-0.1644,0.0,0.0,0.0,-0.3126,-0.3878,0.0,0.0,0.0,0.0,0.0,0.0,0.0,0.0,0.0,0.0,0.0,0.0,0.0,0.0,0.0,0.0,0.7127,0.8268,0.9106,0.9079,0.8933,0.8781,0.8747,0.8682,0.8547,0.8533,0.8587,0.8726,0.8737,0.8794,0.8875,0.0,0.0,0.0,0.0,0.8408,0.8245,0.8109,0.7988,0.7988,0.7988,0.7988,0.7988,0.7988,0.7988,0.7982,0.7879,0.7729,0.7587,0.7434,0.7282,0.6868,0.4791,0.3676,0.3208,0.2299,0.1783,0.146,0.051,0.0,0.0,0.0,0.0,0.0,0.0,0.0,0.0,0.0,0.0,0.0,0.0,0.0,0.0029,0.0114,0.0059,0.0213,0.0973,0.0608,0.0322,0.0962,0.0591,0.0141,0.014,-0.0086,-0.0329,-0.0505,-0.0541,-0.0546,-0.0527,-0.037,-0.0264,-0.0296,0.0,0.0,-0.0025,-0.0501,-0.081,-0.0793,-0.1304,-0.1661,-0.1781,-0.1896,-0.2042,-0.2204,-0.1974,-0.1617,-0.1154,-0.086,-0.0838,-0.1127,-0.1838,-0.2523,0.0,0.0,0.0,0.0,0.0,0.0,0.0,0.0,0.0,0.0,0.0,0.0,0.0,0.0,0.0,0.7311,0.8371,0.9215,0.9483,0.9391,0.9239,0.9142,0.8964,0.8828,0.8797,0.8797,0.8807,0.8838,0.8841,0.8851,0.8881,0.8885,0.8811,0.8533,0.8499,0.8353,0.8039,0.8005,0.7988,0.7988,0.0,0.0,0.7988,0.7988,0.7988,0.7982,0.7879,0.7729,0.7587,0.7434,0.7282,0.7027,0.6361,0.4934,0.3352,0.3895,0.3044,0.157,0.1355,0.0714,0.0,0.0,0.0,0.0,0.0,0.0,0.0,0.0,0.0,0.0,0.0,0.0,0.0182,0.0881,0.051,0.0246,0.1091,0.1155,0.1059,0.1083,0.1077,0.101,0.0899,0.0366,-0.0085,-0.0115,-0.0115,-0.0116,-0.0116,-0.0086,-0.0116,-0.0274,-0.0115,-0.0055,-0.0227,-0.019,-0.0179,-0.0166,-0.0285,-0.0358,-0.0381,-0.0405,-0.0448,-0.0483,-0.044,-0.0346,-0.025,-0.0185,-0.0477,-0.1098,-0.1266,-0.1723,0.0,0.0,0.0,0.0,0.0,0.0,0.0,0.0,0.0,0.0,0.0,0.5532,0.0,0.0,0.7726,0.7962,0.8837,0.9547,0.9693,0.952,0.9354,0.9333,0.9072,0.8885,0.8885,0.8885,0.8885,0.8885,0.8885,0.8885,0.8885,0.8885,0.8814,0.8716,0.856,0.8411,0.8262,0.8062,0.7988,0.7988,0.7988,0.7988,0.7988,0.7988,0.7988,0.7978,0.7801,0.7665,0.7584,0.735,0.721,0.7065,0.6814,0.5988,0.4958,0.4789,0.3695,0.2261,0.1787,0.0905,0.0,0.0,0.0,0.0,0.0,0.0,0.0,0.0,0.0322,0.0637,0.064,0.0985,0.1466,0.1907,0.1681,0.1562,0.2382,0.227,0.2087,0.2385,0.2164,0.1868,0.1809,0.1102,0.042,0.0056,0.0,0.0,0.0,0.0,-0.0028,-0.0147,-0.0057,-0.0028,-0.014,-0.0053,0.0,0.0,0.0,0.0,0.0,0.0,0.0,0.0,0.0,0.0,0.0,0.0,-0.0194,-0.0555,-0.0549,-0.0938,0.0,0.0,0.0,0.0,0.0,0.0,0.0,0.0,0.5952,0.6499,0.668,0.6784,0.7168,0.7989,0.8619,0.8472,0.9144,0.968,0.9768,0.9551,0.9361,0.9303,0.9083,0.8885,0.8885,0.8885,0.8885,0.8885,0.8885,0.8885,0.8885,0.8854,0.8824,0.8797,0.8584,0.8428,0.8397,0.8157,0.7988,0.7988,0.7988,0.7988,0.7988,0.7988,0.7988,0.7975,0.7729,0.7584,0.7536,0.721,0.7095,0.7068,0.6848,0.6725,0.6579,0.5447,0.4349,0.3281,0.249,0.1504,0.0601,0.0601,0.0592,0.0618,0.0597,0.0599,0.0559,0.0584,0.1084,0.1592,0.1616,0.2164,0.2729,0.2902,0.2838,0.2909,0.3663,0.3373,0.3111,0.3675,0.3234,0.2747,0.273,0.194,0.1062,0.0336,0.0084,0.0,0.0,0.0,0.0,0.0,0.0,0.0,0.0,0.0,0.0,0.0,0.0,0.0,0.0,0.0,0.0,0.0,0.0,0.0,0.0,0.0,0.0,0.0,0.0,-0.0324,0.3517,0.4154,0.4721,0.4971,0.5551,0.6163,0.0,0.0,0.7309,0.7746,0.7963,0.8184,0.843,0.8832,0.9174,0.9404,0.961,0.9758,0.9649,0.949,0.9283,0.8966,0.8902,0.8885,0.8885,0.8885,0.8885,0.8885,0.8885,0.8885,0.8885,0.8811,0.8672,0.8537,0.8377,0.8228,0.8042,0.8005,0.7988,0.7988,0.7988,0.7988,0.7988,0.7988,0.7988,0.7975,0.7729,0.7522,0.7383,0.721,0.7095,0.7082,0.6923,0.682,0.6664,0.6248,0.5428,0.4517,0.4405,0.3663,0.2749,0.2749,0.2743,0.2738,0.2748,0.2669,0.2594,0.2722,0.2644,0.2574,0.2692,0.2725,0.2909,0.3663,0.327,0.2939,0.3784,0.3921,0.383,0.3815,0.3711,0.3605,0.3504,0.2707,0.1813,0.109,0.042,0.0,0.0,0.0,0.0,0.0,0.0,0.0,0.0,0.0,0.0,0.0,0.0,0.0,0.0,0.0,0.0,0.0,0.0,0.0,0.0,0.0,0.0,0.0,0.0,-0.0053,0.4898,0.0,0.0,0.0,0.6498,0.6684,0.7292,0.7604,0.7811,0.8106,0.8435,0.8699,0.8821,0.9086,0.9327,0.0,0.9602,0.9646,0.9496,0.9344,0.9171,0.8908,0.8781,0.871,0.8798,0.8804,0.8842,0.8875,0.8885,0.8885,0.8885,0.8821,0.8774,0.8618,0.8472,0.8323,0.8174,0.8032,0.7988,0.7988,0.7988,0.7988,0.7988,0.7988,0.7941,0.7899,0.7777,0.7641,0.7492,0.7339,0.7275,0.7251,0.7021,0.6849,0.6797,0.6535,0.5694,0.4693,0.4693,0.4015,0.3083,0.3083,0.3088,0.3096,0.3106,0.306,0.2994,0.2982,0.3357,0.3741,0.3664,0.4012,0.4481,0.4837,0.4603,0.4386,0.4722,0.4821,0.4803,0.4748,0.4629,0.455,0.4492,0.365,0.2899,0.2613,0.1838,0.1284,0.1284,0.1284,0.1284,0.1284,0.1284,0.1284,0.1284,0.0883,0.0634,0.0643,0.0249,0.0,0.0,0.0,0.0,0.0,0.0,0.0,0.0,0.0,0.0,0.0,0.0,0.0,0.5818,0.0,0.0,0.7211,0.7348,0.735,0.7955,0.8157,0.8255,0.8377,0.8652,0.8821,0.8821,0.9052,0.9222,0.9306,0.9412,0.9445,0.9334,0.9188,0.9022,0.8835,0.8581,0.8469,0.8577,0.8625,0.871,0.8811,0.8821,0.8841,0.8881,0.8844,0.8804,0.8652,0.8503,0.8353,0.8208,0.8096,0.7988,0.7988,0.7988,0.7988,0.7988,0.7988,0.7931,0.7872,0.7828,0.7753,0.7645,0.7451,0.7415,0.7392,0.7088,0.692,0.6859,0.6678,0.6015,0.5252,0.5218,0.4681,0.4034,0.4009,0.3991,0.398,0.3978,0.3944,0.3874,0.3867,0.4345,0.4848,0.4742,0.5179,0.5647,0.5647,0.5569,0.5457,0.5457,0.5426,0.5395,0.5395,0.5237,0.5086,0.5049,0.4402,0.3885,0.3849,0.3257,0.2676,0.2259,0.2202,0.2202,0.2202,0.2202,0.2202,0.2202,0.1703,0.1396,0.1396,0.0895,0.0615,0.0615,0.042,0.0308,0.0308,0.0112,0.0,0.0,0.0,0.0,0.0,0.0,0.0,0.5745,0.0,0.6798,0.7446,0.8018,0.8516,0.8777,0.8854,0.8814,0.8726,0.871,0.8716,0.8716,0.8723,0.8825,0.9169,0.9221,0.9221,0.9217,0.9035,0.8832,0.853,0.8367,0.833,0.0,0.8408,0.8554,0.8706,0.8716,0.8781,0.8875,0.8798,0.8648,0.8492,0.835,0.8204,0.7998,0.7992,0.7988,0.7988,0.7988,0.7988,0.7988,0.7988,0.7988,0.7975,0.7875,0.7811,0.7784,0.7492,0.7415,0.7402,0.7197,0.7007,0.6883,0.6876,0.6775,0.6623,0.6475,0.6421,0.6394,0.6259,0.6212,0.6209,0.6212,0.6073,0.5945,0.6126,0.5996,0.5804,0.5905,0.5868,0.5793,0.5793,0.5688,0.5583,0.5583,0.5501,0.5395,0.5395,0.5237,0.5056,0.4918,0.4766,0.4611,0.449,0.4436,0.3901,0.2397,0.2202,0.2202,0.2202,0.2202,0.2202,0.2202,0.2174,0.2174,0.2174,0.2147,0.212,0.212,0.1452,0.1062,0.1062,0.0364,0.0,0.0,0.0,0.0,0.0,0.0,0.0,0.6465,0.0,0.7686,0.8299,0.871,0.9009,0.9055,0.9083,0.9011,0.876,0.8682,0.854,0.8338,0.8216,0.827,0.8536,0.865,0.8773,0.8967,0.8967,0.8825,0.852,0.8357,0.0,0.0,0.0,0.0,0.855,0.8652,0.8733,0.8784,0.8835,0.9118,0.9731,0.8897,0.8746,0.9316,0.8432,0.7988,0.7988,0.7988,0.7988,0.7988,0.7988,0.7988,0.7985,0.7934,0.7914,0.7897,0.7746,0.7607,0.7509,0.7353,0.72,0.7024,0.7024,0.6994,0.69,0.6593,0.6511,0.6491,0.6347,0.63,0.63,0.63,0.6262,0.6173,0.6122,0.6105,0.6095,0.6006,0.5952,0.5915,0.5915,0.5837,0.5705,0.561,0.5549,0.5518,0.5416,0.5351,0.5237,0.5052,0.4908,0.4755,0.4528,0.4491,0.4322,0.379,0.3735,0.3735,0.3735,0.3735,0.3735,0.3735,0.3234,0.2954,0.2982,0.2482,0.2202,0.2202,0.1952,0.184,0.184,0.1591,0.1452,0.1452,0.1452,0.1452,0.1452,0.1452,0.1202,0.7074,0.7763,0.8323,0.8923,0.9208,0.9317,0.9317,0.9289,0.9064,0.865,0.8471,0.8273,0.7896,0.7893,0.8003,0.8134,0.8311,0.8501,0.8703,0.873,0.8665,0.8574,0.8435,0.0,0.0,0.0,0.0,0.8397,0.8547,0.8652,0.8706,0.9341,0.9923,1.04,1.0132,1.0165,1.0685,0.9361,0.8482,0.7988,0.7988,0.7988,0.7988,0.7988,0.7988,0.7988,0.7988,0.7988,0.7978,0.7875,0.7729,0.7584,0.7431,0.7278,0.7095,0.7095,0.7095,0.7041,0.6692,0.6552,0.6522,0.6364,0.63,0.63,0.63,0.63,0.6279,0.6139,0.6183,0.6276,0.6139,0.6112,0.6112,0.6112,0.5996,0.5844,0.5698,0.5627,0.5545,0.5426,0.5395,0.5344,0.5127,0.4982,0.4816,0.4535,0.4539,0.4552,0.4498,0.4491,0.4491,0.4491,0.4491,0.4491,0.4491,0.4015,0.3735,0.379,0.3314,0.301,0.301,0.276,0.2591,0.2591,0.2343,0.2202,0.2202,0.2202,0.2202,0.2202,0.2202,0.1952,0.7516,0.8196,0.8679,0.9259,0.9507,0.9605,0.9591,0.9395,0.902,0.841,0.813,0.787,0.7467,0.7721,0.7933,0.7897,0.8083,0.8279,0.846,0.8384,0.8408,0.0,0.0,0.0,0.0,0.0,0.0,0.8432,0.0,0.8652,0.8807,1.0361,1.1039,1.0608,1.1878,1.2385,1.1999,1.073,0.946,0.8187,0.8187,0.8187,0.8088,0.8088,0.8088,0.8088,0.8038,0.8038,0.8077,0.7882,0.774,0.7597,0.7444,0.7288,0.7105,0.7098,0.7095,0.7055,0.681,0.6709,0.6654,0.6405,0.6306,0.6303,0.6313,0.631,0.63,0.63,0.6306,0.6313,0.6303,0.63,0.63,0.63,0.6149,0.5963,0.5844,0.5701,0.5555,0.5436,0.5392,0.5337,0.5123,0.4982,0.4816,0.4545,0.4627,0.4665,0.4508,0.4491,0.4491,0.4491,0.4491,0.4491,0.4491,0.4491,0.4491,0.4491,0.4491,0.4491,0.4491,0.3763,0.337,0.337,0.2676,0.2313,0.2313,0.2313,0.2313,0.2313,0.2313,0.2286,0.8295,0.9088,0.9384,0.9646,0.9659,0.9551,0.932,0.9088,0.8761,0.8179,0.7955,0.7754,0.752,0.7409,0.7488,0.7905,0.7981,0.0,0.8603,0.872,0.0,0.0,0.0,0.8608,0.8492,0.8448,0.0,0.0,1.0107,1.0209,1.0338,1.1859,1.2956,1.3432,1.2899,1.2833,1.3397,1.2091,1.1214,1.0921,1.0921,1.0386,0.9509,0.9509,0.9509,0.941,0.8432,0.8581,0.9406,0.8389,0.7892,0.7743,0.7597,0.7448,0.7299,0.7139,0.7095,0.7068,0.6889,0.6797,0.6668,0.6518,0.6385,0.6327,0.648,0.6419,0.63,0.63,0.6409,0.6491,0.6337,0.63,0.63,0.63,0.6269,0.6159,0.6006,0.5854,0.5705,0.5559,0.5345,0.5143,0.5106,0.4982,0.4853,0.466,0.4667,0.4665,0.4508,0.4491,0.4491,0.4491,0.4491,0.4491,0.4491,0.4491,0.4491,0.4491,0.4491,0.4491,0.4491,0.4294,0.4184,0.4184,0.4015,0.3901,0.3901,0.3901,0.3901,0.3901,0.3901,0.3594,0.8835,0.9473,0.9724,0.9802,0.9663,0.9378,0.8986,0.8663,0.8281,0.7647,0.7487,0.0,0.7025,0.7091,0.0,0.0,0.0,0.0,0.8463,0.8645,0.8757,0.0,0.8811,0.0,0.8693,0.92,0.9916,0.0,1.0817,1.1076,1.176,1.3352,1.4334,1.4513,1.4445,1.4246,1.3884,1.3151,1.2479,1.1896,1.1896,1.1512,1.0828,1.0828,1.0828,1.0779,0.0,1.0141,1.0779,1.0043,0.9644,0.9515,0.9415,0.9263,0.9013,0.8909,0.8773,0.8634,0.85,0.8275,0.7934,0.6869,0.6439,0.632,0.6436,0.6392,0.6354,0.6573,0.6583,0.6463,0.6439,0.6364,0.63,0.63,0.63,0.6255,0.6027,0.5925,0.5857,0.5711,0.5437,0.5233,0.5233,0.5165,0.5016,0.4731,0.4748,0.4711,0.4518,0.4491,0.4491,0.4491,0.4491,0.4491,0.4491,0.4491,0.4491,0.4491,0.4491,0.4491,0.4491,0.4491,0.4491,0.4491,0.4491,0.4491,0.4491,0.4491,0.4491,0.4491,0.4491,0.4267,0.9211,0.9656,0.9866,0.9808,0.9571,0.9207,0.8533,0.8193,0.7741,0.7032,0.0,0.7012,0.6596,0.6948,0.7239,0.7026,0.0,0.7964,0.8292,0.8421,0.8618,0.8851,0.9047,0.921,0.921,1.0421,1.1353,1.1633,1.1541,1.2018,1.323,1.4783,1.5397,1.4826,1.5945,1.5787,1.4172,1.4166,1.359,1.2431,1.2431,1.2334,1.2188,1.2188,1.2188,1.2139,1.1994,1.1994,1.2139,1.1945,1.1829,1.1742,1.1686,1.1421,1.1119,1.1052,1.0865,1.058,1.0468,1.0212,0.9639,0.7593,0.6668,0.6364,0.6405,0.6416,0.6485,0.6953,0.6746,0.6388,0.6528,0.6429,0.63,0.63,0.6412,0.6451,0.6273,0.6227,0.6131,0.5866,0.5731,0.5644,0.5593,0.5719,0.5628,0.5166,0.5169,0.5136,0.4888,0.4639,0.4491,0.4491,0.4491,0.4491,0.4491,0.4491,0.4491,0.4491,0.4491,0.4491,0.4491,0.4491,0.4491,0.4491,0.4491,0.4491,0.4491,0.4491,0.4491,0.4491,0.4491,0.4491,0.9383,0.9968,1.011,0.9737,0.9418,0.9019,0.8139,0.7841,0.0,0.0,0.7021,0.7335,0.7579,0.7491,0.0,0.7983,0.0,0.0,0.0,0.0,0.8737,0.0,0.0,0.0,0.0,0.0,0.0,0.0,0.0,1.4702,1.4969,1.6202,1.6642,1.6016,1.5961,1.5782,1.5486,1.5486,1.5343,1.5099,1.5099,1.4561,1.3536,1.3536,1.3536,1.3488,1.2382,0.0,1.3488,1.2382,1.1876,1.1854,1.1485,1.1339,1.1222,1.0852,1.0641,1.0605,1.0565,1.0446,1.016,0.9087,0.7781,0.6668,0.6912,0.6943,0.6964,0.7068,0.6892,0.6576,0.6405,0.6327,0.63,0.63,0.6945,0.7548,0.7477,0.7347,0.6967,0.5974,0.6427,0.6894,0.6682,0.7326,0.7734,0.7238,0.7019,0.6817,0.6662,0.5397,0.4491,0.4491,0.4491,0.4491,0.4491,0.4491,0.4491,0.4491,0.4491,0.4491,0.4491,0.4491,0.4491,0.4491,0.4491,0.4491,0.4491,0.4491,0.4491,0.4491,0.4491,0.4491,0.9087,0.9633,0.9988,0.9774,0.9653,0.9279,0.7987,0.0,0.0,0.0,0.6832,0.711,0.7212,0.0,0.0,0.0,0.0,0.0,0.0,0.0,0.0,0.0,0.0,0.0,0.0,0.0,0.0,0.0,0.0,1.6338,1.6338,1.6572,1.6616,1.6328,1.5985,1.5784,1.5784,1.5784,1.5784,1.5784,1.5784,1.5486,1.4902,1.4902,1.4902,1.4854,1.422,0.0,1.4848,1.4178,1.3856,1.3708,1.3507,1.3247,1.293,1.2721,1.2543,1.2431,1.2431,1.2259,1.2011,1.1813,0.9447,0.7208,0.9923,1.074,1.0567,0.9788,0.9376,0.9019,0.8365,0.8112,0.8017,0.788,0.8237,0.858,0.858,0.8449,0.8194,0.7725,0.7884,0.8023,0.7824,0.8127,0.8233,0.7777,0.7588,0.747,0.7319,0.6468,0.58,0.5618,0.5582,0.5582,0.5582,0.5582,0.5582,0.5582,0.5582,0.5582,0.5582,0.5582,0.5582,0.5582,0.5222,0.503,0.503,0.468,0.4491,0.4519,0.4866,0.4842,0.8947,0.9372,0.9886,0.9761,0.9876,0.9597,0.795,0.8026,0.0,0.0,0.6739,0.6982,0.681,0.0,0.0,0.0,0.0,0.0,0.0,0.0,0.0,0.0,0.0,0.0,0.0,0.0,0.0,0.0,0.0,0.0,1.7012,1.6576,1.6295,1.6179,1.5952,1.5784,1.5784,1.5784,1.5784,1.5784,1.5784,1.5784,1.5784,1.5784,1.5784,1.5784,1.5784,0.0,0.0,1.5758,1.5605,1.5391,1.5331,1.4983,1.4522,1.4522,1.4335,1.4088,1.4088,1.3935,1.3733,1.4008,1.1391,0.8885,1.289,1.4088,1.3779,1.2217,1.1674,1.1286,1.0347,0.992,0.9686,0.9651,0.9631,0.9631,0.9631,0.9522,0.9416,0.9336,0.9265,0.9172,0.9018,0.9069,0.8986,0.8498,0.8351,0.8262,0.8091,0.7824,0.7548,0.7301,0.6861,0.6588,0.6588,0.6588,0.6588,0.6588,0.6588,0.6588,0.6588,0.6588,0.6588,0.6588,0.6036,0.5733,0.5733,0.5195,0.4952,0.4956,0.5492,0.5464,0.9384,0.9883,1.0107,0.9561,0.971,0.9566,0.781,0.0,0.0,0.6689,0.695,0.744,0.7413,0.7549,0.7756,0.0,0.0,0.8836,0.0,0.0,0.0,0.0,0.0,0.0,0.0,0.0,0.0,0.0,0.0,0.0,1.6402,1.6348,1.6152,1.5879,1.5798,1.5784,1.5784,1.5784,1.5784,1.5784,1.5784,1.5784,1.5784,1.5784,1.5784,1.5784,1.5784,0.0,0.0,1.5545,1.5424,1.5371,1.511,1.4803,1.4522,1.4522,1.4335,1.4088,1.4088,1.4068,1.4048,1.4082,1.3553,1.3046,1.3836,1.4088,1.3779,1.2217,1.1674,1.138,1.0942,1.0281,0.9875,1.0509,1.0677,1.0677,1.0677,1.0654,1.0387,0.948,1.0002,1.0532,1.0263,1.0968,1.1375,1.0797,1.0489,1.0214,0.9895,0.9643,0.9453,0.9426,0.7722,0.6588,0.6588,0.6588,0.6588,0.6588,0.6588,0.6588,0.6588,0.6588,0.6588,0.6588,0.6534,0.6507,0.6507,0.6426,0.6399,0.6399,0.648,0.648,0.8667,0.9248,0.9977,1.0445,1.0396,0.9998,0.9009,0.0,0.8516,0.7103,0.7057,0.7317,0.7465,0.7622,0.7903,0.8566,0.8581,0.0,0.0,0.0,0.0,0.0,0.0,0.0,0.0,0.0,0.0,0.0,0.0,0.0,1.6012,1.6005,1.5952,1.5784,1.5784,1.5784,1.5784,1.5784,1.5784,1.5784,1.5784,1.5784,1.5784,1.5784,1.5784,1.5784,1.5784,0.0,0.0,1.5705,1.5451,1.5169,1.5055,1.472,1.4262,1.4262,1.4182,1.4088,1.4088,1.4088,1.4088,1.4088,1.3981,1.3881,1.4041,1.4088,1.3955,1.3343,1.3151,1.2962,1.2606,1.2175,1.1878,1.2163,1.2113,1.1986,1.1986,1.1852,1.1583,1.1174,1.1434,1.1605,1.1367,1.165,1.1705,1.1082,1.0895,1.0747,1.0452,1.0127,0.9947,0.9947,0.9048,0.8381,0.819,0.8172,0.8106,0.7922,0.791,0.791,0.791,0.791,0.791,0.791,0.7482,0.7262,0.7262,0.6804,0.6588,0.6615,0.7047,0.702,0.8108,0.8691,0.9522,1.0568,1.0503,1.0025,0.0,0.0,0.869,0.7323,0.7197,0.737,0.7442,0.7623,0.8012,0.8747,0.8734,0.9323,0.0,0.0,0.0,0.0,0.0,0.0,0.0,0.0,0.0,0.0,0.0,0.0,1.5791,1.5784,1.5784,1.5784,1.5784,1.5784,1.5784,1.5784,1.5784,1.5784,1.5784,1.5784,1.5784,1.5784,1.5784,1.5784,1.5784,0.0,0.0,1.5684,1.5464,1.5129,1.5042,1.47,1.4215,1.4215,1.4162,1.4088,1.4088,1.4088,1.4088,1.4088,1.4088,1.4088,1.4088,1.4088,1.4088,1.4088,1.4021,1.3908,1.366,1.3387,1.3213,1.3213,1.3012,1.2784,1.2784,1.2549,1.2305,1.2305,1.2305,1.2238,1.2067,1.196,1.1732,1.1196,1.1049,1.0889,1.0626,1.0381,1.0247,1.0247,1.0067,0.9753,0.9251,0.9211,0.9091,0.8824,0.8804,0.8804,0.8804,0.8804,0.8804,0.8804,0.8295,0.8023,0.8023,0.7503,0.7262,0.7262,0.7777,0.775,0.7995,0.8402,0.8732,0.9591,0.9678,0.9354,0.0,0.8854,0.8607,0.7183,0.7434,0.7764,0.7369,0.7637,0.8039,0.8528,0.8651,0.9321,0.0,0.0,0.0,0.0,0.0,0.0,0.0,0.0,0.0,0.0,0.0,0.0,1.5784,1.5784,1.5784,1.5784,1.5784,1.5784,1.5784,1.5784,1.5784,1.5784,1.5784,1.5784,1.5784,1.5784,1.5784,0.0,0.0,0.0,0.0,1.5518,1.5398,1.5364,1.5122,1.4776,1.4516,1.4516,1.4335,1.4088,1.4088,1.4088,1.4088,1.4088,1.4088,1.4088,1.4088,1.4088,1.4088,1.4088,1.3874,1.3606,1.36,1.3387,1.3213,1.3213,1.3012,1.2784,1.2784,1.2549,1.2305,1.2305,1.2305,1.2305,1.2298,1.2094,1.1799,1.147,1.1176,1.0889,1.0626,1.0586,1.0586,1.0586,1.0586,1.0224,0.9284,0.9211,0.9091,0.8824,0.8804,0.8804,0.8804,0.8804,0.8804,0.8804,0.8778,0.8778,0.8778,0.8785,0.8778,0.8778,0.8778,0.8778,0.7423,0.7857,0.8395,0.946,0.9394,0.9018,0.9085,0.8824,0.8292,0.7242,0.7461,0.7787,0.7594,0.795,0.8389,0.8805,0.8966,0.9455,0.0,0.0,0.0,0.0,0.0,0.0,0.0,0.0,0.0,0.0,0.0,0.0,1.5784,1.5784,1.5784,1.5784,1.5784,1.5784,1.5784,1.5784,1.5784,1.5784,1.5784,1.5784,1.5832,1.6716,1.6615,0.0,0.0,0.0,0.0,1.5732,1.5458,1.5135,1.5042,1.4663,1.4222,1.4222,1.4168,1.4088,1.4088,1.4088,1.4088,1.4088,1.4088,1.4088,1.4088,1.4088,1.4088,1.4088,1.4021,1.3948,1.3948,1.3881,1.3761,1.3513,1.328,1.3006,1.2831,1.2549,1.2305,1.2305,1.2305,1.2305,1.2305,1.2094,1.1806,1.1435,1.1182,1.0889,1.0626,1.0593,1.0593,1.0593,1.0593,1.0399,0.985,0.9659,0.9419,0.9091,0.8891,0.8804,0.8804,0.8804,0.8804,0.8804,0.8804,0.8804,0.8804,0.8804,0.8804,0.8804,0.8804,0.8804,0.0,0.73,0.7843,0.898,0.8781,0.0,0.0,0.8454,0.7898,0.7299,0.7535,0.7829,0.7854,0.8443,0.8964,0.9046,0.9451,0.0,0.0,0.0,0.0,0.0,0.0,0.0,0.0,0.0,0.0,0.0,0.0,0.0,1.5784,1.5784,1.6015,1.648,1.6527,1.6527,1.6527,1.6527,1.6756,1.7203,1.6756,1.6756,1.7203,1.7819,1.7666,0.0,0.0,0.0,0.0,1.5683,1.5291,1.4995,1.4843,1.4569,1.4242,1.4128,1.4088,1.4088,1.4088,1.4088,1.4088,1.4088,1.4088,1.4088,1.4088,1.4088,1.4088,1.4088,1.4088,1.4088,1.4088,1.4088,1.4015,1.3673,1.3387,1.3126,1.2851,1.2549,1.2409,1.2769,1.2842,1.2873,1.3107,1.2903,1.2618,1.2224,1.1945,1.1701,1.1536,1.1514,1.1514,1.1514,1.1514,1.1427,1.1199,1.052,1.008,1.0057,0.9505,0.9185,0.9185,0.8929,0.8804,0.8804,0.8804,0.8936,0.9185,0.9185,0.9035,0.8804,0.8804,0.8804,0.0,0.6777,0.0,0.0,0.0,0.0,0.8054,0.7862,0.0,0.7338,0.7652,0.7986,0.8073,0.9041,0.968,0.926,0.0,0.0,0.0,0.0,0.0,0.0,0.0,0.0,0.0,0.0,0.0,0.0,0.0,0.0,1.6055,1.6055,1.6615,1.7777,1.7917,1.7917,1.7824,1.7824,1.8411,1.9497,1.8365,1.8411,1.948,1.9117,1.8899,0.0,0.0,0.0,0.0,1.5679,1.5232,1.5164,1.4842,1.472,1.4665,1.4436,1.4321,1.4307,1.4321,1.4321,1.4307,1.4321,1.4334,1.4292,1.425,1.4166,1.4088,1.4088,1.4088,1.4088,1.4088,1.4166,1.4134,1.379,1.3574,1.3355,1.3074,1.2767,1.2769,1.3637,1.3795,1.3933,1.4401,1.4263,1.3901,1.3459,1.3178,1.3009,1.3009,1.3009,1.3009,1.3009,1.3009,1.3009,1.307,1.1688,1.1017,1.1504,1.0538,0.9944,0.9865,0.9304,0.8983,0.8936,0.8936,0.9237,0.9865,0.9865,0.9562,0.8936,0.8883,0.8883,0.6293,0.0,0.7023,0.7481,0.7813,0.7964,0.0,0.8005,0.8144,0.7445,0.0,0.0,0.8012,0.9137,0.0,0.0,0.0,0.0,0.0,0.0,0.0,0.0,0.0,0.0,0.0,0.0,0.0,0.0,0.0,1.7677,1.858,1.8626,1.8764,1.9093,1.9988,2.0034,1.9093,1.9085,1.9222,1.9497,1.9222,1.9222,1.9526,2.0007,1.9737,0.0,0.0,0.0,1.7834,1.7877,1.7592,1.7121,1.7043,1.6889,1.6637,1.6558,1.6354,1.6109,1.6432,1.6346,1.6125,1.644,1.6568,1.6404,1.5587,1.4734,1.4088,1.4088,1.4088,1.4088,1.4088,1.4692,1.5258,1.4977,1.5192,1.5416,1.5144,1.4795,1.4593,1.4807,1.4555,1.4338,1.4498,1.3991,1.354,1.3427,1.3178,1.3009,1.3009,1.3009,1.3009,1.3009,1.3009,1.3252,1.3885,1.2831,1.2041,1.1815,1.165,1.1255,1.0592,1.0747,1.0693,1.0346,1.0346,1.0415,1.0568,1.0568,1.0491,1.0312,0.9814,0.9562,0.6467,0.6723,0.6961,0.722,0.7533,0.7773,0.771,0.0,0.0,0.0,0.0,0.0,0.0,0.0,0.0,0.0,0.0,0.0,0.0,0.0,0.0,0.0,0.0,0.0,0.0,0.0,0.0,0.0,0.0,1.8818,1.9451,1.9497,1.9761,2.0305,2.098,2.098,2.035,2.035,2.0621,2.1132,2.0576,2.0629,2.1159,2.121,2.0857,0.0,0.0,0.0,1.8522,1.8262,1.7894,1.7557,1.7557,1.7475,1.7277,1.7104,1.7022,1.6997,1.703,1.7022,1.7022,1.7236,1.7302,1.7172,1.6601,1.6034,1.547,1.4977,1.5186,1.5553,1.5553,1.5878,1.6147,1.6039,1.5984,1.5893,1.5806,1.5483,1.534,1.5755,1.5627,1.554,1.5781,1.5507,1.5158,1.4948,1.4774,1.4639,1.445,1.4423,1.4351,1.4112,1.4085,1.4273,1.4717,1.4229,1.3688,1.3255,1.2819,1.2347,1.1869,1.1641,1.1289,1.0821,1.1091,1.1116,1.0788,1.1116,1.1091,1.0788,1.044,1.0261,0.6742,0.6932,0.7079,0.7454,0.7507,0.7607,0.8052,0.0,0.0,0.0,0.0,0.0,0.0,0.0,0.0,0.0,0.0,0.0,0.0,0.0,0.0,0.0,0.0,0.0,0.0,0.0,0.0,0.0,0.0,1.9861,2.0034,2.0042,2.0504,2.1433,2.1478,2.145,2.1386,2.1514,2.2047,2.3003,2.1982,2.1998,2.2877,2.2139,2.1787,2.1697,0.0,0.0,1.9164,1.825,1.7878,1.7779,1.7779,1.7745,1.766,1.7389,1.7389,1.7434,1.7113,1.7282,1.7694,1.7694,1.7694,1.7662,1.7609,1.7616,1.7502,1.6495,1.6723,1.7302,1.7302,1.7133,1.6985,1.7192,1.664,1.6111,1.628,1.5956,1.5869,1.668,1.6764,1.6865,1.7309,1.7334,1.7158,1.6755,1.6697,1.6541,1.6153,1.6095,1.5928,1.5459,1.541,1.541,1.541,1.541,1.5254,1.4902,1.3997,1.3406,1.3351,1.2351,1.161,1.1209,1.1701,1.1699,1.1124,1.1699,1.1674,1.1124,1.1015,1.0939,0.6734,0.711,0.7614,0.8446,0.8536,0.856,0.9119,0.0,0.0,0.0,0.0,0.0,0.0,0.0,0.0,0.0,0.0,0.0,0.0,0.0,0.0,0.0,0.0,0.0,0.0,0.0,0.0,0.0,0.0,2.148,2.2501,2.2545,2.248,2.2298,2.2341,2.2167,2.182,2.2462,2.2732,2.2607,2.2384,2.2242,2.206,2.1522,2.1298,2.1288,0.0,2.0671,2.0352,2.052,2.0413,2.0079,2.0079,1.986,1.9535,1.9869,1.9307,1.8404,1.8337,1.8822,1.9497,1.9497,1.9497,1.9411,1.8897,1.9114,1.9382,1.8699,1.7908,1.7302,1.7302,1.7666,1.8163,1.858,1.8415,1.8249,1.8657,1.8123,1.7613,1.7759,1.7514,1.7286,1.7393,1.708,1.6775,1.6716,1.6697,1.6541,1.6153,1.6095,1.5928,1.5459,1.541,1.541,1.541,1.541,1.5381,1.5322,1.5129,1.4878,1.4558,1.3679,1.3151,1.3084,1.2849,1.2666,1.2569,1.2666,1.2666,1.2569,1.1931,1.1641,0.6737,0.7234,0.7937,0.888,0.894,0.9023,1.0037,1.0167,0.0,0.0,0.0,0.0,0.0,0.0,0.0,0.0,0.0,0.0,0.0,0.0,0.0,0.0,0.0,0.0,0.0,0.0,0.0,0.0,0.0,0.0,2.2418,2.2461,2.2373,2.2178,2.2178,2.208,2.1885,2.2266,2.2363,2.2178,2.2178,2.207,2.1865,2.1395,2.119,2.1181,0.0,2.0752,2.0615,2.0791,2.0752,2.0605,2.0605,2.0303,1.9912,1.9883,1.9502,1.8984,1.8984,1.9394,1.9873,1.9648,1.9883,2.0177,1.963,1.9841,2.0226,1.9944,1.9481,1.9067,1.9067,1.9127,1.9221,1.9457,1.9027,1.8656,1.8896,1.8447,1.8008,1.8008,1.7852,1.7715,1.7715,1.7559,1.7389,1.7389,1.7389,1.7187,1.6514,1.6426,1.6162,1.5459,1.541,1.541,1.541,1.541,1.541,1.541,1.541,1.5225,1.4833,1.4404,1.3975,1.3516,1.332,1.3105,1.2905,1.2905,1.2905,1.2881,1.2559,1.2393,0.6792,0.7421,0.8172,0.9079,0.0,0.9271,1.0799,1.1232,0.0,0.0,0.0,0.0,0.0,0.0,0.0,0.0,0.0,0.0,0.0,0.0,0.0,0.0,0.0,0.0,0.0,0.0,0.0,0.0,0.0,0.0,2.1885,2.1885,2.1836,2.1738,2.1738,2.168,2.1623,2.1623,2.1631,2.1738,2.1738,2.168,2.1562,2.1123,2.0888,2.0859,2.0459,2.0302,2.0312,2.041,2.039,2.0312,2.041,2.0215,1.9844,1.9219,1.9111,1.9277,1.917,1.9414,1.9727,1.9512,1.9873,2.041,2.0137,2.0225,2.0478,2.0576,2.0605,2.0605,2.0605,2.0244,1.9941,2.0049,1.9299,1.8627,1.8734,1.8379,1.8008,1.8008,1.8008,1.8076,1.8269,1.8144,1.8076,1.8269,1.8144,1.7705,1.6814,1.6697,1.6427,1.5732,1.5671,1.5719,1.5911,1.5911,1.5911,1.5911,1.5748,1.5608,1.5454,1.5077,1.4576,1.3909,1.3675,1.3407,1.3104,1.3203,1.3253,1.3253,1.3253,1.3253,0.6984,0.7653,0.837,0.9105,0.9045,0.9327,1.1372,1.2249,0.0,1.3628,0.0,0.0,0.0,0.0,0.0,0.0,0.0,0.0,0.0,0.0,0.0,0.0,0.0,0.0,0.0,0.0,0.0,0.0,0.0,0.0,2.1885,2.1885,2.1699,2.1249,2.1239,2.1084,2.0703,2.0703,2.0869,2.1239,2.1239,2.1064,2.0683,2.0205,1.9972,1.998,1.9561,1.9375,1.9404,1.9805,1.9736,1.9424,1.9805,1.9941,1.9766,1.8555,1.8603,1.9228,1.8792,1.8965,1.9394,1.9756,1.9912,2.0029,2.0449,2.0254,2.0049,2.0488,2.0605,2.0605,2.0605,2.0244,2.0019,2.0458,1.9551,1.8715,1.915,1.8594,1.8008,1.8008,1.8008,1.8269,1.9077,1.8529,1.8269,1.9077,1.8529,1.7705,1.6814,1.6697,1.6634,1.6444,1.6436,1.6708,1.7385,1.744,1.744,1.744,1.6782,1.6715,1.7357,1.5956,1.5153,1.508,1.4227,1.3763,1.3732,1.4101,1.4299,1.4299,1.4299,1.4299,0.6865,0.7714,0.8527,0.8786,0.9397,0.0,0.0,1.333,1.4405,1.5377,1.6723,0.0,0.0,0.0,0.0,0.0,0.0,0.0,0.0,0.0,0.0,0.0,0.0,0.0,0.0,0.0,0.0,0.0,0.0,0.0,2.1104,2.1104,2.0869,2.043,2.0674,2.0478,1.9813,2.0029,2.0117,2.0029,2.0283,2.0322,2.0146,1.9717,1.9531,1.9512,1.9355,1.9434,1.9668,1.957,1.9746,2.0077,1.9668,1.9687,1.9756,1.8486,1.8379,1.8822,1.8656,1.8926,1.9316,1.9473,1.9883,2.0282,1.9883,2.0067,2.0303,2.0195,2.0156,2.0225,2.0537,2.0478,2.0293,2.0185,1.959,1.9014,1.8906,1.8428,1.8168,1.8687,1.8821,1.9077,1.9944,1.9857,1.9716,2.0074,1.9814,1.9286,1.8316,1.8189,1.7916,1.7244,1.7191,1.7302,1.7578,1.7605,1.7797,1.8259,1.7578,1.7302,1.7578,1.702,1.6583,1.6313,1.5961,1.5681,1.5408,1.556,1.5623,1.5623,1.5623,1.5623,0.6789,0.771,0.8592,0.0,0.0,0.0,1.2475,1.3884,1.536,1.6881,1.8239,0.0,0.0,0.0,0.0,0.0,0.0,0.0,0.0,0.0,0.0,0.0,0.0,0.0,0.0,0.0,0.0,0.0,0.0,0.0,0.0,2.0204,2.0019,1.9727,2.0,1.992,1.9297,1.9855,1.9992,1.9713,2.0107,2.0112,1.9707,1.9277,1.9216,1.9483,1.9353,1.9596,2.0099,1.966,1.967,1.9883,1.916,1.9141,1.9385,1.8379,1.8237,1.8598,1.8598,1.913,1.9785,1.9703,2.0414,2.1142,2.0349,2.0553,2.0934,2.0618,2.0527,2.0608,2.0914,2.0601,2.0126,1.9785,1.9604,1.9413,1.9069,1.8899,1.9011,1.9595,1.9726,1.9977,2.0846,2.0782,2.0687,2.0974,2.0782,2.0288,1.9448,1.9201,1.8789,1.8036,1.8151,1.8274,1.8274,1.8274,1.8501,1.9018,1.8581,1.8274,1.8274,1.7936,1.7626,1.7335,1.7174,1.6959,1.6675,1.68,1.688,1.688,1.688,1.688,0.6803,0.7689,0.0,0.0,0.0,0.0,1.226,1.38,1.5683,1.8016,0.0,0.0,0.0,0.0,0.0,0.0,0.0,0.0,0.0,0.0,0.0,0.0,0.0,0.0,0.0,0.0,0.0,0.0,0.0,0.0,0.0,1.9287,1.9287,1.9314,1.9323,1.9314,1.9314,2.0186,2.0592,2.0617,2.0992,2.0546,1.9304,1.8828,1.9103,1.987,1.9498,1.9792,2.0571,2.0119,1.9406,1.8594,1.8184,1.8271,1.8584,1.8164,1.8271,1.8633,1.8633,1.9571,2.0779,2.0638,2.1549,2.2579,2.2054,2.1909,2.1909,2.1909,2.1909,2.1909,2.1909,2.0592,1.9314,1.9323,1.9636,1.9902,1.9902,2.027,2.059,2.0623,2.0623,2.0878,2.1753,2.1207,2.091,2.1784,2.1175,2.0443,1.9969,1.9444,1.901,1.8753,1.9371,1.9798,1.9798,1.9798,1.9798,1.9798,1.9798,1.9798,1.9798,1.8714,1.8118,1.8118,1.7578,1.7315,1.7315,1.7729,1.7916,1.7916,1.7916,1.7916,0.7232,0.8097,0.0,0.0,0.0,0.0,0.0,1.4686,0.0,0.0,0.0,0.0,0.0,0.0,0.0,0.0,0.0,0.0,0.0,0.0,0.0,0.0,0.0,0.0,0.0,0.0,0.0,0.0,0.0,0.0,0.0,1.9287,1.9419,1.9715,2.0057,2.0219,2.0211,2.076,2.0884,2.0588,2.0708,2.0732,2.0606,2.0201,2.015,2.0402,2.027,2.0521,2.1029,2.1215,2.0942,2.0425,2.0285,2.0318,2.0382,1.9986,1.99,2.0039,2.0328,2.0702,2.1114,2.1419,2.1801,2.2043,2.1576,2.1642,2.1842,2.1486,2.1397,2.1397,2.1397,2.0807,2.0373,2.096,2.0962,2.0807,2.0807,2.0698,2.0782,2.1396,2.1522,2.1784,2.2598,2.2537,2.2433,2.2689,2.2537,2.2177,2.1642,2.0779,2.0196,2.0106,1.9906,1.9798,1.9798,1.9798,1.9798,1.9798,1.9798,1.9798,1.9798,1.9482,1.9292,1.9292,1.9143,1.9057,1.9057,1.918,1.9241,1.9241,1.9241,1.9241,0.7317,0.0,0.0,0.0,0.0,0.0,0.0,0.0,0.0,0.0,0.0,0.0,0.0,0.0,0.0,0.0,0.0,0.0,0.0,0.0,0.0,0.0,0.0,0.0,0.0,0.0,0.0,0.0,0.0,0.0,0.0,1.8688,1.9046,1.9822,2.009,2.0226,2.0225,2.0835,2.0891,2.0442,2.1008,2.1284,2.1296,2.0833,2.0782,2.1132,2.1447,2.1559,2.1506,2.1783,2.1528,2.0951,2.0951,2.0951,2.0917,2.0691,2.059,2.0624,2.0894,2.1315,2.1793,2.1874,2.2278,2.2657,2.2119,2.2145,2.2332,2.2016,2.1955,2.1955,2.1955,2.1764,2.1568,2.1429,2.1438,2.1483,2.1483,2.1542,2.1741,2.2279,2.2384,2.2537,2.3005,2.3108,2.3108,2.3108,2.3108,2.2907,2.2355,2.1732,2.1182,2.0742,2.0377,2.0049,1.9823,1.9798,1.9798,1.9798,2.0055,2.0207,2.0207,1.9952,1.9798,1.9798,1.9798,1.9798,1.9798,1.9798,1.9798,1.9798,1.9798,1.9798,0.7218,0.0,0.0,0.0,0.0,0.0,0.0,0.0,0.0,0.0,0.0,0.0,0.0,0.0,0.0,0.0,0.0,0.0,0.0,0.0,0.0,0.0,0.0,0.0,0.0,0.0,0.0,0.0,0.0,0.0,0.0,1.7913,1.8503,1.9803,1.9773,1.9792,1.9854,2.0656,2.0789,2.0325,2.1626,2.197,2.149,2.1042,2.1235,2.1973,2.2719,2.2591,2.1858,2.1858,2.1413,2.0678,2.0678,2.0701,2.0746,2.0746,2.0801,2.0814,2.0814,2.1667,2.2679,2.2169,2.2892,2.3828,2.3258,2.3108,2.3108,2.3108,2.3108,2.3108,2.3108,2.3108,2.272,2.1195,2.1428,2.2002,2.2002,2.2567,2.3108,2.3108,2.3108,2.3108,2.3108,2.3108,2.3108,2.3108,2.3108,2.2907,2.2355,2.2272,2.1832,2.0805,2.0641,2.0402,1.9849,1.9798,1.9824,1.9901,2.0446,2.082,2.0894,2.0295,1.9952,1.9901,1.9901,1.9901,1.9901,1.9901,1.9901,1.9901,1.9952,1.994,0.7928,0.8504,0.0,0.0,0.0,0.0,0.0,0.0,0.0,0.0,0.0,0.0,0.0,0.0,0.0,0.0,0.0,0.0,0.0,0.0,0.0,0.0,0.0,0.0,0.0,0.0,0.0,0.0,0.0,0.0,1.8652,1.8652,1.9115,2.01,2.01,2.0421,2.1121,2.1304,2.1328,2.1216,2.1522,2.1606,2.1518,2.2226,2.2425,2.2208,2.2397,2.2118,2.1576,2.1576,2.149,2.1305,2.1305,2.1562,2.193,2.193,2.22,2.2567,2.2567,2.2763,2.3002,2.2891,2.3062,2.3271,2.3145,2.3108,2.3108,2.3108,2.3108,2.3108,2.3108,2.3108,2.3017,2.2659,2.2689,2.2854,2.2854,2.2975,2.3108,2.3108,2.3108,2.3108,2.3108,2.3108,2.3108,2.3108,2.3108,2.2907,2.2355,2.1933,2.1405,2.0767,2.0289,1.9936,1.9811,1.9798,2.0029,2.0547,2.0721,2.1004,2.1496,2.1376,2.1075,2.0597,2.0572,2.0572,2.0572,2.0572,2.0572,2.0597,2.1075,2.1051,0.0,0.0,0.0,0.0,0.0,0.0,0.0,0.0,0.0,0.0,0.0,0.0,0.0,0.0,0.0,0.0,0.0,0.0,0.0,0.0,0.0,0.0,0.0,0.0,0.0,0.0,0.0,0.0,0.0,1.8412,1.8794,1.8811,1.9305,2.0406,2.0446,2.0517,2.0677,2.0981,2.0828,2.0313,2.0867,2.1257,2.1506,2.2083,2.2184,2.192,2.192,2.1757,2.1493,2.1493,2.1493,2.1546,2.1782,2.2058,2.2347,2.2581,2.2857,2.3108,2.3108,2.3108,2.3108,2.3108,2.3108,2.3108,2.3108,2.3108,2.3108,2.3108,2.3108,2.3108,2.3108,2.3108,2.3108,2.3108,2.3108,2.3032,2.2769,2.2706,2.2631,2.2397,2.2531,2.2706,2.2706,2.2932,2.3108,2.3108,2.3108,2.3144,2.3251,2.2452,2.1797,2.1622,2.1055,2.0566,2.0296,2.0546,2.0855,2.121,2.1524,2.1856,2.217,2.2469,2.2179,2.1245,2.1221,2.1221,2.1221,2.1221,2.1221,2.1245,2.1544,2.152,0.0,0.0,0.0,0.0,0.0,0.0,0.0,0.0,0.0,0.0,0.0,0.0,0.0,0.0,0.0,0.0,0.0,0.0,0.0,0.0,0.0,0.0,0.0,0.0,0.0,0.0,0.0,0.0,0.0,1.8213,1.8728,1.8838,1.9383,2.0501,2.0541,2.0264,1.9673,2.0163,1.9924,1.9008,2.0037,2.0779,2.1192,2.1192,2.1255,2.1343,2.1343,2.1292,2.1192,2.1192,2.1192,2.1242,2.1707,2.1995,2.2209,2.2543,2.2857,2.3083,2.2895,2.2945,2.3083,2.2995,2.3032,2.3108,2.3108,2.3108,2.3108,2.3108,2.3108,2.3108,2.3108,2.3108,2.3108,2.3108,2.3032,2.2844,2.241,2.2309,2.2146,2.1594,2.2046,2.2553,2.2799,2.3195,2.3501,2.3501,2.3501,2.366,2.4129,2.3199,2.2502,2.2445,2.194,2.1437,2.0995,2.14,2.1758,2.1875,2.2392,2.2754,2.2852,2.3319,2.3106,2.2049,2.1922,2.1875,2.1875,2.1875,2.1875,2.1875,2.1993,2.1955,0.0,0.0,0.0,0.0,0.0,0.0,0.0,0.0,0.0,0.0,0.0,0.0,0.0,0.0,0.0,0.0,0.0,0.0,0.0,0.0,0.0,0.0,0.0,0.0,0.0,0.0,0.0,0.0,1.8982,1.9367,1.8971,1.9394,1.9733,1.9911,1.9911,1.966,1.9108,1.9183,1.9146,1.9008,1.9635,1.9962,2.0024,2.0024,2.03,2.0805,2.0805,2.0515,2.0024,2.0024,2.0024,2.0037,2.0112,2.074,2.1543,2.1169,2.1895,2.297,2.2046,2.2305,2.302,2.2543,2.2719,2.3108,2.3108,2.3108,2.3108,2.3108,2.3108,2.3108,2.3108,2.3108,2.3108,2.3108,2.2744,2.2397,2.2334,2.2309,2.2146,2.1594,2.2431,2.3637,2.4789,2.5065,2.5091,2.5091,2.5091,2.4737,2.3818,2.3534,2.3002,2.1924,2.1732,2.165,2.1592,2.1649,2.1946,2.2521,2.2649,2.292,2.3465,2.3551,2.353,2.3363,2.2838,2.2581,2.2581,2.2581,2.2581,2.2581,2.3106,2.3061,0.8684,0.0,0.0,0.0,0.0,0.0,0.0,0.0,0.0,0.0,0.0,0.0,0.0,0.0,0.0,0.0,0.0,0.0,0.0,0.0,0.0,0.0,0.0,0.0,0.0,0.0,0.0,0.0,1.8643,1.8945,1.8995,1.9221,1.9346,1.9346,1.9346,1.8933,1.8116,1.8405,1.8544,1.8544,1.8794,1.8907,1.892,1.9196,1.966,2.0214,2.0214,2.0037,1.9798,1.9798,1.9798,1.9836,2.0189,2.0616,2.1069,2.1131,2.1594,2.2146,2.1656,2.1807,2.2221,2.2284,2.2443,2.2783,2.353,2.3767,2.3767,2.3767,2.3799,2.3815,2.3764,2.3232,2.2995,2.4107,2.3354,2.248,2.292,2.2425,2.2054,2.2578,2.3393,2.43,2.5232,2.5398,2.5398,2.5398,2.5067,2.4814,2.4676,2.3721,2.2981,2.2833,2.2475,2.2253,2.2253,2.256,2.2891,2.3201,2.3187,2.3334,2.3595,2.3595,2.3595,2.3595,2.3334,2.3187,2.3187,2.3187,2.3187,2.3209,2.3486,2.3465,0.0,0.0,0.0,0.0,0.0,0.0,0.0,0.0,0.0,0.0,0.0,0.0,0.0,0.0,0.0,0.0,0.0,0.0,0.0,0.0,0.0,0.0,0.0,0.0,0.0,0.0,0.0,0.0,1.8041,1.8329,1.8569,1.8719,1.8795,1.8795,1.8795,1.8355,1.741,1.779,1.8061,1.8187,1.834,1.8474,1.8613,1.9014,1.9411,1.9809,1.98,1.9798,1.9798,1.9798,1.9798,1.9849,2.0302,2.0566,2.0756,2.117,2.1477,2.1708,2.1592,2.1736,2.2032,2.2302,2.2585,2.3008,2.4036,2.4446,2.4567,2.4567,2.4625,2.46,2.4387,2.3617,2.3232,2.4586,2.3635,2.2616,2.3226,2.2442,2.2074,2.359,2.4245,2.4843,2.5805,2.5973,2.5889,2.5734,2.527,2.5029,2.5235,2.4026,2.325,2.3624,2.3233,2.2934,2.2934,2.3334,2.3595,2.3595,2.3595,2.3595,2.3595,2.3595,2.3595,2.3595,2.373,2.3794,2.3794,2.3659,2.3681,2.3794,2.3659,2.3595,0.0,0.0,0.0,0.0,0.0,0.0,0.0,0.0,0.0,0.0,0.0,0.0,0.0,0.0,0.0,0.0,0.0,0.0,0.0,0.0,0.0,0.0,0.0,0.0,0.0,0.0,0.0,0.0,1.7601,1.799,1.7524,1.7965,1.8242,1.8242,1.8242,1.7965,1.741,1.7436,1.7705,1.821,1.8717,1.9216,1.9715,1.9743,1.977,1.9799,1.9807,1.9798,1.9798,1.9798,1.9798,1.9798,1.9836,2.0214,2.0709,2.0783,2.1484,2.2286,2.1841,2.2394,2.3233,2.275,2.3365,2.4298,2.4379,2.4833,2.5342,2.5342,2.5356,2.5191,2.4557,2.4352,2.4173,2.3638,2.3034,2.2592,2.2655,2.2145,2.2279,2.4263,2.4683,2.5276,2.7159,2.7484,2.7275,2.6624,2.6504,2.6027,2.4805,2.4559,2.4261,2.3671,2.3566,2.3551,2.3551,2.3573,2.3595,2.3595,2.3595,2.3595,2.3595,2.3595,2.3595,2.3595,2.4095,2.4348,2.4348,2.3858,2.3858,2.4348,2.3837,2.3595,0.0,0.0,0.0,0.0,0.0,0.0,0.0,0.0,0.0,0.0,0.0,0.0,0.0,0.0,0.0,0.0,0.0,0.0,0.0,0.0,0.0,0.0,0.0,0.0,0.0,0.0,0.0,0.0,0.0,1.72,1.7398,1.7564,1.7677,1.7677,1.7677,1.7568,1.7337,1.7337,1.7621,1.8147,1.833,1.8508,1.8707,1.9064,1.9208,1.9242,1.9615,1.9791,1.9791,1.9791,2.005,2.0444,2.0444,2.0815,2.1332,2.1375,2.1624,2.1936,2.1753,2.1963,2.2352,2.2545,2.319,2.4028,2.4874,2.5272,2.5471,2.5471,2.5185,2.4833,2.4529,2.389,2.3263,2.3012,2.377,2.4412,2.3981,2.3714,2.3768,2.4499,2.4982,2.5497,2.6204,2.6318,2.6228,2.5989,2.56,2.5128,2.4664,2.4216,2.3879,2.3625,2.3595,2.3595,2.3595,2.3921,2.3985,2.3616,2.4246,2.4471,2.4137,2.445,2.4632,2.4632,2.4831,2.4736,2.441,2.4552,2.4732,2.491,2.4732,2.4378,0.0,0.0,0.0,0.0,0.0,0.0,0.0,0.0,0.0,0.0,0.0,0.0,0.0,0.0,0.0,0.0,0.0,0.0,0.0,0.0,0.0,0.0,0.0,0.0,0.0,0.0,0.0,0.0,0.0,0.0,1.7074,1.7087,1.7175,1.7361,1.7544,1.7615,1.7578,1.7565,1.7847,1.838,1.838,1.8458,1.8645,1.9018,1.9163,1.9191,1.9589,1.9782,1.9803,1.9803,2.0204,2.0809,2.0809,2.1176,2.1734,2.1946,2.2053,2.2077,2.2271,2.234,2.2411,2.2805,2.3386,2.4095,2.494,2.5354,2.5539,2.5539,2.5245,2.4886,2.4595,2.3766,2.3009,2.3009,2.3977,2.4822,2.435,2.444,2.4664,2.4889,2.5292,2.5674,2.5899,2.5944,2.5869,2.5621,2.5023,2.453,2.4291,2.3879,2.3659,2.3858,2.3879,2.3927,2.4116,2.4471,2.4532,2.4158,2.4812,2.5047,2.4677,2.5012,2.5202,2.5202,2.5373,2.5297,2.495,2.5125,2.5297,2.5449,2.5278,2.4686,0.0,0.0,0.0,0.0,0.0,0.0,0.0,0.0,0.0,0.0,0.0,0.0,0.0,0.0,0.0,0.0,0.0,0.0,0.0,0.0,0.0,0.0,0.0,0.0,0.0,0.0,0.0,0.0,1.6522,1.6522,1.6522,1.6531,1.6795,1.7312,1.7827,1.8125,1.8125,1.8125,1.84,1.893,1.893,1.9207,1.9708,1.9708,1.9708,1.9708,1.9708,1.9749,1.9814,1.9814,2.018,2.0799,2.0799,2.1181,2.1801,2.2469,2.2703,2.2807,2.3399,2.3595,2.3595,2.3595,2.4036,2.4605,2.4634,2.5068,2.5561,2.5576,2.5561,2.5382,2.4739,2.4081,2.3595,2.3595,2.361,2.3625,2.3625,2.4156,2.4814,2.5442,2.56,2.5809,2.6452,2.6542,2.6318,2.5674,2.4993,2.4335,2.3706,2.3616,2.3837,2.4369,2.443,2.4617,2.5163,2.5221,2.5221,2.5202,2.524,2.524,2.5221,2.524,2.524,2.524,2.5744,2.6031,2.6031,2.5503,2.5505,2.6013,2.547,2.4486,0.9113,0.0,0.0,0.0,0.0,0.0,0.0,0.0,0.0,0.0,0.0,0.0,0.0,0.0,0.0,0.0,0.0,0.0,0.0,0.0,0.0,0.0,0.0,0.0,0.0,0.0,0.0,0.0,1.6858,1.7076,1.7076,1.7442,1.7727,1.7867,1.8027,1.8302,1.8669,1.8669,1.8949,1.9479,1.9479,1.9566,1.9708,1.9708,1.9708,1.9708,1.9708,1.9719,1.9729,1.9729,2.0123,2.0722,2.0722,2.1415,2.2446,2.2632,2.297,2.3377,2.3551,2.3595,2.3595,2.3595,2.4036,2.4694,2.5173,2.5113,2.4978,2.5457,2.4911,2.4118,2.3924,2.3744,2.3595,2.3595,2.3984,2.4321,2.4321,2.4844,2.5232,2.4933,2.5262,2.5674,2.5854,2.5457,2.5083,2.4903,2.4328,2.3956,2.4152,2.4163,2.4389,2.4914,2.4973,2.5047,2.5182,2.5559,2.5615,2.5221,2.5873,2.6123,2.5781,2.6087,2.6298,2.6298,2.6436,2.6505,2.6505,2.635,2.635,2.6505,2.5815,2.528,0.0,0.0,0.0,0.0,0.0,0.0,1.3814,1.4217,0.0,0.0,0.0,0.0,0.0,0.0,0.0,0.0,0.0,0.0,0.0,0.0,0.0,0.0,0.0,0.0,0.0,1.65,1.6595,1.6816,1.7105,1.7415,1.7626,1.8145,1.8438,1.8438,1.865,1.893,1.9225,1.9225,1.9387,1.9708,1.9708,1.9708,1.9708,1.9708,1.9708,1.9708,1.9708,1.9708,1.9708,1.9708,2.0094,2.0703,2.0703,2.1515,2.2703,2.2703,2.3092,2.3595,2.3595,2.3595,2.3595,2.3595,2.3864,2.4246,2.4657,2.4679,2.4619,2.4747,2.4208,2.3595,2.3595,2.3595,2.3595,2.3595,2.3909,2.4237,2.4463,2.5295,2.5788,2.5152,2.5749,2.6228,2.5706,2.5667,2.5545,2.5021,2.4539,2.4369,2.4692,2.4716,2.495,2.5484,2.5524,2.5598,2.5801,2.6122,2.6157,2.5854,2.6367,2.659,2.6297,2.6539,2.6691,2.6691,2.6691,2.6691,2.6691,2.6691,2.6691,2.6691,2.6251,2.5896,0.0,0.0,0.0,0.0,0.0,0.0,1.4211,1.4386,1.4226,0.0,0.0,0.0,0.0,0.0,0.0,0.0,0.0,0.0,0.0,0.0,0.0,0.0,0.0,0.0,1.64,1.6464,1.6731,1.7271,1.7415,1.7706,1.8263,1.8727,1.8987,1.8987,1.9442,1.9708,1.9708,1.9708,1.9708,1.9708,1.9708,1.9708,1.9708,1.9708,1.9708,1.9708,1.9708,1.9708,1.9708,1.9708,2.0049,2.0583,2.0583,2.1365,2.2478,2.2478,2.2912,2.349,2.349,2.3535,2.3595,2.3595,2.3595,2.361,2.3684,2.4066,2.4365,2.3774,2.3595,2.3595,2.3595,2.3595,2.3616,2.3681,2.3702,2.3837,2.4369,2.5539,2.632,2.5781,2.6711,2.7226,2.6083,2.6611,2.6824,2.5757,2.5377,2.5221,2.5278,2.5297,2.5486,2.6015,2.6085,2.6244,2.6657,2.6691,2.6691,2.6691,2.6691,2.6691,2.6691,2.6691,2.6691,2.6691,2.6691,2.6691,2.6691,2.6691,2.6725,2.6775,2.6775,2.6435,0.0,0.0,0.0,0.0,0.0,0.0,1.34,1.443,1.5067,0.0,0.0,0.0,0.0,0.0,0.0,0.0,0.0,0.0,0.0,0.0,0.0,0.0,0.0,0.0,1.5806,1.6259,1.671,1.7252,1.8106,1.8817,1.9369,1.9479,1.9548,1.9548,1.9639,1.9708,1.9708,1.9708,1.9708,1.9708,1.9708,1.9708,1.9708,1.9708,1.9708,1.9708,1.9708,1.9708,1.9708,1.9708,1.9783,1.9884,1.9884,2.0378,2.1096,2.1096,2.1844,2.2882,2.2882,2.3176,2.3595,2.3595,2.3595,2.3699,2.4231,2.4111,2.3774,2.364,2.3595,2.3595,2.3595,2.3595,2.3724,2.4137,2.4246,2.4389,2.4914,2.5675,2.6218,2.6109,2.7211,2.8047,2.781,2.7026,2.6525,2.6893,2.5939,2.5354,2.5797,2.5852,2.6033,2.6505,2.6556,2.6607,2.6691,2.6691,2.6691,2.6691,2.6691,2.6691,2.6691,2.6691,2.6691,2.6691,2.6691,2.6691,2.6691,2.6691,2.6857,2.7194,2.7194,2.7278,0.0,0.0,0.0,1.1188,0.0,0.0,0.0,1.4558,1.5113,0.0,0.0,0.0,0.0,0.0,0.0,0.0,0.0,0.0,0.0,0.0,0.0,0.0,0.0,0.0,1.5293,1.5917,1.6664,1.7532,1.8649,1.9424,1.969,1.9708,1.9708,1.9708,1.9708,1.9708,1.9708,1.9708,1.9708,1.9708,1.9708,1.9708,1.9708,1.9708,1.9708,1.9711,1.9909,1.9892,1.9726,1.9927,1.9874,1.9708,1.9708,2.0109,2.0703,2.0703,2.1545,2.2703,2.2703,2.3107,2.3595,2.3595,2.3595,2.367,2.4014,2.3879,2.3734,2.4331,2.4265,2.4053,2.4328,2.441,2.4471,2.4752,2.4796,2.495,2.5468,2.6146,2.661,2.6477,2.732,2.7865,2.7336,2.71,2.6915,2.6688,2.6258,2.6052,2.6314,2.6349,2.6436,2.6674,2.6691,2.6691,2.6691,2.6691,2.6691,2.6691,2.6691,2.6691,2.6691,2.689,2.7099,2.7286,2.7303,2.7303,2.7303,2.7303,2.7303,2.7301,2.7517,2.771,0.0,0.0,0.0,0.0,0.0,1.2985,0.0,0.0,0.0,1.4429,0.0,0.0,0.0,0.0,0.0,0.0,0.0,0.0,0.0,0.0,0.0,0.0,0.0,0.0,0.0,1.5841,1.6742,1.7967,1.8969,1.9573,1.9693,1.9708,1.9708,1.9708,1.9708,1.9708,1.9708,1.9708,1.9729,1.9803,1.9729,1.9782,1.996,1.9856,1.9856,1.9962,2.0296,2.0244,1.998,2.0296,2.0244,1.9927,1.9764,2.0034,2.0494,2.0494,2.135,2.2508,2.2508,2.3002,2.3595,2.3595,2.3595,2.3595,2.3595,2.3681,2.3958,2.4918,2.4885,2.4637,2.5105,2.5202,2.524,2.5335,2.5467,2.5664,2.6048,2.6718,2.7126,2.6775,2.7182,2.7357,2.6633,2.71,2.7296,2.6474,2.6554,2.6691,2.6691,2.6691,2.6691,2.6691,2.6691,2.6691,2.6691,2.6691,2.6691,2.6691,2.6758,2.6825,2.6825,2.721,2.756,2.7897,2.7897,2.7897,2.7897,2.795,2.7837,2.7512,2.7851,2.8037,0.0,0.0,0.0,0.0,1.357,0.0,0.0,0.0,1.4282,1.3579,0.0,0.0,0.0,0.0,0.0,0.0,0.0,0.0,0.0,0.0,0.0,0.0,0.0,0.0,0.0,1.6544,1.7314,1.8522,1.8743,1.9076,1.9678,1.9708,1.9708,1.9708,1.9708,1.9708,1.9708,1.9708,1.9874,2.0229,1.9874,2.0087,2.0829,2.0416,2.0449,2.0845,2.0894,2.0894,2.0861,2.0894,2.0894,2.078,1.9997,1.9753,1.9813,1.9813,2.0647,2.1799,2.1799,2.2592,2.3595,2.3595,2.3595,2.3595,2.3595,2.3927,2.4343,2.4477,2.4799,2.5125,2.5182,2.5202,2.5316,2.5797,2.6399,2.6842,2.6656,2.7197,2.7518,2.6826,2.6759,2.6995,2.7531,2.718,2.6995,2.7517,2.708,2.6691,2.6691,2.6691,2.6691,2.6691,2.6691,2.6691,2.6691,2.6691,2.6691,2.6691,2.7035,2.7241,2.7241,2.7619,2.7855,2.7897,2.7897,2.7897,2.7897,2.8197,2.8311,2.8272,2.8311,2.8527,0.0,0.0,0.0,0.0,0.0,0.0,1.4363,0.0,1.3775,0.0,0.0,0.0,0.0,0.0,0.0,0.0,1.5046,0.0,0.0,0.0,0.0,0.0,0.0,0.0,0.0,0.0,0.0,0.0,1.851,1.9021,1.9678,1.9708,1.9708,1.9708,1.9708,1.9708,1.9708,1.9929,2.0141,2.0297,2.0398,2.0664,2.0991,2.0797,2.0813,2.1007,2.1244,2.1213,2.1007,2.1244,2.1213,2.0959,2.0614,2.0464,2.051,2.0919,2.1414,2.2002,2.2852,2.3472,2.3918,2.4035,2.4266,2.4471,2.4158,2.443,2.4914,2.524,2.5486,2.5726,2.5998,2.607,2.6239,2.6884,2.6954,2.6956,2.7265,2.7249,2.7199,2.7334,2.6996,2.6928,2.7672,2.7199,2.681,2.7114,2.6894,2.6691,2.6691,2.6691,2.6691,2.6691,2.6691,2.6691,2.6691,2.6691,2.6791,2.7035,2.7441,2.7736,2.7932,2.8098,2.829,2.852,2.8551,2.8551,2.8551,2.8688,2.8749,2.8749,2.8749,2.8839,1.3316,0.0,0.0,0.0,0.0,0.0,0.0,0.0,0.0,0.0,0.0,0.0,0.0,0.0,0.0,0.0,0.0,0.0,0.0,0.0,0.0,0.0,0.0,0.0,0.0,0.0,0.0,1.7305,1.8042,1.8734,1.9373,1.9585,1.9747,1.9856,1.9856,1.9927,2.0067,2.0347,2.055,2.065,2.0894,2.1134,2.1354,2.1213,2.1228,2.1369,2.1675,2.163,2.1369,2.1658,2.1613,2.137,2.137,2.137,2.142,2.1923,2.2192,2.2476,2.3765,2.4289,2.4432,2.4559,2.4875,2.5125,2.4752,2.4992,2.5503,2.5888,2.6086,2.6262,2.6607,2.6691,2.6894,2.7621,2.7571,2.7418,2.7722,2.7705,2.7672,2.7773,2.7554,2.7435,2.7756,2.735,2.6928,2.6725,2.686,2.6928,2.6725,2.6808,2.6857,2.6857,2.6954,2.7019,2.7019,2.7019,2.7192,2.7572,2.788,2.8197,2.8552,2.8565,2.8694,2.8994,2.9005,2.9005,2.9005,2.9005,2.9005,2.9005,2.9005,2.9005,0.0,0.0,0.0,1.5385,0.0,0.0,0.0,0.0,1.4286,0.0,0.0,0.0,0.0,0.0,0.0,0.0,0.0,0.0,0.0,0.0,0.0,0.0,0.0,0.0,0.0,0.0,0.0,1.6466,1.7227,1.793,1.8601,1.9313,1.9874,2.0263,2.028,2.05,2.0943,2.0959,2.1166,2.1552,2.1181,2.1447,2.2237,2.1794,2.1823,2.2268,2.2268,2.2268,2.2268,2.2268,2.2268,2.2268,2.2268,2.2268,2.225,2.2134,2.2514,2.3183,2.3941,2.4612,2.517,2.5166,2.5182,2.5202,2.5182,2.5559,2.5995,2.5995,2.6332,2.6674,2.6691,2.6691,2.6894,2.7621,2.8383,2.8722,2.7959,2.8939,2.9548,2.8094,2.8416,2.8705,2.7925,2.779,2.7519,2.681,2.73,2.7503,2.6793,2.7035,2.7288,2.7288,2.7619,2.7869,2.7869,2.7869,2.8006,2.8337,2.8381,2.8565,2.8952,2.8982,2.8994,2.9005,2.9005,2.9005,2.9005,2.9005,2.9005,2.9005,2.9005,2.9005,0.0,0.0,1.613,1.6441,0.0,0.0,0.0,0.0,0.0,0.0,0.0,0.0,0.0,0.0,0.0,0.0,0.0,0.0,0.0,0.0,0.0,0.0,0.0,0.0,0.0,0.0,0.0,1.6575,1.7261,1.7964,1.8638,1.9565,2.0158,2.0297,2.06,2.0845,2.0991,2.126,2.146,2.1597,2.1781,2.202,2.2296,2.2135,2.2149,2.2296,2.2296,2.2296,2.2296,2.2296,2.2296,2.2347,2.2835,2.3038,2.3025,2.2974,2.31,2.3468,2.4697,2.5595,2.6141,2.5835,2.5944,2.6123,2.5817,2.6068,2.6453,2.6453,2.659,2.681,2.73,2.7418,2.7739,2.9024,2.9161,2.9061,2.9279,2.9347,2.9364,2.9328,2.9364,2.9472,2.9678,2.9554,2.8791,2.6978,2.6911,2.708,2.7085,2.7225,2.7394,2.7663,2.7826,2.7897,2.7897,2.8102,2.829,2.8394,2.8658,2.8863,2.8994,2.9005,2.9005,2.9005,2.9005,2.9005,2.9005,2.9189,2.9257,2.9286,2.9995,2.9948,1.5827,1.6486,0.0,1.7195,1.7607,0.0,1.7823,0.0,0.0,0.0,0.0,0.0,0.0,0.0,0.0,0.0,0.0,0.0,0.0,1.5137,0.0,0.0,0.0,0.0,0.0,0.0,1.5654,1.6172,1.711,1.7942,0.0,1.9717,2.05,2.0749,2.1055,2.1291,2.1462,2.172,2.1838,2.1838,2.2166,2.2296,2.2296,2.2296,2.2296,2.2296,2.2296,2.2296,2.2296,2.2296,2.2448,2.275,2.3207,2.3562,2.3831,2.4086,2.434,2.4712,2.5659,2.6302,2.6657,2.6349,2.6453,2.6641,2.6349,2.6453,2.6691,2.6691,2.6691,2.681,2.73,2.7401,2.774,2.8973,2.9016,2.9005,2.9756,2.9865,2.9971,3.047,3.0612,3.0693,3.092,3.052,2.9605,2.7811,2.7543,2.7519,2.7504,2.7616,2.7791,2.8047,2.8215,2.8281,2.8281,2.8489,2.8602,2.8602,2.8851,2.9005,2.9005,2.9005,2.9262,2.9831,2.9384,2.9422,2.9994,2.9673,2.9504,2.9532,3.0527,3.0676]}]]